GFSMA_sfc_thetae_000.txt.gz
Theta_e
353 357 355 357 360 362 363 357 357 356 357 355 358 354 355 355 354 357 355 360 363 363 362 362 360 359 360 359 359 357 357 357 354 354 354 354 353 352 352 351 350 350 350
358 357 354 355 356 361 358 359 356 354 354 357 355 355 354 355 355 356 354 357 359 363 363 363 362 360 359 359 359 358 357 354 352 353 353 354 353 354 352 351 351 350 349
356 354 353 352 357 361 358 358 357 357 355 356 356 355 355 354 357 352 357 359 356 361 363 363 362 361 359 360 361 358 357 355 354 354 353 354 354 354 354 353 352 350 351
356 358 353 351 355 359 358 355 352 351 353 354 354 354 354 354 355 355 355 354 354 354 361 363 362 360 361 359 360 358 358 354 354 353 353 354 353 354 353 353 353 353 352
356 354 353 352 355 356 357 356 349 351 349 351 352 354 353 354 355 353 356 353 353 355 355 359 359 358 360 357 358 358 356 355 354 354 353 352 353 353 353 353 353 353 353
353 353 353 353 353 350 354 356 350 350 349 347 351 351 349 354 357 356 353 352 354 356 355 353 352 354 359 357 356 358 356 354 356 355 353 352 353 354 353 353 352 352 353
352 352 350 352 354 352 351 353 352 349 349 350 346 345 345 351 352 354 353 352 352 354 354 353 352 351 350 354 355 359 357 356 354 355 354 351 354 353 353 352 351 352 352
350 350 350 351 352 348 351 352 350 347 349 348 342 342 334 343 348 351 352 352 349 352 352 353 349 349 350 351 354 358 357 357 356 355 352 353 353 353 351 351 350 351 351
349 349 350 350 350 353 348 350 349 345 344 348 347 338 332 334 341 349 350 349 349 349 350 351 351 351 349 351 353 355 357 357 358 357 355 355 353 353 351 350 350 350 351
349 349 349 350 352 352 347 351 348 342 343 342 343 346 343 346 335 334 345 349 350 348 347 349 349 352 351 350 354 354 352 352 355 355 356 357 354 352 351 351 350 349 350
350 348 348 349 351 352 351 349 350 345 344 341 339 340 342 343 344 336 334 339 345 348 348 347 350 350 352 350 352 352 353 352 352 354 355 355 356 354 353 352 351 351 351
349 348 347 349 350 350 349 347 349 348 345 343 341 339 339 337 340 338 334 337 337 342 346 347 348 347 349 350 352 353 353 351 350 350 352 355 355 355 354 353 352 351 351
347 346 347 347 349 351 349 350 348 345 345 342 339 340 341 341 344 343 340 336 334 340 341 346 346 347 347 348 350 352 352 350 348 347 347 348 349 351 351 351 349 351 351
348 348 348 348 348 349 349 347 350 344 346 342 342 343 344 344 345 344 340 337 332 335 337 338 346 347 349 349 351 352 349 348 346 344 344 345 347 348 349 350 351 353 353
349 348 347 347 346 347 349 346 344 344 342 341 340 341 339 339 344 343 346 345 336 327 329 334 334 344 346 349 350 348 349 346 347 344 343 341 343 342 347 349 345 341 340
347 347 347 346 344 344 345 345 342 345 342 341 342 342 341 338 342 342 344 346 343 337 328 336 339 342 344 347 349 347 343 341 340 340 337 336 337 338 337 337 336 336 335
342 340 342 347 346 343 344 341 342 342 341 340 342 341 339 340 338 341 342 343 339 340 332 336 339 344 341 341 341 342 338 331 328 330 329 328 327 328 328 328 327 328 328
345 341 341 339 342 342 341 341 339 340 338 338 338 337 336 339 339 340 342 341 341 342 336 332 336 339 337 340 337 335 333 328 324 327 327 326 325 324 323 322 320 319 318
342 342 342 342 340 337 337 334 333 331 331 332 330 330 330 333 333 334 338 338 340 340 339 334 332 338 335 335 336 333 329 329 325 327 326 323 322 321 319 318 316 314 312
341 340 338 338 338 338 336 333 330 329 329 327 325 324 325 325 326 328 332 332 335 335 335 332 331 329 330 335 335 330 326 326 321 323 327 322 321 322 320 318 318 316 313
343 340 337 338 337 335 334 332 330 328 326 323 322 322 322 323 323 324 325 322 325 332 332 330 328 328 329 332 330 329 330 328 323 322 321 320 319 320 319 321 318 316 314
341 340 338 336 335 332 326 328 330 329 325 322 319 317 316 315 317 319 321 322 319 321 329 329 330 327 328 326 326 323 323 318 316 321 319 320 322 321 319 318 317 316 312
338 336 330 329 327 322 317 324 328 332 327 326 323 322 322 319 319 316 320 318 315 318 324 326 323 321 319 320 321 320 318 317 316 317 316 312 319 317 315 314 316 314 311
333 330 327 325 321 311 311 315 324 330 325 318 320 318 315 313 314 319 316 311 307 306 310 311 308 308 309 312 315 317 316 317 318 318 317 309 311 309 311 313 316 313 311
324 322 321 320 317 309 307 309 321 318 314 311 310 310 312 311 313 316 315 311 309 308 310 310 310 309 310 311 312 313 308 308 308 311 312 309 308 307 307 307 312 314 311
319 316 314 314 311 309 304 305 316 315 311 309 307 305 307 306 306 309 317 315 309 309 313 312 311 310 312 309 313 311 309 306 305 305 308 306 306 306 302 310 312 310 310

GFSMA_sfc_thetae_003.txt.gz
Theta_e
343 346 346 349 351 351 351 351 349 350 351 351 352 353 353 350 352 352 352 360 362 362 364 360 359 358 358 358 357 358 356 356 355 355 354 354 353 352 351 351 351 350 347
344 347 346 346 347 348 349 351 350 349 347 350 351 351 352 351 351 350 351 350 359 362 363 362 361 359 359 358 358 358 356 357 357 354 355 356 355 354 352 351 351 351 351
347 345 346 343 345 348 349 347 350 349 348 350 350 350 351 351 352 352 353 352 353 360 362 363 361 362 362 361 359 359 358 357 356 355 355 354 355 354 354 352 351 351 351
346 346 345 343 345 348 348 347 346 346 345 347 345 349 351 351 353 350 353 352 351 352 360 363 362 361 361 360 359 359 359 358 355 354 356 355 355 354 354 354 354 353 352
349 346 345 344 344 345 345 347 343 345 343 345 345 346 347 347 348 352 351 351 351 352 354 360 363 362 361 358 359 358 358 357 355 353 354 354 354 353 353 354 354 353 352
349 345 345 344 345 343 343 345 341 340 343 343 348 345 345 347 348 346 347 351 350 351 353 351 356 358 361 360 360 358 357 358 355 355 355 354 354 354 353 352 352 352 352
344 344 342 344 343 343 341 341 342 340 341 344 340 339 341 344 345 348 347 346 349 351 351 352 352 353 355 358 357 355 357 359 356 357 356 354 354 353 353 352 352 351 351
343 342 342 342 341 342 342 342 342 338 341 342 334 335 328 333 342 346 346 345 345 349 349 351 350 350 349 350 351 354 357 359 356 357 355 352 353 352 352 352 351 349 350
342 341 341 341 342 341 341 342 342 337 336 341 340 333 327 324 334 341 343 343 344 344 346 349 349 349 348 349 351 352 356 355 358 357 357 355 352 351 351 351 350 349 349
342 342 341 342 343 341 340 341 342 338 338 335 338 343 338 337 329 328 337 342 344 343 344 344 347 348 348 348 352 352 352 351 354 358 358 357 354 351 351 351 350 348 349
340 343 341 341 342 342 342 341 339 337 336 335 333 334 335 337 338 332 327 331 339 342 343 343 346 347 349 348 348 350 351 350 351 353 353 355 354 352 352 352 351 351 351
338 341 341 340 341 342 341 342 341 338 337 336 335 336 334 333 332 332 327 328 330 336 341 342 342 343 346 347 350 352 352 350 349 349 350 350 353 353 353 352 352 350 349
336 338 339 338 340 342 341 341 341 340 338 337 336 336 337 336 338 335 332 329 329 335 339 342 343 343 344 344 347 352 353 349 347 345 346 345 348 350 351 351 351 352 352
335 338 338 340 341 342 341 341 340 338 337 336 335 338 338 339 340 338 333 330 324 328 331 332 339 340 342 343 345 351 346 347 345 343 343 343 345 345 344 345 345 348 348
337 338 340 339 340 340 340 338 337 339 339 337 337 339 338 336 335 339 337 333 329 322 325 331 333 341 343 344 346 346 341 343 345 342 338 338 340 340 339 344 345 345 341
337 338 338 338 338 338 339 339 337 339 337 337 337 336 334 332 333 338 337 335 336 328 322 330 334 339 342 347 348 342 341 339 337 337 334 333 335 335 337 337 336 335 334
338 337 337 337 336 336 337 338 338 338 337 335 336 336 336 337 337 337 336 336 333 333 326 330 334 338 338 338 339 338 335 330 330 332 331 330 329 329 329 329 329 329 328
337 336 337 337 335 336 336 336 336 337 336 335 335 333 334 336 332 333 335 335 335 334 329 327 332 333 334 336 334 329 332 330 326 329 328 327 326 325 324 322 321 320 319
335 336 337 335 335 333 332 330 330 329 327 326 327 327 328 331 329 330 331 331 333 334 332 331 329 331 329 331 326 324 323 322 328 327 325 324 324 322 319 318 317 314 312
333 334 336 334 333 332 330 330 330 327 325 323 323 323 322 323 325 327 325 323 327 330 331 329 326 327 328 330 327 322 318 316 316 326 323 322 322 322 320 318 317 314 311
333 333 333 331 330 331 331 329 328 324 322 320 319 319 319 323 322 322 320 319 323 325 329 327 326 327 327 327 325 324 319 318 315 317 315 315 315 315 317 320 318 315 313
332 332 328 323 320 323 326 327 327 324 321 318 315 314 314 316 321 320 318 319 321 320 325 326 325 320 318 321 321 320 317 314 312 313 312 312 314 313 314 311 317 315 312
326 323 320 314 309 309 317 323 326 323 322 319 319 320 320 320 317 314 311 311 312 316 317 319 313 315 311 314 318 315 313 312 308 310 309 306 308 308 311 313 316 313 311
319 318 314 309 306 307 312 320 319 313 309 309 311 311 309 310 314 309 305 304 305 305 305 307 308 306 307 309 310 313 312 314 313 310 308 306 306 302 305 307 316 313 311
311 308 308 308 306 305 308 312 311 308 305 304 306 308 308 311 314 311 307 306 307 307 311 311 311 311 311 311 310 307 305 304 303 306 305 304 305 304 305 304 309 315 312
308 306 305 304 306 304 304 307 309 307 304 304 304 303 307 306 306 309 311 309 307 308 309 309 308 309 307 309 310 307 306 302 301 302 304 304 304 303 299 305 307 305 306

GFSMA_sfc_thetae_006.txt.gz
Theta_e
346 348 348 348 348 349 349 347 348 348 351 352 352 351 350 350 350 349 348 356 360 361 362 360 359 358 358 359 359 355 355 355 354 354 354 354 352 351 351 351 349 348 348
342 343 345 344 345 346 347 348 346 346 347 347 349 351 350 349 350 349 349 351 358 361 361 362 360 358 358 357 358 356 356 356 355 354 355 354 354 354 352 351 352 351 348
341 342 344 343 343 345 345 346 346 346 345 349 348 349 349 350 349 350 350 348 350 360 362 363 362 361 360 359 357 357 358 356 356 356 355 354 354 354 354 353 351 351 350
344 344 342 343 343 343 344 343 343 343 343 345 345 346 347 346 349 350 349 349 349 351 360 361 362 361 361 360 359 358 359 358 355 355 355 355 354 353 354 354 353 353 352
345 343 343 342 342 343 343 343 341 341 340 342 343 344 345 346 349 351 349 349 349 348 349 359 361 361 361 360 359 359 359 358 356 353 355 354 354 354 352 353 353 353 353
346 342 340 341 342 340 341 342 339 341 339 340 344 344 345 344 346 346 348 350 349 350 351 350 356 358 361 360 357 359 356 351 356 355 353 353 353 353 352 352 352 353 352
347 344 341 341 339 340 339 342 338 335 336 339 335 336 340 344 344 344 345 347 348 348 350 350 349 351 354 359 355 356 359 355 354 355 354 353 352 353 352 353 351 352 351
342 341 339 338 339 339 338 339 338 336 336 339 332 330 327 331 339 342 344 344 345 348 349 348 348 349 350 350 351 355 354 356 356 357 356 354 353 351 350 350 349 350 351
341 340 340 338 338 340 339 340 339 336 333 337 336 330 324 323 330 337 341 342 344 342 345 347 348 348 348 348 350 351 353 353 355 358 357 354 351 350 350 349 349 348 348
339 340 339 339 339 338 337 339 341 338 335 333 335 340 334 332 326 323 333 339 342 341 342 344 346 346 347 347 349 350 350 351 353 357 357 357 354 351 350 350 349 349 348
336 339 339 338 339 339 338 339 338 335 335 333 331 331 332 333 332 327 325 330 338 341 342 344 344 345 347 346 346 348 351 350 350 352 354 354 354 352 351 350 351 350 348
334 337 340 338 339 339 339 340 339 335 336 333 332 332 332 330 329 329 327 329 330 333 340 342 342 343 345 346 349 350 351 350 348 348 348 349 350 350 350 349 350 351 350
333 335 337 336 336 339 339 340 338 336 335 334 332 332 334 333 335 332 330 329 328 333 336 339 341 341 344 344 346 352 352 349 346 343 344 345 346 348 351 350 350 353 351
332 335 336 336 338 339 339 339 340 339 337 335 334 334 334 336 337 337 333 330 325 327 328 332 337 340 341 342 343 348 345 344 343 340 339 339 340 343 343 345 346 346 346
336 335 336 336 337 338 338 338 337 336 336 335 334 336 335 336 337 337 336 334 329 322 323 329 331 338 342 343 344 343 344 342 342 338 338 336 335 336 336 340 340 339 339
335 335 335 335 336 336 336 334 333 336 335 334 335 335 334 334 334 336 336 335 334 330 323 330 334 337 340 345 346 341 343 341 339 337 335 333 334 335 335 336 335 334 334
333 335 335 334 333 333 334 334 334 336 334 335 335 334 332 332 332 335 335 334 334 332 326 330 333 336 335 337 337 335 335 332 332 334 333 332 331 331 331 330 330 329 329
334 335 336 334 332 333 333 334 335 335 334 333 334 335 332 337 333 332 333 332 333 334 329 327 331 331 332 334 335 329 331 329 328 329 328 327 326 325 323 322 322 321 320
332 334 333 331 330 330 329 328 327 326 326 327 327 328 330 330 329 328 327 327 330 332 331 329 327 329 329 330 325 323 320 324 326 326 326 325 323 320 318 316 315 313 311
332 332 330 330 330 330 330 329 327 325 324 323 323 324 324 324 326 323 323 324 326 327 328 327 326 326 327 326 324 320 315 317 321 322 322 321 320 320 318 316 315 313 310
330 329 327 327 328 328 328 325 325 324 322 319 319 321 322 324 324 323 322 322 324 325 326 326 325 325 325 325 322 322 316 316 314 318 317 315 315 314 315 317 317 315 312
324 320 316 316 320 324 323 324 323 319 317 315 314 314 316 319 319 319 320 321 322 323 325 324 324 319 317 319 319 320 316 311 308 311 313 311 314 312 314 312 316 315 312
316 312 309 309 309 315 320 321 323 320 318 318 319 317 318 319 315 310 312 312 313 316 320 324 315 312 310 312 316 313 312 313 311 310 308 303 306 309 311 312 316 313 311
314 311 308 306 306 309 315 313 314 309 307 307 309 311 313 314 312 305 304 305 306 306 306 309 310 308 308 309 312 312 312 311 308 306 308 303 304 302 307 310 317 314 312
305 304 305 306 307 309 309 309 308 307 304 302 305 308 309 308 310 310 308 306 306 307 311 311 311 311 310 310 309 304 301 303 300 303 303 302 302 303 304 302 308 315 312
304 304 304 305 306 305 305 306 306 306 302 302 303 303 308 306 305 307 307 305 305 306 307 307 307 305 307 308 309 305 304 302 302 301 304 303 304 303 300 306 304 305 307

GFSMA_sfc_thetae_009.txt.gz
Theta_e
346 347 347 347 347 348 348 347 348 348 349 349 351 348 348 348 348 347 350 357 360 360 361 361 360 359 358 359 358 355 355 354 354 353 352 353 352 352 351 350 347 347 347
343 342 343 344 345 345 346 346 345 346 345 347 348 349 346 348 349 347 347 347 359 359 361 362 360 359 358 358 358 357 356 355 355 354 354 353 353 353 352 351 349 348 348
341 341 341 342 343 343 343 344 344 344 344 344 345 348 347 348 349 348 348 347 350 358 360 361 362 360 360 358 358 358 358 357 357 356 355 354 353 354 352 353 351 350 350
340 339 339 341 342 342 342 341 341 341 341 341 343 345 347 346 348 348 348 348 349 348 354 359 360 361 360 359 358 358 359 357 357 356 356 355 354 352 352 354 353 351 350
343 342 341 341 342 340 340 340 339 340 339 339 340 342 343 343 345 349 348 347 347 348 348 355 358 359 359 359 359 360 360 358 357 356 356 355 355 353 352 352 352 352 351
345 342 342 342 341 338 338 339 338 339 337 338 342 343 342 343 345 346 346 348 348 348 348 348 350 354 359 361 359 359 360 360 358 356 355 352 352 352 352 351 351 351 351
343 342 340 339 338 338 339 338 336 335 336 337 333 333 336 340 342 344 345 347 347 348 348 348 349 352 355 358 356 357 360 361 355 354 356 352 351 351 351 352 351 350 351
343 342 339 339 339 338 335 337 336 333 333 336 330 328 326 330 335 340 343 344 345 347 347 349 348 348 348 350 352 356 357 356 356 353 354 353 352 351 349 351 350 348 349
339 340 340 337 337 338 336 336 337 334 332 334 334 328 322 321 326 335 339 342 342 343 345 347 346 347 348 348 351 351 353 352 354 355 353 355 352 350 350 349 349 347 348
337 338 337 337 336 337 337 338 338 335 332 331 334 335 331 328 322 322 330 338 341 341 341 343 345 346 346 346 350 351 350 349 350 352 353 355 353 350 349 349 349 349 347
334 337 337 336 335 336 336 337 337 334 334 332 333 331 331 331 329 325 320 325 334 340 341 342 343 344 345 345 345 347 350 348 348 350 352 353 353 352 351 350 351 352 350
331 334 337 336 336 336 336 336 337 336 335 333 332 330 330 329 327 326 324 324 326 332 340 341 342 343 343 344 347 349 349 349 347 347 348 350 349 351 352 348 348 348 349
330 331 334 334 334 336 336 336 335 334 334 333 332 330 331 331 332 330 327 325 324 330 335 339 341 341 343 343 345 351 351 348 345 342 343 344 346 347 348 349 349 349 349
330 332 334 334 335 337 337 336 336 335 334 334 331 331 332 333 334 333 330 327 323 324 328 330 334 338 340 341 343 348 346 344 343 339 338 338 340 342 344 346 346 346 347
335 334 334 333 334 336 336 335 337 339 337 332 332 332 332 334 336 336 334 332 328 322 323 329 329 336 337 340 342 343 341 341 343 339 336 335 336 336 338 339 339 337 338
333 333 333 334 334 335 335 335 336 336 335 334 332 332 333 333 334 335 335 334 333 329 324 328 330 335 339 343 343 340 340 339 338 338 336 333 333 333 335 336 335 335 335
333 333 332 331 331 331 332 331 331 334 334 333 332 333 332 333 332 334 334 332 332 331 326 329 333 334 335 335 334 333 332 331 331 333 333 332 330 331 331 331 331 331 330
332 334 333 330 331 331 332 332 335 335 334 332 333 330 331 335 333 333 332 332 331 332 329 325 330 331 333 333 331 329 329 329 327 329 328 328 326 325 324 324 323 322 322
330 330 329 329 328 327 326 326 327 327 327 328 330 333 332 332 330 328 328 328 328 330 330 328 326 328 330 328 322 320 321 323 324 327 326 324 323 321 319 317 316 314 313
327 327 327 327 327 328 328 326 325 323 323 322 323 324 325 326 324 323 325 325 326 328 328 327 325 326 326 324 322 317 314 319 317 321 322 321 320 319 317 316 315 313 310
323 322 323 324 325 326 326 324 325 323 321 319 321 323 324 326 326 326 324 324 325 323 325 325 324 324 324 323 320 320 315 315 314 318 316 315 313 312 313 315 316 315 312
316 316 316 321 322 324 320 322 320 316 316 316 315 316 317 318 319 320 321 321 321 323 322 322 322 321 317 317 318 321 314 313 310 312 314 313 316 315 315 314 316 315 312
311 309 312 316 317 319 318 319 321 317 318 318 317 317 318 316 312 310 310 310 311 313 317 321 316 311 311 313 316 315 314 314 311 311 312 308 311 312 312 312 316 313 311
307 305 306 307 314 315 312 312 313 308 306 306 308 313 314 309 307 307 307 306 306 308 308 309 308 308 308 309 311 313 313 309 309 307 308 304 305 305 310 311 316 315 312
303 302 306 309 311 309 308 308 306 303 302 302 304 307 305 304 311 310 307 305 306 305 309 310 310 310 310 310 309 304 301 302 301 302 305 303 303 303 303 303 306 312 313
302 304 304 306 308 307 305 305 306 305 301 302 302 302 308 304 305 306 306 306 304 305 306 305 305 305 306 306 309 305 305 302 302 301 305 304 304 303 301 306 303 302 305

GFSMA_sfc_thetae_012.txt.gz
Theta_e
350 350 351 351 351 352 352 352 352 353 353 352 354 352 352 351 350 352 354 360 360 360 362 361 360 359 357 358 358 356 356 355 354 354 352 353 353 352 350 349 350 347 346
348 348 347 347 348 350 351 351 351 350 350 351 351 352 351 352 351 351 352 353 358 359 359 361 361 359 359 358 357 357 356 355 356 356 354 355 354 354 352 351 349 347 348
345 344 346 346 347 348 349 349 349 348 348 348 348 350 350 351 351 351 351 351 354 358 360 361 361 361 361 359 358 358 357 356 356 355 355 355 354 353 354 354 351 350 351
344 344 344 344 347 347 347 346 347 345 345 346 346 348 351 350 350 350 351 350 351 352 356 358 359 359 360 359 359 359 358 357 356 355 354 354 355 354 353 353 354 352 351
345 343 342 343 345 345 344 345 343 344 343 344 344 345 348 349 349 351 350 351 351 351 351 355 356 356 359 359 359 360 359 358 356 356 356 355 355 354 353 353 353 353 352
344 344 344 343 345 344 343 343 342 342 343 343 344 345 345 347 346 349 350 350 351 351 351 352 354 355 357 360 361 360 359 358 358 357 356 355 354 354 353 352 352 352 352
344 343 342 342 343 343 343 342 342 341 341 342 340 336 340 343 346 348 350 349 350 350 350 352 352 354 353 356 358 359 360 359 356 356 354 352 350 350 351 350 349 349 351
343 344 341 340 340 341 340 341 340 338 338 341 335 334 333 338 342 345 347 348 349 351 350 350 352 353 354 355 357 357 357 359 358 356 354 351 350 350 350 349 349 348 348
341 341 342 341 339 341 339 340 341 339 336 338 338 334 328 328 332 340 343 346 347 348 349 351 352 352 353 353 353 354 353 352 356 356 353 351 350 349 350 349 349 348 347
338 341 340 340 339 339 340 339 341 341 339 336 337 338 336 334 330 331 337 342 347 346 347 350 351 351 352 352 353 352 351 349 351 353 350 352 351 349 349 349 349 348 347
336 337 340 339 338 338 340 340 340 340 340 338 337 336 337 336 335 331 329 334 340 345 347 347 349 351 351 352 352 351 350 349 349 350 350 351 351 352 351 351 351 351 350
335 336 338 339 339 339 339 340 341 340 339 339 338 338 337 336 335 334 331 331 332 336 340 346 346 347 350 349 350 350 350 349 347 346 347 349 352 351 352 354 351 350 350
334 336 337 338 338 339 340 340 340 340 339 337 336 337 336 338 339 336 335 331 332 336 339 344 347 348 348 349 349 351 351 348 345 342 343 344 346 347 348 349 350 350 349
333 336 338 338 339 339 340 340 340 340 339 338 336 336 336 338 340 339 337 334 330 331 334 337 342 344 346 347 347 348 351 345 343 340 338 339 340 342 344 346 345 345 346
337 337 338 338 338 339 340 340 340 338 339 338 338 336 336 338 339 340 340 338 335 328 329 335 337 343 345 346 346 348 348 342 342 338 335 335 336 337 338 339 339 340 340
336 337 337 338 338 339 339 339 339 340 338 337 337 336 337 338 339 340 339 338 338 334 328 333 333 337 343 341 342 342 342 336 336 336 336 335 334 333 334 335 336 336 336
335 334 333 334 336 337 338 337 336 336 335 336 336 336 336 338 338 338 337 334 334 333 328 330 335 336 337 337 334 332 332 333 333 332 333 332 331 331 332 332 333 333 333
333 331 332 331 332 334 336 335 335 336 335 334 335 336 336 337 335 335 334 333 333 333 330 327 331 331 332 330 328 324 327 327 327 329 328 328 327 327 327 326 325 323 323
330 330 331 330 329 329 329 329 330 328 329 330 333 332 334 334 331 332 331 329 330 332 331 329 327 330 329 326 321 320 321 321 323 326 325 324 323 322 321 320 318 316 315
328 328 328 329 329 329 328 327 326 325 324 324 325 325 326 326 326 327 328 328 329 329 328 327 326 326 325 324 322 318 316 317 316 319 321 321 321 320 319 318 317 314 312
324 325 326 326 327 327 327 326 325 323 322 320 320 323 325 327 327 326 325 324 325 326 326 325 324 325 325 323 321 319 316 315 314 317 315 314 314 315 317 317 317 315 312
320 324 324 324 323 323 319 321 321 320 320 319 317 317 317 317 317 317 317 319 319 321 323 323 324 321 318 318 318 321 316 315 310 314 314 312 315 315 316 316 316 314 312
316 317 319 322 321 319 316 317 319 318 317 318 318 318 315 312 311 310 311 312 313 314 317 319 309 309 310 311 316 315 315 312 309 308 313 308 313 312 315 314 314 312 310
311 312 314 317 314 312 311 310 311 310 310 312 314 310 309 310 310 309 308 306 307 308 309 310 311 310 310 310 309 313 311 307 309 308 310 305 307 307 312 311 313 314 311
308 309 312 312 310 309 307 307 309 308 307 307 310 310 311 311 310 310 310 309 308 307 309 309 309 309 309 309 310 309 306 309 306 304 308 308 306 307 307 306 306 308 312
307 308 309 309 308 307 305 305 308 308 306 306 307 308 308 307 305 305 310 309 307 307 307 306 306 307 308 307 309 307 307 305 304 304 307 305 304 306 303 306 303 304 304

GFSMA_sfc_thetae_015.txt.gz
Theta_e
347 364 360 360 359 361 359 359 359 360 359 358 358 357 355 355 355 353 353 359 359 360 362 361 359 359 359 358 358 357 356 355 354 354 354 353 353 352 350 351 349 348 347
351 360 360 361 361 361 358 358 357 356 358 358 356 356 357 356 356 354 351 356 361 359 361 362 359 361 358 358 358 357 358 356 356 357 356 355 354 354 352 351 350 349 348
360 358 359 356 357 363 360 358 358 357 356 356 355 357 356 356 356 355 353 355 357 358 359 358 358 359 361 360 360 359 358 357 356 356 356 354 355 353 353 354 352 350 350
357 358 359 354 355 359 361 357 356 352 352 352 353 357 359 356 356 356 354 354 356 354 356 359 357 357 357 359 360 359 358 356 356 356 355 355 354 353 354 354 354 353 352
357 356 352 357 358 354 353 352 356 355 350 349 350 354 356 356 357 356 355 353 355 355 354 357 356 356 356 357 360 360 359 358 356 356 356 355 355 354 350 353 354 354 353
355 356 352 353 354 349 350 350 350 350 350 348 346 347 355 352 356 354 354 353 354 356 357 357 356 354 356 356 359 361 360 359 357 357 355 356 355 354 351 351 352 353 353
355 355 352 352 350 347 351 353 353 349 347 349 345 344 348 351 351 353 354 352 354 355 357 357 354 355 354 356 356 358 360 360 358 355 354 354 354 352 352 350 349 350 351
350 349 349 351 352 349 348 351 350 348 346 348 340 343 337 343 347 350 352 353 354 355 354 356 357 358 357 357 356 356 358 360 359 356 353 352 351 349 350 349 349 348 348
349 350 346 347 351 344 341 343 351 346 343 346 348 345 338 330 344 348 351 352 353 354 354 357 357 356 358 358 358 357 356 355 357 357 355 351 349 348 349 349 349 348 347
346 347 349 347 347 346 340 341 350 351 351 342 344 346 344 341 340 337 345 349 352 353 354 356 356 356 359 358 359 356 352 350 352 354 354 354 349 347 349 349 349 349 348
346 346 347 348 349 347 344 339 342 350 348 348 344 342 344 346 342 334 333 339 346 350 352 354 355 356 358 358 357 358 352 351 350 351 351 353 351 350 350 350 350 351 351
345 347 347 348 348 348 348 348 347 349 349 348 347 345 342 342 344 342 338 341 338 343 347 350 352 352 354 354 355 353 352 350 348 348 348 349 350 352 351 351 352 352 352
342 344 346 347 346 349 348 349 349 349 348 347 347 344 344 342 350 347 346 335 335 341 342 347 349 352 352 354 355 353 353 349 346 342 343 344 346 347 350 350 350 351 352
344 347 347 347 346 345 345 345 346 350 349 348 348 347 345 345 343 341 345 339 340 338 340 343 350 350 351 352 353 349 354 347 345 341 339 339 341 342 344 345 346 346 346
344 346 346 346 348 347 347 347 346 346 347 348 347 347 345 343 339 342 342 344 341 329 333 341 343 348 348 350 350 352 353 340 343 340 337 337 337 339 340 340 340 340 340
340 344 343 345 346 346 348 346 345 345 344 343 342 343 345 345 344 342 342 343 342 343 336 341 340 342 344 341 341 343 341 339 334 335 335 333 334 334 335 336 336 337 337
343 342 339 338 340 344 346 343 341 340 339 340 341 340 342 344 343 344 344 344 342 341 334 337 337 338 337 337 334 335 336 336 332 331 332 333 331 331 332 333 334 334 335
342 342 337 334 335 338 341 342 339 339 337 337 338 338 339 342 342 344 343 341 335 334 332 329 333 334 331 327 326 325 327 327 327 328 326 326 326 326 325 325 325 323 323
340 339 339 337 336 335 334 332 332 330 328 331 335 337 337 338 335 335 334 334 334 335 334 331 329 332 329 325 321 320 321 322 324 326 324 323 323 322 320 319 317 315 313
338 338 338 338 337 336 336 334 332 329 326 326 326 326 326 327 327 329 329 328 331 331 330 329 328 327 325 324 323 319 316 318 317 319 319 319 320 320 319 318 317 314 311
337 337 337 336 335 332 329 331 331 330 324 321 320 322 323 324 324 325 324 323 326 328 328 327 326 327 325 324 322 319 316 315 315 318 315 317 318 317 317 317 316 313 311
334 335 333 332 331 327 318 322 329 327 325 324 321 319 316 316 317 318 318 319 320 323 324 324 322 319 314 316 318 320 315 315 311 315 314 311 316 314 314 313 314 312 311
329 328 329 329 327 325 314 316 321 326 323 322 321 319 315 313 313 313 313 314 314 316 318 318 313 312 311 310 317 317 316 312 310 311 314 310 314 313 315 315 312 311 309
326 323 322 322 323 317 310 312 317 325 319 318 317 319 319 318 316 316 315 314 313 314 316 315 316 314 311 315 316 316 311 309 310 311 313 308 310 306 308 309 313 312 309
326 322 320 319 320 317 307 309 318 321 317 317 317 319 318 316 310 312 316 314 313 310 308 309 309 309 309 310 312 315 310 314 310 309 311 310 310 308 307 306 309 310 311
323 321 315 315 311 314 304 306 315 317 316 315 316 314 307 311 305 307 318 316 313 312 311 311 311 311 311 308 310 313 310 309 309 309 309 309 308 310 307 308 306 307 308

GFSMA_sfc_thetae_018.txt.gz
Theta_e
351 347 343 355 366 362 358 361 358 357 358 359 359 358 356 355 354 353 352 362 360 360 361 362 358 358 357 359 358 357 357 357 355 355 354 354 354 352 352 351 350 351 349
346 342 341 351 360 362 357 357 360 356 356 356 356 357 357 357 355 355 354 355 360 358 359 361 359 357 358 359 358 358 358 357 357 357 356 355 354 354 353 353 351 350 349
357 353 352 345 354 369 362 359 358 358 355 355 355 356 356 357 356 358 355 353 355 358 359 358 358 351 353 356 358 359 358 358 357 357 357 356 355 354 354 354 353 353 352
359 357 352 358 353 368 364 353 352 355 356 352 352 353 355 355 357 359 358 355 352 353 358 358 358 354 353 353 356 357 359 358 357 357 356 356 356 354 353 354 353 353 352
360 358 357 354 358 356 359 358 352 351 350 351 350 351 353 357 354 355 357 359 357 353 354 357 356 354 355 355 352 357 358 358 356 356 357 357 355 353 353 353 354 354 353
360 358 357 358 364 354 351 351 352 351 349 350 349 347 350 354 356 353 356 360 358 357 356 358 357 354 355 355 355 353 359 359 358 357 356 356 355 354 351 352 351 353 354
358 358 357 357 358 351 352 354 359 353 352 351 348 347 347 351 356 352 354 361 356 357 357 365 356 355 356 355 355 355 357 360 359 357 355 354 354 353 353 350 349 348 351
358 356 358 359 360 353 354 353 351 353 353 352 343 340 334 340 347 352 353 353 355 361 356 359 359 361 362 365 360 355 356 358 360 358 355 352 351 349 351 350 349 349 349
353 354 354 354 358 357 353 354 352 349 345 348 350 341 333 331 344 350 352 352 356 365 364 361 357 360 361 361 362 360 357 354 356 359 357 354 351 348 350 349 350 349 348
351 351 351 352 351 359 358 351 349 346 349 345 352 346 348 346 341 340 347 349 354 358 360 366 358 359 361 359 359 360 355 351 354 355 356 354 352 350 349 347 347 349 348
350 349 350 350 352 349 354 352 350 345 345 349 351 345 349 345 348 342 338 344 348 352 353 355 355 356 359 359 356 356 354 351 352 352 352 353 353 352 349 348 348 349 350
346 350 350 350 352 354 353 355 351 344 344 349 353 350 344 341 340 344 340 342 341 346 349 352 353 354 354 353 357 356 354 353 350 349 349 351 351 352 351 350 351 350 350
347 351 350 350 350 352 353 352 349 347 346 349 351 350 348 344 343 350 346 335 338 340 345 346 347 350 350 353 355 353 357 351 348 344 343 345 348 349 350 351 351 352 352
348 350 349 349 349 350 350 352 355 352 351 353 350 353 351 347 347 345 341 342 335 341 339 345 351 351 353 354 354 349 356 349 347 343 339 339 341 342 345 346 347 348 348
347 350 350 349 347 349 350 350 347 351 352 353 352 352 352 350 350 347 345 342 337 328 334 343 350 355 350 352 349 355 350 337 339 338 337 336 339 339 340 341 341 341 340
349 347 348 348 350 350 351 351 352 351 348 350 349 347 351 350 350 348 343 343 352 340 332 350 349 345 346 343 342 341 340 338 333 333 334 334 334 336 338 339 338 338 337
346 346 343 342 346 348 350 351 349 344 344 343 343 344 344 348 346 346 354 351 350 348 340 347 345 347 341 337 333 333 332 332 330 329 328 328 328 331 330 331 332 332 333
345 344 344 341 341 342 345 345 342 341 340 339 339 340 341 342 347 349 350 347 346 345 340 332 335 334 328 325 324 323 325 326 326 327 326 324 323 321 320 320 319 318 319
343 343 342 340 341 340 338 335 335 333 330 333 334 334 335 340 338 338 335 335 338 338 337 333 332 333 325 324 320 321 321 321 322 325 323 322 321 320 319 317 315 313 312
342 342 342 340 340 339 340 339 336 333 331 329 329 328 327 329 330 330 328 329 332 331 330 329 327 326 325 325 323 320 317 319 317 319 320 319 319 319 317 316 315 313 310
341 340 339 339 339 337 335 338 335 334 331 328 323 322 324 325 324 325 327 326 330 329 329 328 327 325 322 322 321 321 315 314 314 316 316 317 318 316 314 314 314 313 310
338 337 336 336 335 331 318 323 332 332 331 329 325 324 322 319 317 318 319 320 323 329 326 324 319 316 316 319 321 320 315 314 310 316 314 312 315 312 313 313 312 310 309
335 333 333 334 333 329 316 318 326 333 330 329 328 324 322 319 319 321 318 319 318 319 322 325 317 315 314 316 321 321 317 314 312 313 316 310 314 310 314 313 311 309 308
331 331 332 333 331 320 312 314 322 329 328 328 328 327 325 324 322 323 321 318 317 318 320 319 321 319 319 321 321 319 317 315 312 313 316 308 310 306 308 311 312 310 308
329 329 333 333 330 323 309 310 322 327 325 324 324 323 322 320 311 314 321 318 315 312 309 310 309 308 309 310 314 322 317 314 310 313 320 317 310 308 308 308 310 312 309
330 328 328 329 317 323 306 307 317 324 323 320 321 318 307 314 306 308 323 321 317 316 316 316 316 313 313 311 312 318 315 314 317 314 316 315 314 317 310 314 314 313 314

GFSMA_sfc_thetae_021.txt.gz
Theta_e
359 351 347 346 353 358 357 356 355 358 358 358 357 357 355 355 355 353 354 362 361 360 361 360 360 358 356 359 358 357 357 357 356 355 354 354 354 353 352 351 350 351 350
356 350 348 346 349 354 357 352 357 358 355 356 357 356 357 359 357 357 354 356 362 360 360 360 361 359 355 358 358 358 358 357 357 356 357 356 356 355 354 353 352 352 351
359 356 351 351 349 350 348 345 352 360 355 357 355 356 355 357 357 357 357 356 356 360 361 360 361 361 359 356 358 357 358 358 357 357 357 357 356 355 354 354 354 354 353
362 362 355 353 353 346 342 341 352 350 356 354 355 353 355 355 356 359 362 357 354 353 359 360 359 360 352 351 354 356 357 357 356 357 357 356 357 356 355 354 354 354 353
359 360 354 356 358 351 351 356 352 352 351 350 351 353 353 355 354 354 356 357 358 357 356 358 357 356 353 354 352 350 353 357 356 356 358 355 356 355 354 354 353 353 353
360 364 361 356 366 357 352 352 352 353 349 347 344 347 353 352 354 353 355 360 361 358 357 363 359 353 355 355 354 354 353 354 358 357 356 356 355 353 351 351 350 351 352
360 363 363 362 362 358 356 359 354 356 347 349 351 345 345 348 353 354 354 353 357 357 356 363 358 358 354 355 355 356 355 355 358 358 356 354 355 354 353 352 350 350 350
358 359 360 358 360 358 359 358 358 356 353 358 343 340 334 336 344 351 352 359 356 361 357 360 360 360 355 352 353 356 357 357 357 359 358 354 352 350 350 350 350 349 349
354 355 355 359 358 360 358 354 355 351 347 354 352 341 332 328 334 351 354 351 357 362 359 361 355 360 360 354 354 357 356 354 357 358 358 356 351 349 349 348 348 349 348
351 352 354 352 357 360 355 355 357 352 352 347 354 347 351 346 337 335 353 355 360 359 359 353 351 354 361 357 359 358 356 353 355 357 357 354 354 352 350 350 350 349 348
353 351 352 351 353 356 357 354 355 355 354 352 348 352 349 341 345 339 337 342 350 350 356 353 352 354 359 358 355 355 355 354 353 354 354 354 355 352 351 351 351 349 347
349 352 352 353 355 354 353 357 356 353 353 347 349 350 348 343 339 339 342 343 337 344 348 350 352 353 357 353 356 362 359 353 350 351 351 352 352 353 353 353 353 351 350
347 354 353 352 351 353 353 355 354 352 352 346 347 347 352 344 356 349 349 337 335 344 345 344 352 358 351 352 353 355 356 349 348 346 345 346 348 349 350 352 352 352 352
351 353 350 351 352 350 351 352 348 348 352 348 347 350 350 348 345 344 348 348 340 335 339 344 349 353 354 352 352 354 350 341 341 340 338 339 340 342 344 346 347 347 348
349 351 350 350 351 350 351 352 352 351 353 352 350 348 351 351 346 345 347 348 346 330 332 341 348 350 349 348 346 347 340 336 336 335 335 336 337 338 340 341 342 340 341
349 348 347 349 348 351 352 353 354 352 351 352 351 350 352 357 355 358 349 345 349 341 331 341 343 345 344 340 339 338 335 332 332 331 330 330 333 334 336 338 338 337 338
348 346 346 345 345 348 350 351 349 347 347 347 346 345 345 350 351 358 359 356 349 349 340 341 343 346 335 334 331 331 331 329 328 328 327 326 325 325 326 326 327 327 328
348 346 345 344 344 342 345 345 342 342 341 340 341 342 342 345 347 350 350 348 347 347 343 338 341 332 326 324 324 323 323 325 324 326 325 323 322 320 319 319 319 318 319
344 344 343 342 343 343 341 341 339 336 335 334 334 334 336 339 336 337 338 338 339 341 340 336 333 329 324 324 321 321 320 319 321 324 322 321 320 319 317 316 314 312 311
344 342 343 342 342 341 340 339 338 335 333 331 330 330 332 331 333 334 333 334 336 333 331 329 327 325 325 325 324 320 315 317 316 319 321 319 319 319 318 317 315 313 310
342 341 341 341 338 337 334 338 335 334 332 330 328 324 324 324 324 326 330 331 334 331 330 329 325 323 322 322 321 320 315 315 315 317 316 315 314 313 313 313 314 312 309
340 340 339 337 336 332 320 325 333 334 332 331 330 331 330 327 321 321 322 322 328 331 328 323 321 318 319 320 322 319 315 314 310 318 315 313 315 312 312 311 311 310 309
338 338 337 337 334 330 318 320 327 333 332 330 330 329 326 325 327 325 321 321 321 322 325 328 321 320 319 320 323 320 318 317 314 316 317 309 312 309 313 313 311 310 309
335 334 334 334 332 323 313 314 320 334 331 330 329 328 328 326 320 324 321 317 315 315 321 321 322 322 323 326 324 323 322 318 317 317 319 308 309 307 310 313 311 309 308
334 333 334 332 332 327 312 314 320 331 329 327 324 320 324 322 312 313 322 318 316 312 309 309 309 311 311 311 315 322 320 318 315 316 319 315 313 310 311 312 314 310 308
334 332 331 330 322 327 307 309 314 327 326 322 322 319 308 313 307 309 326 323 319 319 319 318 315 313 316 314 314 323 317 315 318 314 318 315 314 313 309 314 315 315 314

GFSMA_sfc_thetae_024.txt.gz
Theta_e
362 364 358 353 353 359 348 344 341 340 348 354 357 356 353 353 354 355 356 361 359 360 362 362 361 359 358 359 361 358 357 356 356 357 355 354 355 354 354 351 352 351 351
363 361 356 354 352 354 354 349 346 342 342 343 355 355 357 357 357 355 353 356 359 360 362 364 363 360 357 354 359 360 358 357 358 358 357 357 356 354 354 354 352 353 354
363 360 355 351 353 355 348 341 345 339 338 338 351 354 356 356 356 358 356 357 358 361 359 361 363 362 361 356 359 359 359 358 359 358 356 356 356 355 355 354 354 354 354
364 362 357 358 357 354 347 341 337 338 338 338 347 350 352 354 355 357 359 357 357 354 358 360 360 360 361 359 358 357 359 357 357 357 357 356 356 356 355 355 355 354 353
362 360 356 357 361 354 347 344 340 342 344 347 349 347 350 351 354 355 356 356 356 356 356 357 359 357 361 358 352 355 353 355 356 357 357 357 355 355 353 355 355 353 353
362 360 359 358 355 358 354 352 350 349 347 345 346 344 351 351 354 354 354 357 357 358 355 355 353 353 358 357 356 354 354 353 355 358 357 357 356 355 353 352 352 351 352
358 360 358 356 356 354 353 353 350 343 341 345 344 347 351 353 350 350 355 353 353 354 356 353 355 351 353 355 355 355 356 355 355 356 358 356 356 354 354 352 351 351 350
359 361 358 354 353 350 349 350 349 344 345 349 344 344 335 338 343 349 351 352 352 354 355 356 355 351 350 348 350 355 356 357 357 358 357 356 355 353 353 352 351 350 350
359 359 356 357 353 353 349 349 348 345 341 343 349 341 334 329 337 346 348 351 351 354 355 356 354 352 352 352 352 354 356 353 356 359 357 356 353 352 352 350 349 347 349
358 356 355 355 354 353 351 350 350 349 347 342 346 344 344 344 334 331 343 347 351 353 353 354 353 352 354 352 355 354 353 352 355 356 357 356 355 353 352 350 350 349 347
356 352 354 354 353 353 352 350 349 347 347 343 343 341 340 342 344 337 333 339 349 350 351 351 351 350 351 351 353 353 352 353 352 354 355 356 355 354 354 353 352 352 351
354 353 353 353 354 352 351 350 351 350 344 344 346 343 340 337 338 337 336 338 337 342 347 349 349 348 350 351 351 349 352 352 352 350 349 352 353 354 355 355 354 353 353
348 351 353 352 351 353 352 352 350 349 346 344 345 344 341 341 342 340 340 337 335 341 342 345 346 345 349 349 350 347 346 343 343 342 343 345 345 347 349 351 352 353 353
350 351 351 351 351 351 353 355 353 354 353 349 347 347 345 345 346 343 340 336 334 336 340 339 348 347 346 345 346 342 338 339 338 337 337 337 338 339 341 343 344 346 348
348 349 348 349 349 351 352 353 349 349 352 349 349 348 347 345 346 345 345 344 338 330 331 340 342 345 341 339 340 335 333 335 334 333 333 334 335 337 339 341 341 340 340
349 348 345 346 348 349 350 351 348 345 343 343 346 347 342 343 346 347 345 344 344 338 331 340 340 340 337 334 334 331 330 331 332 330 329 329 329 330 331 332 333 334 336
347 345 344 343 342 343 347 347 344 346 344 344 344 344 344 346 345 345 347 345 342 340 335 338 340 335 328 327 326 326 326 324 326 327 326 325 324 325 326 327 327 328 329
346 344 343 344 345 342 341 341 339 339 338 337 336 340 339 342 341 343 344 343 342 341 337 333 337 324 323 325 323 321 322 323 322 324 323 322 320 319 318 318 318 318 319
344 343 342 343 340 339 338 338 337 334 333 332 333 332 332 335 333 334 337 338 338 339 338 335 327 325 323 323 320 320 318 318 321 323 321 321 320 319 317 316 314 312 310
342 343 342 341 341 339 336 335 335 333 331 329 329 328 329 330 332 333 334 334 334 333 331 327 324 324 323 323 322 317 314 316 316 319 319 317 317 318 317 316 314 313 309
340 342 342 339 338 334 328 333 333 332 331 328 328 327 325 325 325 328 330 331 332 330 328 323 321 321 320 320 319 318 314 313 313 316 313 313 313 311 310 312 312 311 309
339 342 340 336 332 328 320 323 331 331 330 329 327 329 328 325 322 323 324 324 327 330 325 323 321 319 319 320 321 317 314 314 310 318 314 311 314 310 311 310 311 310 310
338 339 337 335 330 326 317 319 323 332 330 330 330 329 326 323 326 324 322 321 320 323 325 324 320 321 319 320 321 318 318 317 313 315 313 309 313 309 313 312 311 310 310
333 333 335 334 328 319 316 314 317 330 328 326 324 327 326 321 317 321 316 311 309 310 316 318 318 319 316 323 324 322 320 316 316 316 319 308 310 308 311 313 311 309 308
335 335 334 333 329 321 311 310 320 329 326 324 320 315 323 320 313 313 319 315 312 309 308 310 311 311 311 313 316 321 318 316 314 315 317 314 311 308 309 310 311 311 308
332 332 329 327 320 320 308 307 313 331 325 320 321 317 310 309 308 309 327 324 320 320 318 314 313 312 316 314 317 318 313 312 313 312 317 313 312 311 307 312 312 310 308

GFSMA_sfc_thetae_027.txt.gz
Theta_e
349 350 342 343 342 350 345 341 340 339 339 341 342 342 349 349 349 350 351 361 359 359 364 363 361 359 361 361 361 358 356 356 354 355 354 353 355 353 351 349 351 352 351
349 348 342 342 341 345 341 338 337 338 338 339 340 339 341 348 349 348 351 353 360 359 361 363 362 361 359 362 362 361 358 357 357 358 357 356 356 356 354 354 351 352 352
352 350 347 343 343 345 344 342 340 338 335 338 337 341 344 349 351 351 349 351 355 359 360 361 362 363 361 358 359 360 361 359 358 358 358 357 356 356 356 355 355 354 353
352 351 349 346 344 342 339 336 337 333 332 333 337 339 341 347 351 352 351 350 352 352 358 360 360 361 362 361 357 360 360 359 358 358 357 357 356 356 356 355 355 355 354
352 350 349 349 347 346 339 335 334 332 335 336 338 338 343 345 348 352 351 352 350 353 351 356 358 358 360 361 360 361 361 359 357 357 357 358 357 356 355 355 354 355 354
344 346 349 350 345 344 341 338 334 334 335 341 345 345 342 339 345 347 350 352 350 351 353 352 352 354 360 360 360 360 359 357 357 357 358 357 357 355 354 354 354 353 353
339 339 348 346 345 343 343 343 343 340 339 340 339 333 341 343 345 346 348 349 350 351 350 351 350 350 352 358 357 356 358 356 355 355 356 357 357 356 355 353 351 352 351
339 347 345 344 344 342 340 342 342 338 337 340 332 329 327 331 339 345 345 346 347 349 350 352 351 349 348 351 353 356 356 357 356 356 356 354 356 355 355 354 352 351 350
349 345 344 342 342 342 341 341 339 337 335 339 340 334 326 323 329 337 341 344 343 347 348 352 350 348 348 347 350 351 354 354 356 357 358 355 354 354 354 353 352 351 350
346 345 344 344 343 343 341 342 343 339 337 333 337 341 339 337 326 324 334 339 342 345 347 345 346 348 348 349 352 351 350 348 352 354 355 356 354 353 353 352 351 350 348
344 345 345 345 343 343 342 342 341 339 338 336 335 335 334 336 337 328 324 329 339 343 345 347 348 345 347 347 348 345 344 343 347 350 352 354 354 354 354 354 354 353 351
342 344 346 344 343 342 341 342 341 340 338 339 339 338 334 332 332 332 327 327 327 333 338 343 343 341 345 342 350 343 342 343 345 346 348 350 351 352 356 356 355 355 354
340 341 343 343 343 342 342 341 340 339 338 336 337 337 337 336 337 336 331 327 327 332 335 336 340 342 347 346 344 344 344 342 342 341 341 343 345 345 347 349 350 351 353
339 341 341 342 343 344 343 341 341 339 339 338 337 337 337 339 340 338 333 328 326 327 330 331 340 340 342 342 345 344 340 339 338 336 337 337 338 338 340 342 343 343 344
341 339 340 340 342 344 343 341 340 339 340 339 338 337 336 338 341 340 340 335 328 322 323 330 331 336 336 336 336 333 334 335 332 333 332 333 334 337 338 339 338 338 339
341 340 341 340 339 341 342 340 340 340 338 339 340 337 340 340 341 339 338 337 337 329 323 331 333 332 332 332 333 329 330 330 330 329 328 328 329 330 331 332 333 334 335
338 338 340 340 338 336 336 335 335 335 334 333 337 337 337 338 337 337 337 336 334 332 326 332 333 329 327 325 324 324 324 323 324 325 324 323 322 322 324 325 326 327 328
338 337 338 337 336 337 335 332 330 330 330 329 331 331 333 334 331 332 334 333 333 333 329 327 327 323 322 321 320 320 321 322 321 324 322 321 320 318 317 317 317 316 317
334 333 335 333 331 334 334 333 330 328 327 327 327 326 327 330 328 330 330 330 329 331 329 328 324 323 322 320 318 318 318 319 321 322 320 320 319 318 317 315 313 311 310
334 332 332 332 328 328 332 332 329 327 326 323 322 321 321 322 327 327 326 327 327 326 325 324 323 321 321 322 320 315 313 316 314 316 317 315 316 317 316 315 313 311 309
333 333 330 327 326 324 327 331 330 328 325 323 320 319 319 325 327 327 323 323 324 322 320 319 320 319 320 320 318 316 312 312 313 314 312 312 310 309 310 311 311 311 310
334 331 327 325 322 321 319 323 329 327 327 325 321 319 319 320 321 321 320 322 324 319 318 316 319 317 317 319 317 314 312 311 309 316 311 310 311 308 306 306 311 310 310
333 328 325 323 318 314 315 318 326 325 324 324 323 317 315 317 315 309 311 312 315 321 322 320 315 317 317 319 318 314 316 311 310 311 308 308 310 309 311 308 310 310 310
330 328 324 319 314 311 312 312 322 320 316 313 314 317 313 311 312 307 303 301 300 304 310 312 310 307 308 316 316 315 311 309 309 310 311 306 304 306 310 306 311 310 309
330 327 327 321 313 307 309 309 318 318 314 310 309 310 310 308 311 314 307 303 301 301 308 311 311 311 313 314 314 316 310 308 306 307 311 305 303 301 303 304 305 310 308
329 324 320 316 315 307 306 306 313 317 312 310 308 306 310 306 306 310 311 308 304 303 303 304 304 306 309 310 314 307 305 305 306 304 305 307 304 303 300 304 305 305 303

GFSMA_sfc_thetae_030.txt.gz
Theta_e
345 347 348 348 349 350 347 342 343 344 340 341 343 343 345 348 348 349 350 355 358 358 362 362 361 359 358 359 359 357 354 354 354 353 354 355 354 351 351 350 352 351 351
346 346 340 340 339 345 343 340 339 338 338 338 341 340 340 343 348 349 350 350 358 359 360 363 363 361 360 360 360 360 356 356 356 356 356 355 356 356 353 351 349 352 352
348 346 342 340 340 339 343 339 338 337 335 336 337 338 340 343 349 350 349 350 351 359 358 360 362 362 360 359 360 362 360 359 358 358 357 357 355 355 356 355 353 353 354
350 348 346 344 343 342 341 339 337 335 332 331 332 336 340 343 345 349 350 350 351 351 356 359 359 360 362 360 359 360 361 359 358 357 358 357 356 355 355 355 355 354 354
352 350 349 348 345 343 339 337 337 332 331 332 332 336 339 343 346 350 350 349 349 352 351 356 358 358 359 360 360 358 359 359 358 358 358 358 357 356 355 355 355 354 354
344 343 345 344 342 342 338 336 333 332 332 335 343 345 343 343 343 343 347 349 350 349 350 350 350 352 358 359 359 358 358 359 359 358 357 356 357 356 354 354 353 354 354
340 334 339 344 343 341 340 339 335 332 333 337 335 333 334 340 340 339 343 346 347 347 348 350 347 348 350 356 355 357 358 360 359 355 354 354 355 355 354 354 354 353 352
340 338 343 343 342 340 338 338 339 335 337 340 332 327 322 329 336 341 342 345 346 346 348 349 349 348 347 349 352 355 356 356 355 355 353 351 350 354 355 353 353 352 351
346 344 341 340 339 339 337 337 337 335 332 335 337 329 324 323 328 333 338 342 344 342 344 346 347 349 348 346 350 351 353 351 352 353 354 353 352 350 352 353 353 351 350
342 343 342 342 340 340 338 338 340 337 334 331 336 340 338 334 327 325 331 336 341 342 342 343 344 347 347 346 349 350 345 345 346 348 350 352 353 352 351 351 351 351 349
342 344 343 341 339 339 340 338 338 337 335 333 331 333 335 334 334 330 325 329 335 339 341 341 343 345 344 346 343 344 343 342 343 343 343 347 351 352 352 354 354 354 353
338 340 343 341 340 339 338 339 339 337 336 335 335 335 334 330 329 331 328 328 326 330 336 338 339 340 341 340 347 344 342 341 342 341 339 344 348 351 351 350 352 355 354
335 336 338 339 339 340 340 338 337 336 335 334 334 335 337 335 335 334 332 329 327 328 333 339 341 342 347 343 342 342 341 340 341 339 339 339 342 344 346 348 349 350 351
334 336 338 339 340 341 340 339 338 338 336 335 333 334 334 335 337 335 333 330 326 326 327 333 338 339 341 343 344 342 338 338 336 335 334 335 337 338 339 341 343 343 344
339 338 340 337 339 340 339 338 337 336 337 336 336 334 333 333 337 338 337 334 329 321 321 331 331 334 335 334 336 332 332 334 333 332 330 331 331 332 334 335 336 337 337
337 338 339 337 335 335 335 335 334 333 333 335 336 336 335 335 336 338 337 337 335 328 322 331 330 331 331 330 331 327 328 328 328 327 325 325 327 328 328 329 330 332 333
334 338 337 333 332 331 330 329 329 329 328 329 330 332 331 332 333 335 335 335 333 332 325 326 328 328 325 322 322 323 323 322 323 325 323 322 321 321 322 323 324 325 327
332 334 331 330 330 330 328 329 328 328 325 324 325 327 328 330 328 330 331 331 331 330 328 323 323 323 320 320 321 320 320 322 321 323 322 321 320 318 317 317 316 316 317
330 331 330 328 328 328 327 326 324 324 322 320 320 320 322 325 326 325 326 326 326 326 327 325 321 322 320 319 317 318 318 317 319 320 319 320 319 317 316 314 312 311 310
330 328 327 325 325 327 327 325 324 321 320 318 318 319 321 325 326 322 324 324 322 324 325 323 320 319 319 318 317 314 313 315 312 314 315 314 315 316 315 313 312 310 309
330 326 324 322 321 323 325 325 324 322 319 317 317 318 320 323 323 324 321 321 320 319 321 321 320 320 319 316 315 315 312 311 312 312 311 310 309 308 309 311 312 312 310
327 323 321 320 317 318 317 323 325 324 321 318 316 315 316 316 314 318 321 324 322 316 314 319 318 318 318 316 315 313 311 310 308 314 308 309 308 304 304 305 311 311 310
326 321 319 317 311 311 314 320 323 318 317 317 312 311 312 312 308 305 310 314 317 321 321 318 313 314 317 319 317 313 313 313 310 310 309 308 311 309 306 306 310 310 309
327 321 319 313 309 309 311 316 318 313 312 312 313 310 308 308 308 302 301 300 301 307 310 312 308 310 316 317 315 313 309 306 308 311 310 305 307 306 309 303 311 309 309
327 324 319 313 308 307 307 310 315 311 308 307 308 308 307 307 311 310 304 302 301 301 308 311 312 312 313 313 315 313 309 307 303 306 311 303 300 299 301 301 303 310 308
323 320 315 312 310 306 305 306 314 312 307 306 304 303 309 306 307 309 306 304 304 304 303 304 304 306 306 308 311 305 304 305 309 302 303 306 301 300 299 302 302 303 301

GFSMA_sfc_thetae_033.txt.gz
Theta_e
341 343 347 348 348 348 348 345 345 346 342 342 344 344 345 346 347 347 349 356 360 359 358 360 360 358 358 358 357 356 355 353 354 354 352 355 353 352 350 353 351 350 349
341 344 342 341 342 343 345 343 341 341 340 338 339 342 341 342 344 348 347 349 359 359 358 360 360 361 358 357 359 357 357 354 354 356 354 355 356 354 352 350 351 351 352
344 345 342 339 339 339 342 340 339 337 336 335 335 339 338 339 341 346 347 348 351 359 358 359 360 362 363 361 360 359 359 358 357 357 355 356 355 355 355 353 352 352 353
338 345 346 342 343 340 340 339 336 334 333 331 331 333 335 339 339 343 347 348 349 350 355 359 357 358 362 361 361 360 360 357 357 357 356 356 356 355 355 354 354 353 353
346 344 345 345 344 342 340 338 337 335 330 329 330 330 333 335 339 344 346 347 348 349 348 354 358 356 359 359 358 361 359 359 359 358 358 357 356 355 354 354 354 354 353
347 345 344 344 343 341 339 336 335 334 333 331 335 338 337 337 339 341 343 347 347 348 349 348 348 351 356 358 357 358 359 358 358 358 358 357 356 354 353 353 353 353 354
337 337 335 341 341 339 339 337 334 331 330 332 331 330 331 336 340 340 341 343 345 348 348 348 348 348 349 354 354 355 357 356 356 356 355 355 354 352 351 352 350 351 351
338 335 336 340 339 338 337 336 337 335 331 334 330 328 325 327 333 338 338 340 341 345 345 347 347 347 347 347 349 355 355 355 354 352 353 352 351 350 349 351 350 350 350
344 342 340 339 337 337 336 335 335 335 330 336 333 328 322 321 327 333 336 338 340 341 343 345 346 346 346 345 348 348 352 353 354 353 353 352 351 350 350 349 350 351 350
341 342 341 340 338 337 336 336 337 335 332 329 334 336 332 332 325 323 330 332 337 338 340 340 342 344 345 344 348 350 347 347 348 347 347 348 349 350 351 351 352 350 349
339 341 341 340 338 337 337 337 335 335 334 331 330 330 330 333 334 328 324 328 332 336 339 339 341 342 345 347 344 347 346 345 346 347 344 344 347 350 350 349 350 351 353
335 336 339 339 338 337 337 336 336 336 334 333 332 331 330 329 330 328 325 328 328 332 336 337 338 342 341 340 346 345 344 342 342 343 341 342 344 346 348 349 350 350 351
331 333 336 337 337 338 338 336 335 334 334 332 332 332 333 332 334 331 330 328 327 330 334 337 339 343 343 342 342 344 343 341 338 336 337 338 339 341 342 344 346 347 348
331 335 337 336 338 338 337 336 335 335 333 332 332 332 332 334 335 333 330 328 326 327 329 332 336 337 337 337 340 338 335 336 334 332 333 333 335 336 338 339 340 342 343
337 339 339 333 334 334 334 335 333 332 333 333 332 332 331 332 336 337 334 333 329 323 323 331 332 334 333 333 333 329 329 331 331 329 328 329 330 331 332 333 333 334 335
336 334 332 331 330 330 330 329 329 329 330 332 333 333 333 332 333 335 335 335 333 328 324 330 329 329 329 328 329 325 326 327 327 326 325 324 325 326 327 328 330 330 331
331 330 329 329 328 327 327 326 326 325 325 325 327 327 328 329 330 332 335 334 334 331 326 326 327 326 323 322 322 322 323 322 323 325 323 322 321 321 322 322 323 324 326
329 328 328 327 327 326 326 327 324 322 321 321 321 324 325 328 326 327 329 328 332 332 328 322 323 320 319 320 320 319 320 320 320 323 322 321 319 318 317 316 315 315 316
328 327 326 325 325 324 323 322 320 319 318 318 319 320 323 325 325 324 323 323 323 327 326 323 319 320 319 319 317 318 316 315 317 319 318 319 318 316 315 314 312 310 309
326 324 323 323 324 324 323 322 319 317 317 317 318 321 322 320 319 320 322 320 325 325 324 321 319 318 318 318 317 314 312 313 312 313 314 314 315 316 315 313 312 310 309
325 323 321 320 320 321 322 321 320 316 315 314 314 315 316 322 324 325 320 318 318 322 322 320 319 318 317 315 314 315 311 311 312 311 308 309 307 307 309 311 312 311 309
322 321 318 317 314 316 317 323 322 318 317 314 311 309 311 312 314 320 323 324 321 316 319 319 318 318 318 317 315 313 310 310 308 312 308 308 305 306 305 307 312 311 310
323 319 316 313 311 311 316 318 321 317 314 311 309 307 307 307 306 306 313 315 317 319 320 318 314 316 317 318 315 312 311 313 311 312 309 308 311 307 304 305 310 309 309
322 319 314 312 309 309 313 314 316 313 311 311 309 308 306 304 304 302 301 302 302 306 307 309 311 314 319 319 317 316 314 309 308 309 309 304 308 306 307 302 311 309 308
322 319 315 312 308 306 307 312 311 309 307 306 307 307 306 307 311 309 303 301 300 301 308 312 311 311 312 314 313 310 308 307 307 309 313 302 299 298 303 300 302 310 308
321 317 313 311 309 306 305 307 310 308 305 304 303 302 308 306 309 307 305 304 304 303 302 302 303 303 304 305 309 303 308 308 309 306 310 307 298 299 298 300 300 301 300

GFSMA_sfc_thetae_039.txt.gz
Theta_e
353 351 349 355 357 360 360 364 362 359 358 358 359 356 354 354 355 353 352 354 357 358 359 358 358 359 358 359 359 357 355 355 353 354 355 354 354 354 354 352 352 350 349
351 356 354 353 356 358 359 358 361 361 361 359 356 357 356 355 356 357 354 353 356 358 359 359 361 357 358 359 360 359 358 358 357 355 356 356 356 354 355 353 352 352 352
358 356 353 353 355 357 358 358 358 357 356 358 356 355 354 355 353 354 354 356 355 357 358 359 359 358 357 361 361 360 359 359 358 356 355 357 355 355 355 354 354 354 354
357 357 355 354 355 355 353 351 352 352 352 352 352 351 351 352 352 353 353 353 355 354 357 358 358 358 358 358 359 359 358 358 357 357 356 356 357 355 355 355 355 354 354
355 352 351 352 357 353 350 351 350 349 345 348 348 348 348 347 348 349 350 351 352 353 355 357 357 356 359 358 359 359 358 355 354 355 356 357 356 355 354 355 354 354 354
355 354 352 355 357 356 354 353 352 351 350 349 346 345 346 346 345 344 345 346 349 352 356 358 357 356 358 359 359 359 357 356 353 353 354 354 354 354 353 352 352 353 353
349 352 350 353 355 354 354 355 352 350 346 347 344 344 345 347 346 346 348 348 346 352 357 357 364 365 357 357 356 356 356 355 356 353 352 352 350 352 352 352 351 350 351
354 352 354 354 355 352 352 352 350 344 342 346 341 341 335 340 343 345 345 348 350 351 353 356 358 361 363 361 360 356 357 357 355 355 354 351 351 350 349 350 348 350 349
353 353 353 354 353 351 348 351 350 344 339 341 345 343 335 332 338 339 343 345 347 349 351 353 355 356 359 361 358 357 353 351 353 355 355 354 351 349 349 347 346 347 349
349 350 351 352 353 351 350 350 351 347 344 341 340 342 345 342 338 332 341 341 344 345 350 352 354 356 358 360 355 352 349 348 349 351 351 351 349 349 349 350 349 348 346
348 348 350 350 353 353 352 351 350 349 344 341 339 342 339 343 346 342 334 335 340 342 342 345 351 354 352 352 352 349 345 343 344 346 346 346 345 345 347 346 346 347 348
346 349 349 348 348 350 350 351 350 348 348 344 344 346 345 340 341 340 340 334 336 339 342 344 346 346 349 351 348 345 343 341 339 338 339 340 341 342 344 345 345 344 345
341 345 347 342 343 346 349 351 350 350 349 345 345 345 348 348 350 349 343 336 332 335 338 338 339 341 343 343 343 341 341 338 336 336 337 338 339 341 342 344 345 346 345
342 344 345 345 343 344 347 347 342 342 347 348 346 346 347 350 350 350 337 333 329 331 335 333 335 336 336 338 338 336 335 334 333 332 332 332 335 336 337 338 339 340 341
340 342 343 342 343 344 345 345 339 340 341 341 344 347 347 349 349 351 348 346 341 327 328 334 330 331 333 333 333 332 332 331 330 329 328 329 330 330 331 333 333 334 334
342 340 340 341 341 341 342 342 340 342 342 339 340 341 341 343 347 348 348 345 345 341 328 333 327 326 329 329 330 328 328 328 327 326 325 325 326 326 327 328 329 330 332
341 339 339 339 338 338 339 339 338 339 339 339 340 338 337 341 340 342 347 347 339 338 328 327 326 325 323 323 323 325 325 325 324 324 323 321 320 320 320 321 322 324 326
339 338 337 336 335 335 336 336 335 335 335 335 336 334 334 336 336 340 339 339 341 342 334 325 322 320 320 321 321 319 320 320 321 322 320 318 317 316 315 315 315 315 316
338 337 336 334 333 333 333 334 333 333 332 332 334 334 333 336 334 331 333 334 335 335 335 329 322 321 320 320 317 317 316 315 317 318 319 318 316 315 313 313 312 311 311
337 336 336 335 333 331 331 330 330 329 329 330 331 332 330 330 334 334 332 333 332 330 328 323 320 318 319 319 319 316 313 315 312 312 314 316 317 315 314 313 313 312 311
336 335 334 334 334 332 329 331 330 325 326 327 327 329 330 328 325 327 334 335 335 330 326 323 320 319 317 317 316 317 313 314 314 319 315 315 319 317 317 314 313 312 311
336 334 333 333 333 330 321 323 326 323 323 323 322 322 327 328 324 319 320 321 326 333 329 326 323 321 321 320 318 316 314 315 313 321 319 315 319 314 316 314 311 310 311
330 326 330 332 333 331 318 318 322 325 322 320 320 319 318 320 325 326 321 322 320 320 325 331 325 325 324 326 325 319 319 317 315 317 322 313 316 314 319 315 310 309 309
328 323 322 328 331 324 315 314 319 326 324 323 321 321 320 318 318 322 322 322 320 319 321 321 323 325 327 328 327 327 324 316 318 319 319 313 314 314 318 318 311 309 308
330 326 325 325 323 320 311 312 320 324 322 320 321 321 321 320 309 312 319 319 318 314 309 310 311 312 311 311 314 324 322 319 319 320 322 319 314 314 317 315 315 310 309
328 319 316 318 313 316 306 308 318 321 319 318 318 319 309 316 308 309 319 317 315 316 316 316 316 315 316 313 313 318 314 313 315 316 322 318 319 317 312 315 315 314 313

GFSMA_sfc_thetae_042.txt.gz
Theta_e
355 356 358 355 358 368 361 361 362 358 359 358 357 356 355 355 355 353 352 358 358 360 359 359 360 360 360 360 360 358 356 356 354 355 355 355 354 353 353 354 352 351 349
354 354 352 352 354 362 369 368 363 357 355 356 357 358 358 356 356 356 354 355 360 360 360 359 362 361 359 360 359 359 358 356 358 357 356 357 356 356 355 354 354 354 353
355 359 363 358 354 358 364 365 362 361 358 356 355 357 356 357 355 357 357 355 357 358 360 361 361 360 359 359 359 360 360 358 358 357 356 356 357 355 356 354 354 354 355
361 360 355 357 358 367 372 367 358 364 361 356 358 356 354 354 355 356 356 356 354 354 357 360 360 359 359 359 358 359 356 356 355 356 356 356 356 356 356 356 355 354 354
360 364 362 359 362 355 357 355 353 357 356 354 351 353 353 353 353 351 353 356 357 356 356 360 359 358 359 358 358 358 358 355 353 353 352 354 354 353 355 355 356 355 354
361 360 362 356 357 361 364 361 357 356 352 350 349 348 350 352 352 349 349 352 355 355 355 357 359 357 359 360 358 358 359 358 354 353 352 352 352 353 353 353 352 352 353
356 361 363 358 358 356 355 357 354 353 354 353 351 346 347 352 352 349 349 347 348 349 352 355 368 357 356 357 357 358 359 358 358 354 353 352 351 351 351 353 352 351 351
358 358 358 356 357 357 356 356 356 354 352 354 345 343 338 343 346 349 349 349 350 349 351 358 362 361 359 356 359 356 357 357 356 356 355 354 352 351 351 349 349 349 350
357 358 356 357 357 355 348 355 354 352 344 347 350 344 339 332 346 348 350 349 352 349 351 353 357 359 361 358 358 357 353 352 352 353 355 354 352 350 350 350 349 348 348
354 354 354 354 355 352 354 353 353 354 351 345 347 347 349 349 342 341 348 348 351 348 351 353 355 359 360 362 357 351 347 347 349 350 351 352 351 349 349 349 349 349 349
351 350 352 353 354 359 357 356 354 354 352 350 348 345 345 346 350 345 340 339 345 344 345 347 350 356 355 357 353 345 343 343 343 343 344 345 345 345 346 347 347 346 347
346 351 351 349 351 355 356 355 355 353 350 350 347 344 346 343 342 346 344 343 342 339 340 343 346 350 349 350 347 344 342 340 339 340 340 342 343 343 344 346 346 347 347
342 348 351 350 348 353 355 355 354 353 353 352 350 349 347 351 353 352 349 342 333 339 338 339 340 342 341 344 344 342 340 337 336 336 336 338 339 341 342 343 344 345 346
343 346 349 348 349 351 352 351 348 348 351 354 349 353 353 352 355 354 348 344 335 333 336 331 333 335 336 340 339 338 338 334 333 332 332 333 334 335 337 338 338 339 339
344 346 345 344 346 347 348 349 345 344 346 346 349 350 353 356 357 357 351 345 342 332 331 331 329 331 333 334 335 336 336 331 330 329 328 329 329 330 331 332 333 333 334
346 346 343 343 344 345 347 348 345 345 346 345 345 346 348 351 356 358 354 346 345 341 335 333 326 327 329 330 332 331 330 329 327 326 325 324 324 325 326 327 328 329 330
345 345 343 343 343 343 343 343 344 342 340 340 342 342 342 346 345 348 352 352 350 344 331 324 326 325 325 324 325 327 328 328 325 323 322 320 320 320 320 321 322 323 325
344 344 343 343 342 342 342 341 340 340 338 336 337 340 341 342 344 344 345 342 347 347 335 321 321 320 320 322 323 322 322 322 322 321 319 318 316 316 315 316 316 316 316
342 342 341 340 339 340 339 339 339 339 339 336 336 337 336 339 336 336 338 337 337 339 336 325 319 321 320 320 318 318 317 317 318 320 319 317 316 315 314 314 314 313 311
342 341 341 339 338 338 337 336 336 337 337 337 338 337 336 336 336 338 337 339 339 333 329 324 320 319 320 320 320 317 315 316 314 315 316 318 318 316 315 314 314 314 312
342 341 340 340 337 335 334 335 331 334 334 334 335 334 333 328 324 326 336 338 339 334 327 323 320 319 317 318 318 317 316 315 315 318 319 322 324 324 320 315 314 313 313
342 340 339 338 336 331 322 323 329 330 329 329 329 330 332 332 325 322 324 323 327 335 334 329 325 323 323 321 321 322 318 319 318 325 322 323 326 323 322 319 311 312 312
340 338 338 339 336 333 319 320 325 329 328 328 328 327 326 326 329 331 324 324 322 322 326 332 328 328 327 328 329 325 324 323 322 323 324 321 326 323 324 317 310 310 310
338 335 336 338 336 329 316 317 322 332 330 330 329 328 326 322 321 326 326 322 318 320 324 322 325 325 327 329 329 327 328 328 325 324 327 317 322 321 321 320 311 309 309
338 335 336 336 334 330 313 314 322 330 329 329 328 328 328 322 311 313 323 321 318 314 310 313 313 312 311 312 315 320 324 318 320 321 325 321 319 318 319 318 317 311 309
336 334 332 333 322 331 308 310 319 327 324 323 327 326 312 318 310 310 325 322 320 320 320 320 320 316 318 316 316 320 315 312 313 317 326 319 321 318 313 319 318 316 314

GFSMA_sfc_thetae_045.txt.gz
Theta_e
359 356 354 355 356 366 355 364 362 358 359 357 356 356 354 356 354 352 357 362 360 361 360 359 360 360 361 361 359 357 356 357 356 355 355 354 355 353 353 354 354 351 350
353 351 351 351 351 355 358 360 366 358 357 357 354 356 358 357 356 358 353 358 362 362 361 360 362 363 360 360 361 360 359 357 358 358 356 357 357 355 354 353 354 354 354
353 353 351 351 352 357 363 362 365 364 360 357 356 357 357 357 353 356 356 358 356 360 362 362 362 362 362 361 359 359 359 358 357 356 356 356 356 357 356 355 355 355 355
352 357 357 354 357 361 362 365 366 357 361 358 362 354 355 356 359 356 356 354 359 352 358 360 361 361 362 360 359 357 357 356 353 354 355 356 356 355 355 356 356 356 355
357 358 355 356 363 356 369 361 355 360 357 355 356 359 355 354 355 351 352 355 357 356 354 357 359 360 361 359 358 356 354 355 353 352 352 352 352 353 354 355 355 355 355
355 363 360 364 362 365 367 356 358 362 354 353 350 347 353 353 351 350 350 350 352 354 354 358 361 356 360 360 359 359 358 356 354 353 353 353 352 352 353 351 352 354 354
360 364 365 364 366 365 359 359 356 356 350 352 349 347 348 350 351 350 351 347 350 352 355 355 357 357 356 359 358 358 359 359 358 354 355 354 354 353 352 351 351 351 351
358 359 360 361 359 358 358 356 357 354 353 355 347 352 340 343 343 347 347 349 347 349 349 355 357 364 365 357 356 358 358 358 357 357 356 354 353 351 351 351 351 348 350
356 356 356 356 357 357 348 360 355 354 352 356 354 346 339 340 342 347 350 349 352 355 350 354 354 347 363 355 358 358 356 355 354 354 357 356 353 351 350 350 351 348 349
354 353 354 355 356 352 357 354 361 357 355 348 355 355 349 350 343 341 353 357 354 352 354 356 356 357 355 356 353 349 347 347 350 351 351 352 352 349 348 349 350 349 348
351 351 354 357 356 357 358 356 357 355 356 351 350 350 350 347 346 345 336 342 344 345 348 350 353 354 352 348 345 345 344 343 343 343 344 345 345 345 345 346 347 348 348
348 352 351 353 353 354 357 358 357 355 355 355 355 348 344 347 347 343 344 338 339 339 341 341 342 342 344 345 346 343 341 340 340 341 341 342 344 345 346 346 346 347 347
344 351 353 353 352 355 356 357 356 355 354 353 353 352 349 350 351 353 348 337 337 341 335 335 340 341 343 345 344 341 339 336 335 335 337 338 339 339 341 342 343 343 344
349 349 350 350 351 353 353 353 349 349 351 352 352 354 354 355 357 357 352 339 334 338 337 329 333 335 337 339 340 339 334 333 333 332 331 332 333 334 336 336 336 337 337
346 347 346 346 348 348 349 351 347 349 351 351 350 352 355 357 358 356 353 349 339 331 330 332 328 332 334 335 336 334 331 331 330 329 328 328 328 330 331 330 331 332 333
349 347 345 345 345 348 350 352 348 347 346 346 347 349 351 354 355 355 354 352 350 344 332 331 327 328 329 330 333 330 329 328 326 325 324 324 325 325 326 327 327 328 329
347 346 345 346 345 345 345 346 346 343 341 341 344 344 345 350 352 351 355 353 350 350 328 324 326 326 325 325 325 328 330 329 325 323 321 320 320 320 321 321 322 323 324
346 346 345 345 344 344 344 343 341 342 338 338 339 341 342 341 343 345 343 346 348 349 334 320 320 320 320 322 324 324 324 324 324 320 319 318 317 316 316 317 317 317 317
344 343 343 342 342 342 341 342 342 340 338 337 338 339 338 341 339 340 340 339 339 339 335 325 318 320 319 320 318 319 319 320 321 321 319 317 316 315 316 315 314 313 312
343 342 343 341 340 340 339 339 339 339 339 338 337 336 334 335 337 340 339 342 338 330 327 322 319 319 319 320 320 317 316 318 317 319 318 320 318 317 316 316 315 315 313
343 342 342 340 339 337 334 335 337 337 336 336 335 333 331 329 327 328 337 339 340 330 323 320 319 319 317 318 319 322 319 321 320 319 318 320 322 321 319 316 315 315 315
343 343 341 340 337 330 324 326 331 332 332 332 332 333 334 331 326 323 325 325 332 338 333 326 324 323 326 326 325 323 323 320 317 326 324 325 330 325 324 318 313 313 314
344 340 340 339 337 331 321 322 328 332 332 331 331 331 329 329 332 331 325 324 323 324 329 335 329 329 328 329 330 327 327 326 324 325 327 322 325 325 323 314 312 312 312
341 340 340 342 338 328 318 318 323 334 333 333 332 330 326 326 321 327 321 318 319 320 324 322 325 323 325 326 329 329 329 328 327 326 328 320 323 322 321 315 312 311 310
341 338 339 339 336 331 315 316 320 334 332 331 331 328 328 323 314 313 324 320 317 314 312 313 312 312 313 314 317 320 326 315 318 324 327 326 321 323 321 316 313 311 311
341 336 338 339 328 333 313 312 316 330 329 328 330 327 313 318 308 308 327 325 322 322 322 321 320 316 319 318 318 325 316 312 314 317 325 319 321 318 315 320 319 313 312

GFSMA_sfc_thetae_048.txt.gz
Theta_e
359 359 354 355 354 360 358 350 341 336 351 357 356 354 353 352 355 355 358 362 360 361 361 361 362 361 361 361 360 359 357 355 357 355 356 354 356 356 354 355 354 353 353
358 356 347 347 348 357 353 353 352 350 352 358 357 354 352 354 354 355 355 356 360 360 361 363 363 363 362 362 361 361 359 358 358 358 357 356 358 357 356 355 355 355 355
356 354 347 348 349 346 341 345 352 356 355 358 357 351 357 357 355 356 353 355 356 362 362 362 363 362 361 363 361 360 359 359 359 358 358 357 356 356 357 356 355 356 356
356 352 348 354 348 348 341 338 351 352 354 353 353 355 351 354 356 354 356 355 355 353 359 361 360 361 361 362 360 361 359 356 358 356 356 357 357 355 354 354 356 356 356
353 351 355 355 360 354 348 345 357 355 354 354 353 350 350 355 357 353 353 352 355 354 355 357 357 357 360 360 360 361 357 354 356 354 354 354 354 354 352 353 355 355 355
353 355 356 358 361 359 355 353 354 354 352 351 352 350 352 353 354 352 351 351 350 353 355 354 353 353 357 359 360 360 359 355 354 356 355 355 355 354 353 353 352 351 353
354 354 352 356 356 357 355 355 353 351 352 353 349 348 349 352 351 351 351 350 346 352 350 349 354 354 355 357 357 358 360 358 357 356 356 355 355 354 354 354 352 351 351
352 357 355 352 352 354 354 354 353 352 352 354 345 345 338 343 347 347 347 348 345 349 349 351 351 351 347 348 352 356 356 359 359 359 358 354 354 353 352 352 351 350 351
352 351 355 356 357 357 353 355 356 353 347 353 352 344 337 334 340 347 344 345 347 347 350 351 350 347 346 343 346 351 353 354 356 358 356 355 354 352 352 351 350 350 349
354 355 356 355 353 356 355 355 357 354 352 345 351 349 347 345 337 333 341 344 345 346 347 350 350 347 341 342 349 348 347 348 351 351 350 350 349 349 349 348 349 349 349
353 352 353 355 355 356 357 356 357 355 353 348 348 347 345 344 344 339 333 338 340 342 344 345 344 348 344 343 343 344 343 343 344 344 345 345 346 346 346 345 347 347 348
350 354 352 354 356 355 355 356 353 352 353 352 350 349 345 342 341 340 337 336 332 335 337 340 340 342 343 343 344 343 341 340 339 340 341 343 344 344 345 345 346 346 346
345 348 349 352 353 354 355 354 353 353 352 349 348 348 348 346 347 345 340 334 332 335 334 334 338 341 341 340 339 339 339 336 335 335 336 337 339 340 340 341 342 342 342
347 350 349 350 350 352 352 352 351 350 350 350 349 348 348 349 348 345 338 335 330 335 335 328 332 335 338 339 338 336 333 334 332 331 331 331 333 333 334 334 335 335 336
347 348 345 346 347 347 350 353 346 345 348 349 348 348 348 348 348 349 347 341 337 330 327 329 327 331 333 335 333 329 329 330 330 329 327 327 328 329 329 330 331 331 331
348 347 345 345 345 346 349 348 344 344 343 342 343 344 346 348 348 350 348 347 343 338 328 329 326 327 329 330 332 329 327 326 326 325 324 324 325 325 326 326 326 327 328
345 346 346 345 345 347 348 347 344 341 340 341 342 341 342 344 345 346 346 346 343 337 323 322 325 324 323 323 325 326 327 325 321 322 322 321 320 320 321 322 322 323 324
350 348 346 346 346 345 346 344 340 339 337 334 336 338 338 340 340 341 342 342 342 340 325 317 320 319 319 320 321 322 322 323 320 321 319 318 318 317 317 317 317 317 318
348 346 346 344 343 343 343 343 341 339 337 334 334 334 335 339 337 340 340 336 334 332 327 320 317 319 318 319 317 319 319 321 321 321 319 317 317 317 316 316 316 314 313
347 346 346 344 344 342 340 341 340 340 337 334 332 331 330 330 333 340 339 334 330 326 324 319 318 318 319 319 319 317 315 318 317 319 318 320 318 317 317 317 317 316 313
346 347 345 345 343 334 327 331 339 338 337 335 333 329 328 328 328 327 334 334 328 324 321 318 318 318 317 318 318 320 319 317 319 318 315 317 316 316 315 317 316 316 314
347 348 345 342 334 327 324 326 333 335 336 335 334 333 332 330 325 324 325 325 332 328 324 322 321 320 320 323 323 322 321 319 317 321 323 321 323 318 318 312 314 315 314
347 346 342 339 333 329 324 326 326 336 334 334 331 329 329 325 329 326 324 324 322 324 328 330 326 326 324 325 326 324 323 323 321 324 323 320 323 319 315 312 314 314 314
345 344 343 341 335 325 321 320 323 338 336 335 331 328 328 325 318 322 318 316 315 317 321 320 318 316 315 317 321 322 326 325 325 325 326 316 321 319 316 312 314 313 313
344 342 342 340 335 328 318 318 318 338 335 332 329 325 326 324 312 312 320 317 315 311 310 312 312 313 313 314 317 318 320 320 318 320 324 319 318 318 314 310 311 313 311
341 339 340 340 331 332 314 313 316 327 332 328 328 323 311 313 309 308 328 323 317 315 316 315 315 314 316 315 321 319 315 310 311 316 313 314 317 318 313 316 310 309 308

GFSMA_sfc_thetae_051.txt.gz
Theta_e
349 348 348 349 348 349 347 347 342 338 338 343 351 350 350 349 349 351 351 362 361 359 361 360 361 360 360 361 360 357 356 355 354 355 356 354 356 356 354 354 353 353 352
347 346 343 343 345 350 346 346 347 345 344 345 346 350 351 349 349 352 353 354 361 359 361 362 363 363 361 360 361 360 358 357 358 358 357 358 357 357 356 354 353 355 355
348 346 342 343 346 344 341 341 341 347 345 347 347 349 351 350 352 352 351 351 355 361 360 361 362 363 363 361 362 362 361 360 359 359 358 358 356 357 358 357 355 356 356
348 346 343 347 347 344 340 338 337 338 343 346 345 346 348 347 348 348 351 352 351 351 357 360 358 359 363 363 363 363 361 360 359 358 358 358 356 354 354 355 354 355 356
347 345 343 349 350 345 343 343 340 338 340 344 346 345 346 347 349 351 349 350 352 353 352 357 359 358 361 360 361 363 361 359 357 357 357 355 354 354 353 352 352 354 355
348 345 348 349 349 347 345 344 341 342 344 344 347 346 344 345 347 347 346 349 349 352 352 352 352 353 357 358 358 361 361 357 356 356 355 354 354 354 354 353 352 352 352
348 347 347 348 348 345 347 346 344 341 341 344 339 338 341 344 345 345 345 346 345 346 349 350 347 349 349 354 353 354 357 358 356 355 354 354 354 354 353 352 353 352 350
348 348 346 348 347 345 344 344 343 341 342 343 336 334 328 333 339 344 344 346 344 346 346 349 346 347 344 343 347 350 352 355 356 356 354 353 354 354 354 354 351 351 350
350 347 347 347 346 345 343 343 343 342 338 340 341 334 327 325 330 337 338 340 343 343 346 347 347 344 344 341 346 348 348 349 350 352 354 353 350 351 353 353 352 349 350
348 347 347 347 346 346 344 345 347 342 341 336 339 342 339 335 327 324 335 340 341 341 344 346 344 342 338 338 345 347 348 347 348 349 348 348 348 348 348 348 348 349 349
345 347 345 344 344 345 345 344 343 341 342 340 338 337 335 335 335 329 323 333 337 339 341 341 343 342 343 343 343 345 345 344 344 345 345 346 347 348 348 348 347 347 347
342 345 346 343 343 343 343 344 344 343 342 342 340 339 336 332 331 331 327 330 330 333 335 339 341 341 342 342 344 344 342 340 340 340 341 343 344 345 345 345 344 344 344
339 341 343 342 342 342 344 344 342 342 341 339 338 337 338 338 337 335 333 331 330 333 332 333 335 338 338 337 338 340 339 337 336 335 336 337 338 339 339 339 340 339 339
338 340 340 341 341 342 343 342 340 340 340 340 339 340 338 339 340 338 335 332 328 330 330 327 331 334 336 335 336 336 333 334 332 331 331 332 332 332 333 333 333 334 335
341 338 342 341 341 342 341 338 336 337 337 337 338 338 338 339 340 340 338 335 329 325 324 327 326 330 332 330 330 328 328 331 330 329 328 328 329 329 329 329 329 329 330
337 337 337 338 337 338 339 336 334 337 335 334 336 336 337 339 340 340 338 337 335 331 323 326 325 327 329 329 330 325 325 326 327 326 325 325 325 325 325 325 326 327 329
337 339 339 338 336 335 337 335 333 333 331 333 334 332 332 335 335 339 338 336 332 326 320 321 323 323 322 323 324 324 322 319 321 323 322 321 321 321 321 322 322 324 326
337 338 337 335 334 334 335 332 330 332 332 331 332 332 334 336 333 335 335 330 329 325 323 317 319 318 318 320 321 319 319 319 316 321 320 319 319 318 318 318 318 318 319
335 335 334 332 332 332 332 333 332 330 327 325 324 324 325 328 332 331 328 326 324 323 323 319 316 318 318 319 317 318 316 317 318 321 319 318 317 317 317 317 316 314 313
335 333 333 333 332 328 328 331 332 328 325 323 323 322 322 323 325 330 326 322 323 320 320 318 317 317 318 318 317 315 312 316 314 318 319 316 317 318 318 318 318 316 313
335 334 332 330 324 322 324 327 329 328 325 323 322 321 322 327 328 329 326 320 319 318 318 316 315 316 316 316 313 314 311 311 312 312 310 310 310 310 312 316 317 317 314
335 334 332 324 320 322 322 325 327 326 326 325 322 322 323 324 324 324 324 328 322 318 315 314 312 313 312 314 316 314 314 311 309 315 313 312 314 312 311 307 316 315 313
334 331 328 323 319 317 321 320 328 324 324 320 319 322 319 320 316 314 317 319 321 324 324 321 316 316 319 318 318 314 318 317 314 314 315 312 316 313 311 310 316 315 313
333 331 330 324 319 317 319 320 321 325 324 322 319 319 315 311 312 310 306 304 304 309 312 313 310 308 307 308 312 312 317 317 316 317 318 310 314 312 308 307 315 314 313
334 332 332 325 319 314 316 315 320 325 323 319 317 318 316 309 312 314 307 303 300 300 309 312 310 311 312 313 313 309 307 307 309 315 310 312 311 310 308 305 310 314 312
333 333 332 329 322 318 312 312 314 318 320 319 314 309 312 307 308 311 310 305 302 303 304 305 306 308 310 310 315 307 306 302 305 307 307 309 311 310 306 308 306 308 305

GFSMA_sfc_thetae_054.txt.gz
Theta_e
341 340 342 347 345 347 345 342 340 337 337 338 347 348 349 350 347 348 347 357 358 358 360 361 360 359 359 359 357 355 355 354 353 353 354 353 353 355 354 354 353 352 351
345 343 342 341 342 345 343 343 343 342 341 342 345 345 346 349 347 348 349 350 360 360 360 361 361 361 360 360 359 359 356 355 356 356 357 357 356 356 356 354 353 353 353
345 342 339 338 340 344 341 338 337 341 343 344 345 346 348 350 349 349 350 350 354 361 360 359 359 359 361 360 360 359 358 358 358 358 358 357 356 356 356 356 355 355 354
346 342 340 341 344 341 339 335 334 335 338 342 343 343 346 347 347 346 349 350 351 353 358 359 358 359 361 362 361 362 360 358 357 357 357 357 355 355 353 355 354 354 355
348 343 341 340 346 344 340 338 340 337 335 339 342 343 344 344 346 348 348 348 349 350 350 356 358 358 358 359 362 363 362 360 356 355 354 354 354 352 351 353 352 351 352
345 343 342 343 346 345 343 341 340 339 340 341 346 347 343 344 344 343 345 348 345 350 349 351 351 353 357 357 357 359 359 359 356 354 353 353 353 352 351 351 351 352 352
345 342 342 344 344 343 344 345 342 340 339 341 338 336 338 341 342 343 345 344 344 347 346 346 346 348 347 352 354 355 354 356 358 356 353 351 351 352 352 350 351 351 350
346 346 343 344 345 344 343 343 342 339 340 340 334 331 327 330 335 340 341 343 341 345 346 346 346 346 342 345 347 352 349 350 352 352 351 352 352 350 351 350 350 351 350
346 345 344 343 344 343 342 341 341 339 335 337 339 332 325 323 327 334 338 339 341 342 344 346 344 343 341 344 348 349 348 348 348 348 352 350 349 350 350 350 350 346 348
345 345 345 344 343 343 343 342 344 339 338 335 337 340 336 333 325 322 335 337 340 339 339 338 342 340 339 338 343 346 346 348 349 350 348 347 347 348 349 349 349 349 348
345 345 343 344 343 343 342 342 341 339 340 337 336 335 334 333 332 327 323 331 335 338 340 343 342 341 342 343 343 346 346 345 346 347 347 348 348 347 347 347 347 345 345
340 342 343 341 340 341 341 341 340 340 339 338 337 337 334 330 328 328 327 329 329 332 334 337 340 339 340 342 344 344 343 341 341 342 343 344 344 344 344 344 343 342 343
336 337 339 340 340 341 341 340 339 338 337 335 335 335 337 335 335 332 331 331 329 332 331 332 335 336 335 337 339 340 340 338 336 336 337 337 338 338 337 337 338 338 339
335 336 339 339 340 341 339 338 336 337 336 336 335 335 335 336 337 336 331 329 328 329 328 327 331 334 334 335 337 337 334 334 332 331 332 332 332 332 332 332 332 333 334
337 337 338 337 340 338 337 335 334 333 333 333 334 335 335 336 337 337 335 334 330 324 323 326 326 330 329 329 331 328 330 332 331 329 328 328 328 328 328 328 329 329 333
335 335 335 334 336 336 333 331 331 332 332 332 332 332 334 334 335 336 335 333 334 329 322 326 325 326 328 328 329 324 325 327 327 326 325 325 325 325 325 326 326 328 331
334 334 336 334 333 333 332 329 328 329 329 329 329 330 330 332 333 334 334 332 331 325 321 320 322 323 323 323 323 321 318 316 319 323 322 322 321 321 322 323 323 325 327
333 333 333 331 333 332 329 328 328 328 325 325 325 326 327 334 330 330 328 325 323 322 323 318 319 319 319 320 320 319 317 317 315 321 320 319 319 319 319 320 319 319 319
332 332 331 330 330 331 329 328 326 324 322 322 322 322 324 328 325 324 324 321 323 324 323 319 316 318 318 318 317 316 315 316 317 320 319 318 318 318 319 318 317 314 313
331 330 329 329 327 328 330 328 323 321 320 320 321 321 322 325 324 321 320 319 320 321 320 318 317 317 317 318 317 315 313 312 311 318 316 316 317 318 318 318 317 316 312
331 330 329 323 321 323 328 327 323 320 319 318 319 321 322 328 330 326 320 316 316 318 318 317 316 316 315 314 315 315 310 308 310 309 307 308 309 309 311 316 317 316 314
331 329 324 320 318 323 321 325 326 323 321 318 318 318 319 320 323 326 325 323 319 316 313 314 310 310 310 311 313 312 309 308 308 311 309 308 310 308 308 307 315 315 313
331 328 320 318 317 319 319 322 325 322 320 320 319 315 315 316 315 315 320 322 323 323 321 315 312 312 312 315 314 311 312 315 311 311 312 309 310 310 310 308 317 315 312
330 325 321 318 316 317 317 318 323 320 317 317 316 313 309 309 309 308 305 306 308 312 316 320 317 314 311 311 317 316 315 313 313 313 313 309 311 310 307 306 316 315 313
333 330 324 319 316 314 313 316 321 320 317 315 315 313 310 308 312 309 301 298 297 299 310 311 309 310 311 312 311 307 304 309 307 315 311 311 309 309 306 304 307 315 312
332 333 330 323 316 314 311 311 318 321 315 313 310 310 313 308 310 308 301 301 301 300 302 303 304 306 309 310 312 305 304 305 304 304 307 309 310 307 304 309 304 306 306

GFSMA_sfc_thetae_057.txt.gz
Theta_e
336 335 333 343 344 345 345 342 339 336 333 336 341 347 348 348 348 347 348 358 359 359 360 361 358 358 359 358 357 356 358 356 353 353 355 355 353 354 353 353 354 352 350
340 339 338 343 343 343 343 342 340 340 340 340 340 344 344 346 348 348 347 347 357 358 358 358 361 360 359 359 358 357 355 355 355 355 355 356 356 355 354 355 354 353 354
342 341 340 339 340 343 340 338 337 338 340 342 342 344 345 346 348 347 346 347 349 359 358 360 360 360 361 361 360 360 359 358 357 357 356 357 356 356 356 356 355 355 355
345 340 338 337 339 340 338 335 334 332 333 336 338 342 343 345 346 346 347 349 348 350 357 360 358 358 359 361 361 362 360 359 357 356 356 356 355 354 354 354 354 354 352
347 344 340 339 341 340 338 336 334 335 334 334 338 340 342 342 344 347 345 347 348 350 350 355 357 357 357 358 357 359 361 359 357 354 354 354 352 353 351 352 352 353 351
345 343 340 339 339 343 342 339 338 338 337 336 343 345 342 343 343 342 343 348 347 348 348 347 347 350 356 356 357 356 358 360 358 355 354 352 352 351 351 351 352 352 352
343 340 339 339 341 341 341 343 341 339 337 339 336 336 336 339 340 340 342 342 344 345 346 346 346 347 347 355 355 354 355 354 356 353 351 352 352 352 351 350 350 350 350
342 342 340 340 341 341 341 342 342 337 338 339 333 330 325 328 334 338 338 341 340 343 345 345 345 344 344 344 346 352 351 350 351 351 349 350 349 349 349 350 350 350 348
344 343 344 341 342 341 340 341 340 339 335 336 337 331 324 322 325 337 338 339 340 340 342 342 342 341 341 342 346 349 349 348 348 349 348 348 348 349 349 348 348 347 347
345 345 343 343 342 344 342 341 342 339 336 333 335 338 333 330 323 321 335 336 339 338 335 341 338 339 338 337 345 348 347 348 349 348 348 348 348 348 349 349 348 348 347
343 344 342 341 340 340 340 340 340 339 338 336 334 333 332 332 330 327 326 330 335 336 339 341 341 340 341 339 341 346 346 347 347 348 349 348 348 348 347 346 346 346 345
338 340 343 339 340 338 339 339 339 339 339 337 336 335 332 329 327 326 328 329 328 331 333 337 337 337 339 342 345 345 344 342 342 342 343 344 344 344 343 343 342 342 342
334 336 338 338 339 339 339 338 336 336 336 334 333 334 336 333 332 329 328 329 328 331 330 332 333 334 335 337 339 341 341 338 336 336 336 337 337 337 337 337 337 338 338
333 334 336 337 339 339 337 337 336 336 334 334 333 333 334 335 335 332 330 330 327 328 327 327 331 332 333 335 337 337 334 334 333 331 331 332 332 332 332 332 332 335 337
335 334 335 336 337 336 335 334 332 331 332 332 332 333 333 334 336 335 332 333 328 323 322 326 326 328 328 330 331 329 330 332 331 330 329 328 328 327 327 328 329 333 334
333 333 333 334 334 332 331 331 330 331 330 329 330 331 332 332 334 334 333 331 333 328 322 325 324 327 327 327 329 325 326 328 328 327 325 325 325 325 325 326 328 331 331
331 332 332 332 331 330 329 327 326 327 327 327 327 328 329 331 331 332 332 335 331 328 321 320 323 323 323 323 319 319 318 316 319 324 323 323 323 323 323 324 325 327 328
331 332 331 331 331 329 327 326 326 325 324 323 323 326 328 331 326 326 327 327 326 325 324 319 319 319 319 320 319 317 317 316 315 321 321 320 320 321 321 321 320 320 320
331 331 330 330 328 327 326 324 323 321 321 321 321 324 325 325 322 321 320 322 323 325 324 320 316 318 318 318 317 317 316 316 316 320 319 319 319 319 319 318 316 314 313
330 328 328 328 328 328 326 322 320 319 319 319 320 322 323 322 321 319 319 323 323 322 321 319 317 316 317 318 318 315 313 314 312 315 316 316 317 319 318 318 317 315 312
330 328 327 323 325 327 326 320 318 317 317 317 318 321 323 327 326 323 319 317 321 320 319 318 316 316 315 315 315 315 312 311 308 308 307 308 308 307 309 316 316 316 313
329 328 323 320 320 326 323 323 321 318 317 316 315 316 317 324 325 324 323 322 318 317 318 318 315 315 315 317 315 310 307 307 306 308 306 306 308 306 307 306 315 314 312
331 326 321 318 318 320 320 321 325 320 318 316 314 312 314 317 320 319 322 322 322 322 319 315 312 311 310 312 312 309 309 309 310 309 309 308 307 307 309 309 315 314 312
332 328 323 318 317 318 317 317 321 319 317 318 314 310 310 310 311 313 312 311 311 312 316 317 315 315 315 315 314 314 313 311 310 309 310 308 309 309 306 305 316 315 312
332 329 326 321 317 316 313 315 318 316 315 315 313 309 308 307 310 309 305 301 299 300 310 311 311 310 311 312 313 309 309 310 306 309 311 310 308 312 305 304 305 315 312
330 332 328 325 319 318 310 312 317 316 312 312 310 310 313 307 309 305 298 297 297 298 301 302 304 306 307 308 312 303 303 302 303 301 302 308 311 307 304 304 302 305 307

GFSMA_sfc_thetae_060.txt.gz
Theta_e
342 340 339 345 348 350 350 349 346 344 342 341 344 346 350 351 352 351 354 357 359 359 359 360 359 358 358 358 357 356 355 357 354 354 356 354 353 352 352 354 353 352 350
340 338 337 340 347 347 349 347 345 343 343 345 343 344 347 350 353 352 351 354 359 359 359 359 359 358 358 360 359 357 356 357 357 355 354 355 356 355 355 353 353 353 354
341 342 340 342 346 348 347 345 344 344 344 345 345 345 348 348 349 352 351 352 351 357 359 360 359 360 359 359 360 361 360 358 357 357 355 355 356 355 355 355 354 354 354
344 343 342 343 344 345 345 342 340 339 338 339 342 345 348 349 350 352 352 352 352 351 354 360 358 358 358 359 358 360 360 359 355 356 356 356 355 354 354 354 354 354 352
347 344 343 342 343 343 342 341 339 338 339 339 339 342 344 346 348 349 350 351 353 353 354 357 358 358 359 358 357 359 359 358 357 356 355 354 354 352 351 352 352 352 352
347 345 344 340 342 344 343 342 340 341 341 341 340 345 348 347 348 348 348 350 352 352 355 354 354 356 358 358 357 357 357 357 355 356 355 354 353 352 351 351 352 352 351
345 343 343 343 343 342 343 344 344 340 341 340 341 342 341 341 342 343 345 347 349 350 352 353 353 354 354 355 355 355 355 354 355 355 354 351 351 350 350 351 351 350 350
344 344 343 341 342 342 343 344 345 338 339 342 340 337 333 334 338 342 343 345 345 348 349 349 351 350 350 350 350 353 353 353 352 352 351 349 348 348 348 348 349 349 349
345 345 345 344 344 344 343 344 344 343 339 342 342 337 329 326 332 339 339 341 342 342 344 345 346 346 347 349 350 353 350 348 349 350 349 348 347 346 348 348 348 349 348
346 346 345 345 345 343 342 342 343 343 341 338 339 341 338 335 329 328 337 338 339 340 342 342 343 343 342 343 350 349 348 348 349 349 348 347 346 347 349 349 348 347 347
344 345 344 345 344 343 344 343 345 343 342 340 340 338 339 337 336 332 328 332 336 335 340 342 342 343 344 345 346 348 347 347 348 349 348 348 348 348 347 346 346 345 345
341 343 343 343 343 343 343 344 344 344 343 343 341 339 337 336 334 333 331 331 330 331 333 336 337 338 341 345 346 346 345 344 343 343 344 344 344 343 343 343 342 341 341
338 340 342 341 342 343 344 343 343 342 341 340 339 339 341 339 337 335 334 331 330 331 330 332 333 335 336 339 341 342 342 339 337 336 337 338 338 337 337 337 338 341 343
338 339 340 341 343 342 341 341 340 340 340 339 339 339 340 341 340 338 336 333 327 328 328 328 330 330 333 336 338 337 335 335 333 332 332 332 332 332 332 332 335 337 337
338 339 339 340 340 339 338 338 337 337 338 337 338 339 340 340 341 340 339 337 334 323 324 327 325 329 331 332 333 332 333 332 331 330 329 329 329 329 329 331 334 334 334
337 337 337 338 337 336 336 336 335 334 333 334 335 337 338 339 341 340 340 338 337 331 324 326 327 327 327 328 330 328 330 328 328 327 326 326 326 326 327 328 331 332 331
335 336 336 337 334 334 333 332 332 332 332 332 333 334 335 337 339 339 338 338 336 330 322 322 323 325 324 320 319 321 323 325 326 325 324 324 324 323 324 326 327 328 328
335 336 336 335 334 332 331 331 330 329 329 329 330 333 333 334 333 336 336 333 330 329 325 319 321 320 320 320 319 318 319 321 322 322 322 322 322 322 321 321 320 320 319
334 335 334 334 332 331 330 328 327 327 327 326 328 330 330 330 329 329 329 328 328 328 326 322 317 319 319 320 318 318 317 319 321 321 320 321 320 320 319 318 316 314 312
334 333 333 334 332 331 329 325 325 325 325 325 327 328 328 328 328 326 327 328 327 325 324 321 318 318 318 319 319 317 314 316 315 317 319 319 319 319 319 318 316 314 311
333 332 331 330 332 331 325 323 324 323 324 323 325 329 330 329 326 325 326 326 325 323 322 320 318 317 316 316 316 316 315 315 314 316 316 317 317 317 318 318 318 316 313
331 331 329 328 328 331 322 321 322 322 322 322 322 323 325 326 326 324 323 324 326 323 321 320 318 318 317 318 317 316 314 314 313 317 316 315 317 316 316 316 316 314 313
331 330 327 325 325 327 320 320 322 322 322 321 320 321 323 323 324 324 323 323 323 322 324 325 321 320 319 320 318 315 317 318 319 317 318 317 316 317 318 316 316 314 312
333 330 326 323 323 324 318 317 322 324 323 323 320 318 321 321 322 322 322 321 320 322 324 323 324 323 324 323 323 322 321 321 320 317 320 318 318 318 318 318 316 315 312
334 329 328 324 321 321 314 314 320 323 322 323 318 315 318 318 312 313 319 314 313 313 313 314 315 314 315 316 320 322 319 320 318 319 318 321 318 318 316 316 316 316 312
331 332 326 324 321 322 312 310 317 321 320 318 317 315 313 314 308 307 313 310 310 309 310 312 312 311 313 314 314 319 320 319 316 314 318 319 317 316 316 316 315 315 316

GFSMA_sfc_thetae_063.txt.gz
Theta_e
360 358 356 357 357 359 358 358 357 356 356 355 356 355 354 353 353 352 352 356 358 359 359 358 358 359 357 359 358 358 357 357 355 353 355 354 354 352 352 354 353 352 351
358 356 356 354 356 357 357 356 357 355 353 351 351 353 354 355 357 357 354 354 358 359 359 360 360 359 358 358 359 358 357 356 358 357 356 356 356 355 353 353 354 353 353
345 346 351 350 356 357 358 359 356 354 352 352 352 352 350 353 353 358 359 357 356 357 360 360 360 359 360 360 360 359 359 358 358 357 357 355 355 356 355 353 354 354 355
347 344 346 349 351 354 355 354 352 349 348 348 349 349 350 352 355 357 357 358 357 357 358 359 359 359 360 360 360 360 359 358 358 357 356 357 356 355 354 353 353 354 353
352 351 344 347 354 353 353 352 351 349 347 348 347 347 349 349 353 352 356 358 359 358 357 359 358 358 360 359 360 359 359 358 356 356 356 356 355 353 352 352 352 351 351
347 353 349 347 349 347 346 349 350 350 348 348 347 346 350 351 354 353 354 355 357 358 358 360 366 357 359 359 359 359 357 357 357 356 356 355 355 353 352 351 351 352 352
350 348 345 348 349 347 349 351 350 349 348 350 341 348 349 351 352 352 348 350 355 356 358 359 360 359 357 356 355 357 357 357 357 355 354 354 354 351 349 349 350 349 350
348 347 345 345 353 349 350 350 350 347 349 341 338 340 338 340 347 347 349 349 352 355 355 357 358 359 359 358 357 352 356 356 355 354 353 352 351 348 348 348 349 349 349
344 348 351 351 351 350 345 349 350 349 344 342 344 346 340 333 338 345 344 345 346 347 347 351 353 354 356 357 356 354 351 350 350 351 351 350 349 348 347 347 347 349 349
347 350 352 351 354 352 351 350 355 353 352 340 346 349 348 345 337 333 342 341 343 343 347 345 346 349 352 355 352 350 348 349 350 351 349 348 347 346 347 347 348 347 347
348 347 345 347 349 347 346 344 347 344 347 352 347 345 345 342 342 339 331 335 338 338 343 345 346 348 350 352 354 349 348 349 349 348 348 348 347 347 347 347 347 346 345
350 350 346 346 348 346 348 348 348 353 352 350 349 347 344 341 339 341 338 336 333 332 334 337 340 345 348 349 350 346 346 344 344 344 345 346 345 345 344 343 342 342 344
348 350 353 346 346 348 347 348 351 352 351 350 350 348 347 345 349 349 346 334 332 332 331 332 333 336 340 343 343 344 342 339 338 337 338 339 339 339 339 340 342 344 344
348 350 351 351 350 348 352 352 351 351 352 350 348 348 346 346 348 346 344 337 330 328 329 328 330 332 337 338 339 339 336 335 334 333 332 333 334 333 335 337 338 338 339
346 348 348 350 350 349 346 349 347 344 346 349 348 348 346 348 351 349 347 343 335 326 324 328 326 331 334 335 335 335 336 333 332 330 329 330 330 331 333 335 334 334 334
347 346 347 348 346 345 346 346 345 344 342 346 346 347 347 346 349 349 346 345 342 334 325 328 327 328 331 331 333 332 331 330 329 328 327 327 328 329 330 332 332 331 331
346 345 345 346 344 343 343 344 344 342 341 342 343 342 343 345 345 347 347 349 339 334 325 324 326 326 324 326 326 327 332 333 329 326 326 325 325 326 327 328 328 328 328
345 345 345 345 343 342 341 340 339 340 340 339 340 342 342 344 340 345 343 342 338 332 326 320 322 322 321 326 325 323 324 329 328 324 324 323 323 322 321 322 321 321 320
344 344 344 344 342 340 339 339 339 338 338 338 340 341 341 343 338 340 343 338 332 330 328 322 320 321 320 321 321 321 322 323 323 323 323 322 321 320 319 318 316 314 313
343 344 344 344 342 339 338 334 334 337 338 339 340 339 339 341 340 337 339 337 335 330 327 323 319 319 319 320 321 318 317 320 317 320 322 322 322 320 319 317 316 314 311
343 342 340 343 341 340 335 332 335 335 337 338 338 338 338 334 328 335 336 336 335 329 325 321 318 318 318 316 318 321 318 315 318 322 320 321 319 319 320 319 318 315 312
341 339 334 337 340 337 320 322 331 334 334 336 336 335 335 331 328 325 327 328 332 330 326 323 321 319 318 320 320 317 316 315 317 324 323 320 321 318 319 320 317 314 312
341 338 336 331 333 338 319 319 323 331 331 332 335 336 332 330 332 333 325 324 324 324 328 332 328 327 324 325 324 318 320 322 324 324 325 321 323 320 321 318 316 315 313
342 342 331 329 327 330 318 316 321 332 332 331 330 331 335 332 331 332 333 332 331 331 330 329 332 330 330 330 327 327 324 326 329 325 328 320 324 322 325 324 317 315 313
340 338 335 327 323 325 315 314 322 333 331 332 330 326 330 332 317 318 331 330 330 329 315 315 317 317 319 321 327 329 326 324 323 324 325 325 325 324 325 325 323 316 312
339 335 332 336 323 324 313 310 318 333 331 330 331 327 314 324 310 311 331 330 329 328 327 326 324 319 323 322 318 331 328 323 323 323 327 323 324 324 319 324 325 322 318

GFSMA_sfc_thetae_066.txt.gz
Theta_e
363 359 356 355 356 358 359 358 359 361 357 357 357 356 353 352 353 353 353 360 359 359 359 359 359 359 358 359 360 359 359 358 356 355 354 355 355 355 353 353 354 353 352
359 356 356 355 360 359 357 356 357 358 357 355 355 356 356 353 353 353 351 354 361 359 361 360 359 360 358 359 360 360 359 357 359 359 357 357 357 356 354 352 352 354 353
360 359 354 354 355 361 361 358 360 361 357 353 355 355 355 356 354 356 356 355 356 359 360 361 360 360 361 361 360 359 360 359 358 357 357 357 356 357 356 355 353 353 353
354 355 349 351 355 358 359 361 363 353 352 351 352 351 352 354 355 358 358 359 356 353 359 360 360 359 361 361 362 362 360 358 358 357 356 355 355 355 355 351 348 348 348
350 348 349 349 358 359 354 357 357 356 351 350 350 351 352 352 352 353 356 358 361 358 356 361 360 360 359 361 362 362 360 359 357 356 358 357 355 354 352 352 344 348 350
351 352 352 347 348 355 354 361 357 352 350 348 347 348 351 352 352 352 354 359 361 357 359 360 369 357 359 359 360 359 358 359 358 357 357 356 356 355 353 351 350 350 351
355 348 352 349 347 347 348 346 350 352 347 350 351 346 349 355 355 360 361 357 351 355 357 359 371 361 356 359 358 358 358 358 357 358 356 354 355 355 353 351 349 349 349
354 350 349 348 349 350 353 354 353 347 347 357 345 340 336 346 349 354 353 352 354 359 358 359 361 362 361 361 361 353 355 357 358 356 355 353 353 352 350 349 348 348 349
350 354 349 346 348 346 354 356 356 352 347 353 345 340 333 334 344 347 348 350 350 351 353 356 357 358 360 362 359 356 351 353 353 354 353 352 351 349 348 346 346 347 348
351 346 348 353 358 363 357 354 358 357 359 351 347 348 346 347 341 337 344 347 347 347 353 352 352 355 356 358 354 350 347 349 350 352 351 350 348 346 346 346 346 347 346
349 346 348 351 353 358 357 357 354 351 349 343 342 350 350 350 347 342 338 338 340 342 346 347 353 351 355 358 356 350 350 350 350 350 350 348 348 347 347 346 346 347 347
353 353 349 349 347 350 352 352 348 348 348 347 351 351 347 343 342 342 342 340 340 333 335 339 344 350 353 355 351 347 347 346 345 346 348 348 347 346 346 345 344 345 346
350 353 354 354 348 348 354 355 355 355 354 352 354 350 352 354 354 350 347 340 338 334 332 332 334 339 342 348 348 344 343 340 338 338 339 340 341 342 342 344 345 345 345
353 354 353 353 355 349 349 355 351 352 353 354 352 354 354 358 357 353 350 346 335 333 329 328 333 335 338 340 341 339 337 336 334 333 333 334 335 337 339 339 340 341 342
349 351 350 351 353 352 353 352 351 351 352 353 352 352 349 348 352 353 351 354 341 328 324 328 327 333 336 336 338 339 338 333 332 331 331 331 331 334 335 335 335 335 335
351 349 348 350 351 352 353 352 349 346 349 348 349 350 350 350 352 355 356 356 350 339 327 330 328 329 334 334 335 336 336 332 330 329 329 329 330 332 333 332 332 332 331
348 349 349 349 348 348 350 349 347 346 346 346 347 346 348 351 348 352 355 354 349 342 326 325 327 328 328 330 333 334 334 336 331 327 326 327 327 328 329 329 329 329 329
349 348 347 347 347 346 347 344 343 344 341 341 342 346 346 346 349 351 352 350 351 344 329 324 324 324 324 328 330 331 333 333 332 326 325 325 324 323 324 323 323 322 321
347 347 347 346 346 344 344 343 343 343 342 343 342 342 342 344 345 347 349 346 344 340 331 323 322 322 321 327 327 328 328 330 327 326 324 323 322 321 320 318 316 315 314
348 347 347 346 346 344 343 342 338 340 343 343 343 342 342 341 342 341 346 342 342 330 329 324 322 321 320 322 325 323 324 325 320 325 325 325 323 321 319 317 316 314 312
348 349 347 346 345 343 341 340 339 340 340 341 342 342 342 336 330 336 340 342 339 334 329 326 322 320 319 318 319 323 321 323 324 322 324 322 321 321 320 318 318 314 312
348 348 346 344 341 339 322 326 333 338 340 339 340 341 341 333 330 326 329 329 337 337 332 325 322 319 320 320 324 324 325 319 313 323 326 323 323 321 320 320 319 314 312
350 348 346 344 339 338 320 321 325 337 336 338 340 340 336 333 335 338 326 326 326 326 330 331 326 325 322 325 322 321 320 317 321 326 328 321 324 321 323 320 317 315 313
348 347 346 344 332 333 318 317 321 337 336 336 337 338 340 337 336 337 337 335 334 334 334 334 337 335 335 330 327 328 328 323 330 330 333 321 324 323 324 322 317 315 313
347 347 347 343 331 328 315 314 319 336 335 336 335 334 335 336 321 321 335 335 335 335 319 318 320 322 323 324 329 328 326 324 324 325 330 326 325 323 323 324 319 315 313
344 342 342 342 331 329 311 311 317 334 335 333 337 334 317 325 314 314 334 333 332 333 332 332 331 325 326 328 323 335 332 327 326 325 329 325 325 324 321 326 324 319 316

GFSMA_sfc_thetae_069.txt.gz
Theta_e
359 357 360 358 357 363 358 357 361 358 361 358 356 358 352 351 351 353 356 364 362 362 360 360 360 360 360 361 359 358 358 358 356 355 354 356 356 355 353 352 354 354 353
360 356 356 352 356 358 358 356 358 363 356 357 355 358 357 355 352 352 351 359 362 360 362 362 363 361 360 359 360 360 359 358 359 359 358 357 357 357 354 354 352 352 355
365 364 354 353 356 360 361 360 363 359 356 357 355 357 354 355 354 356 353 354 357 361 361 362 362 362 363 361 361 360 360 360 360 359 358 357 356 357 356 354 354 353 350
361 361 354 352 355 358 356 355 357 362 355 353 354 353 354 358 356 356 357 359 358 354 358 362 362 361 362 363 363 363 362 360 359 359 358 358 355 355 355 356 353 347 344
356 358 352 351 356 355 355 357 356 357 354 352 353 353 354 352 355 351 354 357 361 358 358 359 360 359 361 361 363 363 363 361 359 359 358 358 357 354 353 350 351 345 343
355 351 351 352 352 350 351 357 356 355 351 350 347 347 356 353 352 352 353 353 358 359 353 353 357 358 360 361 361 360 361 362 359 357 357 357 357 355 353 348 348 349 346
354 353 353 360 355 351 355 357 358 355 348 351 352 345 347 350 349 351 355 356 358 358 358 357 371 357 359 360 358 357 358 359 359 358 357 355 353 354 353 352 351 350 349
357 357 354 350 353 351 353 351 349 348 348 353 348 351 336 342 347 352 361 356 356 360 355 358 361 361 362 367 360 356 358 358 358 358 356 354 353 352 352 351 350 349 348
356 356 351 350 351 349 345 349 353 354 352 359 356 347 336 335 337 354 353 351 351 351 356 356 356 359 361 362 361 359 352 352 356 357 355 353 351 350 351 347 345 345 347
352 354 355 353 348 348 351 346 356 358 357 351 354 350 348 345 333 331 346 349 351 350 354 354 352 355 358 362 354 350 347 349 353 354 352 351 350 349 347 346 346 346 347
352 349 346 350 348 353 358 357 357 357 358 354 353 345 345 342 341 338 333 343 344 343 344 347 354 356 356 358 357 350 350 351 352 353 351 350 348 348 347 347 347 347 346
353 351 346 348 348 349 353 351 355 354 354 353 348 343 342 347 345 343 342 343 339 334 336 340 344 352 354 355 350 348 348 347 347 348 348 349 348 348 347 347 347 347 347
350 352 353 352 349 351 348 349 353 352 351 352 352 350 349 349 353 351 349 345 337 334 333 333 336 345 347 350 347 346 344 341 339 339 340 341 343 344 345 345 344 347 347
348 355 354 354 354 353 350 349 354 354 355 355 353 354 354 358 358 356 351 346 332 331 331 329 334 337 339 341 341 341 339 337 336 335 335 336 339 340 341 342 343 344 344
349 350 351 351 353 354 353 352 348 345 347 349 348 350 349 352 350 359 352 349 342 328 326 328 329 336 336 338 340 340 337 334 333 332 332 332 335 335 336 336 336 336 336
351 349 348 348 351 351 352 353 355 350 349 349 349 351 351 350 354 359 356 352 347 344 329 331 330 333 335 335 339 339 334 333 331 331 331 331 333 333 333 333 332 332 332
350 349 348 352 351 349 350 349 349 348 346 347 349 348 349 351 350 355 357 347 350 350 336 328 330 332 332 333 336 338 335 335 331 328 329 330 330 330 330 330 330 330 330
350 349 348 346 349 348 346 346 344 343 343 342 343 345 346 347 349 353 354 349 350 352 336 326 326 325 327 333 335 335 335 334 332 327 326 327 327 326 326 325 325 324 324
349 348 347 347 349 349 343 344 344 343 343 343 343 344 344 345 346 349 350 350 349 348 337 328 323 324 323 329 330 334 335 335 331 326 324 324 323 323 322 320 319 317 317
349 349 348 348 346 345 344 343 340 340 343 343 343 343 343 343 345 346 347 348 347 340 337 326 322 321 321 324 327 326 326 328 324 325 326 326 324 322 320 318 317 316 314
349 350 348 348 347 344 340 343 340 340 342 342 342 343 344 336 333 336 342 346 342 337 331 328 322 321 319 319 321 328 327 327 328 328 325 322 323 323 322 319 318 316 314
351 351 346 346 345 345 324 329 331 340 340 341 341 341 342 334 331 329 332 330 340 338 332 328 325 321 322 322 327 324 325 323 319 328 326 322 324 320 319 320 320 315 313
353 352 350 347 345 344 321 321 326 331 339 339 340 340 338 335 336 338 328 328 329 329 334 336 330 326 324 327 329 322 324 327 325 322 322 322 326 324 324 322 317 315 313
350 350 349 347 346 342 320 317 321 328 338 338 337 338 340 339 338 337 339 337 336 337 336 334 334 333 334 332 331 331 326 329 329 330 329 323 326 325 326 322 317 315 313
349 349 349 346 345 343 317 315 318 328 334 339 337 337 336 337 324 324 337 337 336 335 322 321 323 324 327 325 330 326 324 323 321 325 330 327 323 324 325 321 317 315 312
348 346 346 344 334 341 314 313 316 327 332 337 340 339 321 323 318 318 335 336 333 335 333 332 333 328 329 329 324 336 331 324 325 328 333 327 329 327 319 325 319 313 313

GFSMA_sfc_thetae_072.txt.gz
Theta_e
359 357 357 358 359 361 357 357 360 354 355 359 357 354 354 354 353 351 356 363 363 362 363 362 362 361 361 361 361 358 356 357 357 356 353 355 358 357 355 351 351 354 354
362 360 360 353 358 356 357 358 356 357 355 358 358 358 353 354 355 355 355 359 361 361 363 364 364 364 362 362 361 361 358 358 359 359 358 357 357 358 357 355 354 354 355
363 362 361 357 355 358 363 354 357 360 356 357 356 354 355 353 353 352 353 356 358 362 361 361 363 363 363 363 362 362 361 360 359 359 359 358 358 357 358 356 355 354 349
362 362 354 353 358 356 361 360 355 357 358 355 352 355 354 354 354 354 355 353 356 354 359 361 360 359 360 361 362 362 361 360 359 359 359 359 358 357 356 356 356 354 346
361 361 357 359 358 358 360 358 359 358 353 351 351 348 350 355 352 351 352 353 353 357 355 360 359 354 356 358 361 361 362 360 359 359 359 359 358 356 354 354 351 352 348
360 357 356 357 356 351 355 352 353 355 354 355 350 347 353 348 354 351 353 351 357 356 356 356 347 349 354 350 354 358 360 361 358 359 359 358 356 356 354 353 349 349 351
356 355 353 356 354 349 346 354 354 348 351 355 343 346 348 348 351 350 350 355 351 355 350 357 353 353 351 349 348 356 359 360 359 358 358 355 355 354 354 353 350 349 350
351 352 353 351 355 353 354 352 351 349 351 349 346 345 338 343 347 349 353 352 352 353 353 356 355 355 355 355 355 356 356 356 356 358 356 354 353 352 352 352 350 349 349
354 350 350 353 353 351 347 349 350 349 344 345 351 343 335 331 342 349 345 348 349 350 354 353 354 356 356 355 358 356 358 356 358 358 357 355 352 350 350 350 348 347 346
355 352 350 351 352 350 347 345 344 343 344 341 348 347 348 345 334 330 339 338 347 348 349 350 351 352 352 353 352 349 348 349 355 356 355 354 352 351 350 348 346 346 345
354 352 351 352 350 350 348 348 347 348 346 346 344 345 345 345 342 335 329 334 340 340 341 342 346 350 351 351 350 349 351 351 352 353 353 351 350 348 348 347 347 347 347
352 352 350 349 347 346 342 345 347 345 346 348 348 341 338 337 336 335 334 337 336 334 335 337 340 347 348 347 348 348 348 349 348 348 349 350 349 349 348 348 347 347 347
354 350 349 348 347 347 349 346 348 346 347 346 344 342 341 339 341 343 339 338 336 334 333 333 335 343 344 346 345 345 345 343 342 341 342 343 345 346 346 346 347 348 348
350 352 353 355 353 352 351 351 348 346 347 346 348 348 347 350 350 346 342 338 332 330 331 329 334 337 339 342 341 342 338 338 337 336 337 339 340 341 342 344 345 346 346
350 352 353 351 352 354 350 350 348 346 344 344 344 343 346 348 348 346 344 343 335 326 325 328 328 336 337 340 340 338 335 335 335 334 334 335 335 336 337 338 338 337 337
354 355 353 353 352 353 351 350 349 348 346 345 345 344 344 346 349 351 349 347 342 337 326 329 329 333 336 336 339 334 332 332 332 332 333 333 333 333 333 333 334 333 333
356 356 350 354 353 351 351 350 349 347 344 346 347 345 345 348 346 350 349 347 343 340 329 328 330 333 332 332 335 333 333 329 328 330 332 332 331 330 330 330 330 331 330
356 354 353 349 352 350 351 344 343 346 343 343 341 344 344 347 346 347 345 343 343 341 331 325 325 325 328 333 335 333 334 331 327 328 328 329 328 328 327 327 326 325 325
353 351 353 351 348 349 345 346 346 344 344 344 341 341 344 344 343 345 345 344 343 337 332 326 322 324 325 329 330 331 331 329 327 327 326 326 326 325 323 322 321 319 318
352 346 347 347 346 348 348 347 344 343 344 343 341 342 344 344 344 345 346 344 341 337 331 326 322 321 323 326 329 326 324 326 322 324 326 325 324 324 322 320 319 318 315
350 349 346 346 347 344 336 342 343 342 342 342 341 343 339 336 334 334 340 342 340 334 328 324 322 320 320 321 322 326 325 325 324 324 322 321 321 320 318 319 318 318 316
354 354 350 345 347 349 326 331 333 335 339 340 336 339 337 333 331 332 333 331 340 335 331 327 324 320 320 322 324 324 325 323 318 327 323 319 321 319 319 318 320 317 315
354 353 352 347 345 347 323 322 326 329 331 336 337 340 338 337 338 335 329 330 330 330 334 332 326 325 322 323 324 325 323 322 321 325 326 319 321 318 318 317 319 315 314
353 352 351 350 348 334 320 320 321 330 326 334 335 339 338 338 335 338 337 336 335 335 333 335 335 331 329 327 327 326 324 324 325 324 322 317 323 321 320 317 318 315 312
352 350 351 349 349 338 319 317 323 329 326 330 333 332 336 336 325 325 335 335 334 330 322 324 324 326 325 324 328 327 322 320 318 321 322 321 326 322 318 314 314 314 312
350 348 348 349 338 342 315 313 322 329 330 329 331 334 324 328 318 319 329 332 331 333 328 327 328 327 327 326 325 328 326 322 322 321 326 322 326 321 318 317 314 311 310

GFSMA_sfc_thetae_075.txt.gz
Theta_e
348 349 349 351 350 351 351 350 350 349 349 350 352 352 349 348 350 349 351 362 361 361 361 361 362 361 360 361 360 359 355 356 357 357 355 354 356 356 354 351 349 351 352
351 350 348 349 349 354 350 351 348 348 349 350 349 350 349 349 349 349 352 356 362 360 360 363 363 363 362 360 359 360 358 356 359 359 359 356 357 358 358 355 354 353 354
350 350 349 347 351 350 350 349 350 350 348 349 347 348 350 349 349 348 352 351 358 362 361 361 362 362 363 362 360 360 359 359 359 359 358 358 357 357 358 357 355 356 353
351 348 347 345 349 350 351 347 348 347 344 346 345 347 347 349 350 349 350 351 353 352 360 361 361 362 362 362 361 361 359 359 358 358 359 359 358 357 357 357 357 357 351
352 349 346 348 352 348 348 347 345 346 344 342 344 345 347 349 347 350 348 349 350 351 350 356 360 360 358 357 356 356 359 359 357 357 358 359 358 357 357 355 355 355 351
351 351 346 346 346 342 342 344 343 345 345 344 348 346 344 344 345 348 345 347 352 352 351 350 349 351 356 353 355 353 355 357 357 357 358 358 358 357 356 354 353 351 350
350 349 345 344 344 341 339 341 343 342 341 342 337 337 340 345 340 344 343 345 346 351 351 348 346 346 352 348 345 350 351 355 358 357 357 356 357 355 354 353 352 350 349
348 349 347 345 348 344 342 342 342 339 341 342 334 333 330 331 339 343 344 344 344 349 349 347 351 351 348 351 346 350 354 352 356 357 355 355 354 354 353 352 352 350 350
349 348 349 346 347 347 343 342 340 339 335 338 340 333 326 322 329 338 336 335 342 346 347 346 348 349 349 348 352 352 352 351 357 356 358 354 353 351 351 351 350 350 349
347 347 347 347 345 344 341 341 343 340 338 334 337 342 338 335 325 323 332 332 342 342 340 340 344 347 346 347 349 349 349 348 352 355 357 356 352 351 350 349 348 347 347
346 347 344 345 346 346 344 344 342 340 339 336 336 338 339 338 335 328 323 328 338 336 336 337 338 343 346 345 343 349 350 349 351 353 353 352 351 351 349 348 347 347 346
344 344 343 341 344 345 343 342 343 342 342 341 341 339 336 332 331 331 329 330 331 332 333 335 335 342 344 344 347 349 350 349 348 348 348 349 350 349 349 348 348 348 348
342 342 343 339 337 337 338 341 342 343 341 339 339 339 340 338 338 335 334 331 330 332 331 333 335 340 343 340 342 346 347 344 343 342 343 345 347 348 348 348 348 348 348
341 345 344 341 341 340 343 343 341 343 343 342 343 339 340 340 340 336 334 332 329 329 330 329 333 336 338 338 342 341 339 340 339 338 338 339 340 342 344 345 346 346 347
344 346 346 347 345 346 346 343 340 339 339 339 340 340 340 341 343 341 340 337 332 324 324 327 329 335 337 338 338 334 334 337 337 336 335 335 336 336 337 338 339 339 339
342 343 343 345 344 343 344 342 340 340 337 337 339 340 341 342 342 341 340 338 337 330 324 329 328 331 334 337 337 331 332 333 334 335 333 332 333 333 334 334 335 334 334
340 339 339 341 342 341 341 339 339 339 339 338 340 340 339 341 340 339 339 339 337 335 327 328 329 332 331 332 332 329 328 324 328 333 332 331 330 330 331 331 331 331 332
341 340 339 339 340 341 341 341 339 338 338 337 336 337 336 342 337 336 337 336 337 336 328 324 326 326 328 331 330 328 328 327 324 331 330 329 328 327 326 327 326 326 325
340 341 339 338 338 338 338 339 337 333 336 335 337 336 335 336 334 335 336 335 335 334 331 326 324 324 325 329 329 330 328 322 324 329 329 328 327 326 324 323 322 320 319
341 340 340 341 341 339 339 338 337 331 332 334 336 333 337 336 333 334 336 334 332 331 329 326 324 323 323 325 327 323 321 320 317 323 325 323 325 325 323 322 321 320 316
342 343 342 340 338 337 332 336 335 331 330 333 334 336 333 333 334 332 333 335 335 328 326 323 321 320 320 322 324 324 321 318 316 317 316 317 316 315 317 321 321 321 317
340 338 337 337 335 335 326 328 329 330 329 332 330 332 330 332 331 331 331 333 333 328 325 323 321 320 321 322 324 324 321 318 313 319 317 314 316 314 315 313 319 319 316
339 338 338 337 336 330 322 322 326 325 325 330 331 332 332 335 329 327 329 330 331 332 330 327 323 321 321 323 324 322 322 323 317 320 318 312 316 314 318 317 319 317 315
339 340 338 337 335 327 320 319 323 321 324 330 330 331 330 330 329 329 326 328 329 332 333 333 327 325 325 324 326 326 324 323 323 322 320 315 316 315 317 315 320 317 314
340 339 339 338 336 325 318 317 320 321 323 326 331 329 331 327 324 323 330 328 325 323 322 325 327 325 323 322 325 325 322 320 318 319 319 318 319 315 312 310 315 317 313
340 339 337 337 333 329 314 314 320 322 321 324 326 329 326 325 318 318 326 326 325 325 324 322 322 323 323 322 324 326 324 320 319 318 322 317 316 319 314 313 310 312 310

GFSMA_sfc_thetae_078.txt.gz
Theta_e
347 347 347 348 349 349 348 347 348 349 349 348 348 349 347 345 347 348 348 360 359 359 360 360 359 357 357 358 358 356 354 356 357 357 356 353 353 354 353 352 349 349 350
348 347 347 346 347 348 348 345 345 346 348 348 348 349 350 350 351 350 350 353 360 360 360 364 364 361 360 359 359 359 358 355 357 358 359 357 356 357 355 355 352 351 354
347 348 346 346 347 348 349 347 347 346 345 346 347 346 348 348 347 349 349 350 355 361 360 361 363 361 363 363 362 360 360 359 358 359 359 357 357 357 357 357 356 355 354
348 347 346 344 346 347 347 344 344 346 344 343 343 344 346 347 347 348 348 349 350 354 357 360 359 359 361 364 364 363 360 359 358 358 358 359 358 356 356 356 357 357 356
350 347 343 344 346 344 345 345 341 341 340 341 343 343 343 345 347 347 348 346 350 350 348 356 358 357 360 360 359 359 360 359 358 358 358 358 358 357 356 355 355 355 355
348 347 345 345 343 343 342 343 341 342 340 340 344 343 339 341 343 344 346 347 349 352 350 348 349 352 357 361 359 359 358 358 358 359 358 357 356 356 356 354 354 353 352
347 348 344 344 343 339 339 340 340 339 339 339 335 334 336 340 340 340 342 343 344 348 347 348 347 347 348 355 356 356 356 353 355 357 358 356 355 355 353 353 353 352 350
347 345 346 344 343 340 337 337 340 337 337 338 332 331 327 330 335 341 339 344 342 344 347 347 345 348 347 349 348 350 354 354 356 355 357 355 354 353 353 352 352 350 350
348 346 346 345 344 343 340 339 339 337 335 335 339 332 325 322 326 334 331 337 341 341 342 345 348 348 348 347 351 352 355 355 356 354 355 355 352 350 351 351 350 350 349
347 346 346 345 344 345 340 341 342 339 336 331 335 338 334 330 324 323 332 329 339 339 339 340 342 345 346 346 348 351 351 350 351 354 356 357 354 351 350 350 349 349 348
344 345 344 344 344 344 342 341 340 337 337 335 334 333 334 334 332 329 325 326 333 332 333 335 336 342 345 345 342 346 349 348 349 352 353 354 353 351 350 349 348 347 347
341 343 342 342 344 344 343 342 341 340 339 339 338 336 336 332 331 330 328 328 329 332 332 334 335 342 342 343 347 349 350 349 347 348 349 350 351 350 349 349 348 347 348
339 340 340 338 339 341 341 340 339 340 339 336 337 339 339 337 337 335 332 330 329 331 331 332 334 339 341 338 341 346 347 345 343 342 344 345 347 348 349 348 347 348 348
338 341 341 339 337 336 336 338 336 338 341 339 338 338 338 338 338 336 333 329 328 328 330 329 331 337 338 338 342 342 340 342 340 338 338 339 341 343 344 345 346 346 347
341 342 342 339 338 338 338 340 338 337 337 337 339 340 339 340 341 340 337 334 329 324 324 328 329 335 337 336 336 334 335 339 339 337 335 335 336 338 339 341 341 340 341
339 341 342 342 342 342 342 340 337 337 336 334 335 334 334 339 340 340 339 338 337 330 324 328 329 332 336 336 337 331 333 335 336 335 334 333 333 334 335 335 336 336 335
339 339 339 340 341 340 340 338 337 337 336 335 336 337 336 337 339 339 340 337 337 333 326 327 329 332 332 332 331 329 329 328 331 334 333 332 331 331 332 332 333 333 333
338 337 337 339 339 339 338 336 335 338 335 334 335 336 335 338 335 335 336 335 336 335 328 324 327 327 328 331 327 325 326 327 327 332 331 330 329 328 327 327 327 327 326
337 338 337 336 336 338 337 337 337 333 333 335 333 332 334 334 333 333 334 333 333 334 329 326 324 325 327 331 326 326 321 319 325 331 330 329 327 326 325 324 323 320 318
337 337 336 336 335 336 336 335 335 330 330 332 333 331 334 334 333 333 333 333 332 330 328 327 325 324 325 327 328 324 320 320 318 324 327 326 326 327 325 324 323 321 317
339 338 338 339 339 339 334 337 334 328 328 328 331 335 333 333 333 331 332 333 331 328 326 324 323 322 322 324 324 323 320 317 315 317 316 320 319 320 319 323 324 324 318
338 338 339 339 333 334 325 328 331 330 329 330 328 330 329 333 330 330 331 333 331 327 324 322 321 322 323 324 324 323 320 316 314 317 314 314 315 315 314 314 321 321 317
336 335 334 334 333 331 322 322 326 326 327 327 330 329 328 330 328 328 327 329 329 328 328 326 323 323 322 324 325 323 321 319 316 318 316 314 315 313 316 316 318 319 316
336 334 334 335 333 331 319 318 322 320 324 330 329 330 331 328 326 327 326 326 328 331 329 329 325 322 322 326 327 327 324 323 322 320 320 314 315 314 314 316 319 319 316
335 336 336 335 333 329 316 316 320 320 321 327 330 331 330 328 324 322 328 324 322 322 321 324 324 321 320 320 324 324 322 321 319 319 320 316 313 313 312 311 313 319 315
324 338 337 336 330 328 313 313 319 320 318 321 323 325 324 322 317 319 327 323 320 322 323 322 322 322 320 319 321 324 322 321 320 317 321 318 317 315 312 311 310 314 314

GFSMA_sfc_thetae_081.txt.gz
Theta_e
344 345 346 347 348 348 347 346 347 349 348 348 347 348 347 345 345 347 345 360 358 358 362 358 356 357 357 356 354 356 356 353 355 354 354 352 352 352 352 351 350 350 350
345 345 345 345 346 347 347 346 345 346 346 347 347 347 348 348 346 348 347 350 359 359 360 362 359 359 357 358 358 357 356 354 357 359 358 357 355 355 354 354 353 350 351
345 345 344 344 345 346 347 346 344 345 344 345 344 346 346 347 347 348 348 348 351 360 359 360 360 359 360 360 360 361 360 359 357 357 358 358 357 355 357 356 355 355 354
347 345 345 344 345 345 345 344 343 341 342 342 342 344 344 345 346 346 347 347 347 352 358 360 358 358 359 359 361 363 360 359 358 357 358 358 357 356 356 356 356 356 355
349 346 345 345 344 345 345 344 341 341 338 339 341 342 342 343 345 348 345 347 347 349 349 354 358 357 359 361 361 361 360 358 357 357 358 358 358 356 356 355 355 355 355
347 346 343 343 342 340 341 340 339 340 339 339 343 342 339 339 341 341 344 348 348 348 348 347 349 352 358 359 358 359 359 357 357 356 357 356 357 356 355 355 354 354 353
345 346 344 344 342 339 340 340 339 339 338 338 334 333 334 338 339 339 340 341 343 346 347 347 346 346 347 352 354 357 358 357 356 356 356 356 354 355 355 354 353 352 352
345 345 344 343 342 339 337 338 338 336 335 336 331 328 325 329 334 338 338 341 340 343 346 346 345 346 345 346 349 353 355 355 355 355 355 355 352 352 353 353 351 351 350
345 344 344 343 343 341 338 336 336 337 333 334 334 330 322 322 324 332 330 336 339 340 341 343 346 347 348 348 350 350 353 354 355 357 358 354 352 350 350 351 350 349 349
346 345 344 344 343 343 341 339 339 336 333 331 333 336 332 329 323 323 329 329 338 336 336 337 339 342 346 346 349 351 350 351 351 354 355 355 353 351 351 351 351 349 348
344 344 342 342 342 341 341 341 340 337 337 334 332 332 331 332 329 324 321 325 335 334 331 332 334 341 345 345 341 344 350 348 348 350 352 354 354 353 352 351 349 348 348
339 342 341 340 341 341 342 342 341 338 337 335 334 333 332 331 331 327 325 326 327 331 329 330 332 341 341 340 345 349 349 348 347 347 348 351 352 352 351 350 349 348 348
337 338 337 337 339 340 341 340 339 339 338 337 338 338 338 336 334 334 330 330 329 331 329 330 333 338 341 337 340 346 347 345 343 342 343 345 348 349 350 349 348 348 348
338 339 339 337 338 339 338 338 335 336 336 335 334 337 338 338 338 337 334 331 328 329 330 328 329 336 338 338 341 343 340 343 341 338 339 340 342 344 345 346 347 347 348
339 339 340 338 336 335 333 333 333 334 336 335 336 338 337 339 339 337 336 334 330 324 325 328 328 335 337 337 337 333 337 340 340 337 335 336 337 338 340 341 341 341 341
338 339 340 339 337 337 336 335 335 335 334 333 334 334 336 338 338 340 339 337 335 331 325 329 330 333 336 335 338 333 335 337 337 336 334 333 334 335 336 336 337 337 337
338 337 339 339 339 339 338 336 335 334 333 331 331 331 331 333 336 336 337 337 336 332 327 327 329 332 333 332 332 330 330 330 333 334 334 332 331 332 333 333 334 334 334
336 337 336 337 338 339 337 336 335 337 334 333 332 333 334 336 333 332 334 335 335 333 328 325 327 328 329 331 327 325 327 328 330 332 331 331 329 328 327 328 328 328 327
336 335 334 336 336 336 336 336 335 335 334 333 332 331 333 333 331 331 332 331 329 333 328 327 324 326 328 328 325 324 323 322 327 332 330 329 328 326 325 324 323 321 319
336 335 335 334 335 335 335 335 335 332 330 331 332 332 333 333 331 331 330 332 333 331 328 327 325 325 327 327 327 322 318 317 321 326 328 325 326 327 326 325 324 322 317
336 335 334 334 334 334 336 332 334 330 328 327 329 333 334 334 334 331 329 333 331 328 326 325 323 323 323 324 323 324 320 318 317 317 320 321 322 322 320 324 325 325 319
335 336 335 335 335 335 327 327 331 328 329 328 327 330 329 333 330 330 330 333 332 328 325 324 322 322 323 325 324 323 319 316 315 316 315 318 320 319 317 316 323 323 318
330 332 333 334 332 331 322 323 328 327 326 326 327 328 329 332 329 329 328 329 329 328 328 327 323 323 324 325 327 323 321 318 317 317 315 313 317 316 317 317 320 320 317
327 327 325 330 333 332 320 318 324 323 323 326 327 328 327 328 327 328 329 330 326 328 328 328 326 326 325 326 328 326 324 322 321 318 319 313 313 312 314 317 319 319 317
325 327 326 324 331 333 317 315 319 319 319 324 326 327 329 329 323 321 327 326 324 323 321 322 322 320 320 321 324 326 322 321 319 318 319 316 313 313 312 314 315 319 316
322 324 324 324 326 334 314 312 319 320 317 320 322 322 324 326 318 317 327 325 321 322 322 322 322 321 319 319 321 326 325 321 320 318 320 317 313 314 312 312 313 313 316

GFSMA_sfc_thetae_084.txt.gz
Theta_e
347 349 349 350 352 353 352 352 352 352 353 352 352 350 349 349 349 352 350 354 360 359 359 359 357 355 355 357 358 356 356 352 354 356 353 353 354 353 352 350 350 354 351
347 347 348 348 350 351 351 351 351 351 351 351 350 350 351 352 351 350 352 351 362 359 359 361 360 358 357 359 358 356 358 356 355 357 357 356 355 354 355 353 352 351 352
348 348 348 347 349 350 351 350 349 349 349 349 348 349 352 351 351 352 354 352 354 360 359 360 358 359 359 358 360 359 358 358 358 357 358 357 356 355 356 355 355 356 355
349 348 347 347 349 349 349 349 348 346 347 346 347 348 350 348 350 351 352 352 353 351 358 359 357 357 358 360 361 360 360 359 359 357 357 358 358 355 356 356 357 357 355
351 348 347 348 349 347 347 348 347 347 345 346 346 347 347 348 349 351 350 351 352 351 352 356 357 357 360 360 360 360 361 359 358 358 358 357 358 356 355 355 356 356 355
349 349 348 347 346 345 345 347 346 346 345 344 345 347 347 347 347 348 349 351 353 353 355 354 356 356 358 359 357 357 358 357 356 356 357 357 357 356 355 354 355 354 354
345 348 346 345 346 343 344 344 343 341 342 343 340 340 342 343 344 346 347 347 349 351 353 355 354 353 353 354 356 357 358 357 357 356 355 354 355 354 354 354 353 352 352
347 346 347 345 345 342 339 341 341 340 342 340 337 335 333 335 339 343 344 345 347 349 350 352 351 351 352 351 351 351 354 355 357 356 355 353 352 353 353 352 351 351 351
347 347 345 346 344 343 340 338 339 340 337 338 339 336 328 329 332 338 337 342 345 346 349 349 350 351 351 352 352 352 353 352 354 355 356 357 353 352 352 351 351 350 350
347 347 346 346 345 344 342 340 339 339 339 337 338 340 338 336 331 330 337 336 342 343 344 344 344 346 349 351 350 349 349 348 351 353 356 357 356 353 352 351 351 350 349
346 347 345 346 345 343 344 341 340 338 340 337 338 337 337 337 334 331 329 333 335 341 340 339 340 342 348 349 347 347 349 350 349 350 352 354 355 354 353 353 352 350 349
343 345 344 343 344 343 342 341 341 340 338 337 338 339 338 335 333 333 329 331 332 336 339 337 336 342 347 347 347 348 348 348 347 347 348 351 353 354 354 352 351 350 349
341 342 343 342 343 343 344 342 342 340 339 337 337 336 337 338 340 337 334 334 333 334 334 336 335 341 344 345 346 346 346 345 343 342 344 346 348 349 350 350 350 349 349
342 343 344 341 342 343 343 343 341 341 341 341 339 338 338 340 339 337 335 332 329 331 332 333 335 340 344 344 343 344 344 343 341 338 338 340 343 345 346 347 347 348 348
341 343 343 342 341 341 341 340 338 338 340 340 340 340 340 339 340 340 338 336 333 325 326 330 333 338 341 343 341 341 341 341 340 337 335 336 338 339 341 342 342 342 342
342 343 342 342 340 339 337 336 336 338 337 339 340 339 340 341 340 341 338 337 335 332 328 330 331 335 338 336 340 337 340 338 337 336 335 334 335 336 337 338 338 338 337
342 341 342 342 341 339 340 339 339 340 338 338 337 336 336 337 338 338 339 338 336 335 330 328 330 333 335 335 334 333 334 335 336 335 334 332 332 333 334 334 334 335 335
341 341 341 341 341 342 342 341 339 341 338 337 337 337 336 339 339 339 336 336 335 334 331 327 328 329 331 332 329 327 329 331 332 333 332 331 329 328 328 328 329 329 328
340 339 340 340 340 340 341 341 340 339 338 338 338 337 338 338 338 337 337 336 335 336 333 330 326 328 329 328 325 325 325 326 330 332 330 330 329 327 326 325 324 321 321
340 339 339 339 340 340 341 340 340 339 338 336 337 337 337 338 339 338 337 337 335 334 332 329 327 327 328 328 327 322 319 322 325 328 329 328 328 329 328 325 324 322 318
339 339 338 339 338 338 337 339 338 338 336 334 335 337 336 337 335 336 337 337 336 333 330 327 325 325 324 324 324 324 321 321 321 323 324 325 326 327 328 327 329 326 319
338 338 337 337 337 337 328 328 335 336 335 333 333 335 337 336 334 330 331 332 336 333 329 327 324 325 327 328 325 324 320 319 320 323 323 322 324 324 324 326 326 324 319
336 337 338 337 336 337 325 323 328 335 333 333 334 335 334 334 331 334 329 330 329 328 329 331 326 327 328 330 328 325 323 322 323 320 320 320 321 320 323 324 321 321 318
334 335 336 334 337 337 323 319 324 334 332 332 332 334 334 333 332 333 336 335 333 332 331 330 330 331 332 329 329 328 326 324 321 320 322 315 319 320 321 321 321 320 318
334 335 333 331 332 334 319 316 322 328 327 330 332 333 333 333 323 322 333 334 333 333 322 323 322 321 321 322 327 327 322 320 319 319 320 319 320 318 321 320 322 319 316
331 330 330 327 322 330 316 313 320 328 326 327 330 331 323 330 316 315 333 331 329 329 331 331 330 325 323 324 322 332 327 322 322 320 321 319 321 319 321 321 318 320 319

GFSMA_sfc_thetae_087.txt.gz
Theta_e
357 357 356 355 358 358 361 359 358 357 355 354 353 353 351 352 353 355 354 354 359 360 360 361 361 359 358 360 360 356 355 354 356 355 355 354 357 356 353 352 351 352 354
357 354 356 357 356 358 359 358 359 357 355 355 355 355 354 353 356 357 355 356 357 361 360 360 360 360 359 358 359 360 359 357 357 356 358 357 355 356 355 354 353 352 354
359 357 355 361 362 361 360 360 359 358 355 356 355 353 353 354 356 358 359 358 358 360 360 360 360 360 360 360 358 360 359 358 358 357 356 358 356 356 356 356 356 356 356
359 358 355 356 363 362 362 357 355 353 353 355 355 354 353 358 358 358 358 358 358 357 360 360 359 358 359 361 361 360 359 359 358 358 357 357 358 356 357 357 357 356 356
357 357 357 358 362 362 358 360 358 355 352 356 354 355 357 355 356 355 357 358 359 358 357 359 359 359 360 360 361 361 361 358 358 359 359 358 357 356 355 355 355 354 355
351 352 356 356 360 355 359 355 355 358 357 357 354 351 358 354 355 355 355 356 358 359 360 361 360 358 359 359 359 360 360 359 356 357 358 358 357 355 354 354 354 354 354
358 357 353 358 354 355 355 353 354 353 354 356 353 352 354 354 353 353 354 354 356 358 360 360 361 360 359 356 356 357 358 358 356 355 355 355 356 355 354 354 353 352 353
358 355 354 355 354 349 347 344 346 345 352 358 350 348 337 341 347 350 352 353 354 355 355 358 359 360 359 358 358 353 354 355 356 356 356 355 353 352 352 352 353 352 351
357 357 356 355 355 353 350 352 349 342 339 348 353 349 339 331 340 347 349 349 353 353 354 357 358 358 359 358 356 355 354 353 354 355 357 357 354 352 351 352 353 351 350
356 357 356 352 354 353 352 352 348 343 341 336 344 348 347 344 333 332 345 347 349 351 354 354 354 354 355 355 353 352 350 349 350 353 354 356 357 355 354 353 353 351 351
357 355 356 355 355 353 353 352 350 347 340 339 339 349 348 348 344 337 331 337 344 348 350 351 351 351 354 354 353 352 349 351 351 351 351 352 355 357 356 355 354 354 352
353 355 354 353 353 352 350 349 348 344 339 339 342 345 347 343 342 340 335 337 338 342 348 349 347 347 348 351 350 347 348 348 347 347 348 350 353 354 355 355 354 352 351
350 352 354 353 350 351 349 347 343 340 339 339 339 339 343 344 344 342 343 338 339 341 342 345 344 343 348 348 351 347 346 346 344 343 345 347 350 351 351 352 353 351 351
349 355 354 353 351 350 348 350 348 348 345 342 340 340 341 341 342 343 337 337 330 335 342 340 339 340 345 349 348 344 347 343 342 340 340 341 343 345 347 348 349 349 349
351 353 353 352 350 351 351 351 348 348 348 346 345 347 345 345 345 346 342 341 334 328 328 334 333 338 342 346 347 349 349 341 340 338 337 337 340 341 342 343 344 343 342
352 352 352 352 351 349 350 349 346 348 348 348 347 347 347 345 350 347 347 345 339 334 328 334 335 338 341 341 342 345 346 340 338 336 335 335 337 338 339 339 340 339 339
352 352 353 352 351 349 347 344 343 343 343 345 346 346 347 349 343 345 348 344 342 340 334 334 336 339 338 337 338 340 340 343 340 335 334 333 333 335 335 335 335 336 336
352 351 353 351 351 350 349 348 348 347 347 345 345 345 344 341 343 345 345 346 344 345 340 334 331 332 335 336 334 330 331 336 336 334 332 331 330 328 329 329 329 329 329
352 351 351 350 350 350 350 350 349 347 347 346 346 345 345 346 345 348 347 344 343 343 340 335 335 336 336 331 328 326 327 330 333 333 331 331 329 327 326 325 324 323 322
353 351 351 351 351 350 350 349 349 348 347 346 347 346 345 345 346 346 345 346 342 341 341 338 336 333 334 332 329 322 322 325 328 331 330 331 332 330 328 326 325 323 318
353 352 351 350 350 349 346 348 349 348 347 346 345 345 345 344 339 341 343 344 340 339 335 334 331 330 328 327 324 324 322 322 325 328 329 330 331 334 333 329 330 327 320
352 351 349 349 348 346 331 331 342 345 346 345 344 345 344 338 337 331 332 334 340 339 337 334 332 330 330 329 327 325 324 322 320 328 328 327 332 331 329 333 331 325 320
352 350 350 350 347 349 325 324 329 345 345 345 345 344 342 340 339 342 330 329 331 329 332 341 335 336 335 333 331 327 325 328 327 324 329 327 328 329 331 328 323 322 319
350 351 350 350 349 348 324 320 325 345 345 345 344 344 343 344 342 341 342 339 338 337 338 336 340 341 341 340 335 331 328 325 322 323 327 326 330 328 331 332 322 321 318
348 349 346 345 345 347 320 317 326 345 344 343 343 344 343 343 329 323 341 336 336 338 324 323 324 323 323 324 331 330 324 321 319 320 322 324 326 325 323 326 326 320 317
344 343 340 340 331 340 321 314 322 343 342 340 343 343 325 336 317 317 341 340 338 338 338 337 335 328 328 328 324 336 329 325 326 323 327 323 325 326 327 331 330 329 323

GFSMA_sfc_thetae_090.txt.gz
Theta_e
362 358 356 357 358 363 364 354 354 353 355 354 353 352 352 353 353 353 355 359 358 359 359 358 362 360 359 358 358 357 356 354 354 355 355 356 356 357 355 354 352 352 354
358 356 356 355 355 357 357 357 353 354 353 352 350 350 352 352 353 354 354 357 361 361 361 360 361 362 360 361 360 360 360 357 359 358 358 358 357 357 358 355 353 353 353
361 359 354 356 362 365 363 359 362 357 352 351 352 352 352 353 351 355 356 357 358 361 363 362 362 362 362 362 360 360 360 361 359 359 357 357 358 357 357 357 356 357 357
361 360 355 359 368 362 364 365 355 353 352 350 350 350 350 352 353 357 358 358 356 355 361 362 360 360 361 361 361 361 361 360 359 358 359 358 357 357 357 356 356 356 356
360 358 355 356 367 361 360 364 362 355 352 358 355 354 352 350 352 352 356 357 359 358 355 361 361 359 361 360 362 362 361 359 358 357 357 358 358 357 356 355 356 355 355
358 358 359 361 364 357 361 361 358 362 362 358 354 351 358 354 351 352 354 355 357 358 359 361 362 360 361 362 361 362 360 359 358 357 357 356 357 357 356 355 354 353 354
361 359 355 355 358 354 354 360 361 356 353 359 354 349 352 353 354 354 355 355 356 357 360 360 361 359 358 361 359 359 360 359 357 357 356 355 356 356 355 354 353 352 353
362 360 359 357 352 352 355 352 357 353 351 361 345 344 340 343 348 352 352 351 354 355 356 359 361 362 362 359 363 356 356 355 356 358 357 354 354 354 354 353 351 350 352
361 361 360 359 358 359 359 355 353 350 344 349 353 349 339 334 338 349 352 351 353 353 354 356 358 362 364 361 359 362 357 355 354 354 356 356 354 353 353 352 352 351 351
360 360 361 359 358 353 357 357 361 354 352 347 349 350 352 348 341 336 345 349 353 354 356 356 356 360 360 358 356 354 351 350 351 352 354 355 356 356 355 353 353 352 352
360 359 360 359 359 357 361 360 359 357 355 348 341 347 345 349 349 339 333 341 348 349 350 353 354 356 357 357 355 354 349 351 350 350 351 352 353 356 357 357 356 356 355
363 359 357 357 358 357 356 355 358 356 354 350 346 342 343 344 342 343 340 340 339 346 348 351 354 353 353 354 352 348 348 348 347 347 348 350 351 353 354 355 355 355 353
351 358 359 358 354 356 355 356 357 355 354 350 348 343 344 343 341 348 346 341 341 345 348 348 350 354 352 352 351 348 350 346 345 345 346 348 350 352 354 354 355 354 353
352 357 357 356 356 355 353 355 353 348 349 344 343 343 344 341 344 348 346 344 339 341 347 350 350 350 350 350 353 346 350 345 343 342 342 343 345 347 349 350 350 351 350
353 355 356 356 356 355 354 354 350 350 352 348 345 345 344 343 344 343 343 343 339 331 334 342 343 346 347 352 349 349 352 341 341 339 339 340 342 343 344 346 346 345 345
357 354 355 356 356 354 354 354 349 350 350 353 351 349 350 351 352 351 351 351 345 340 335 341 339 344 345 346 346 347 348 342 339 337 336 337 339 341 342 342 342 340 339
359 357 355 355 356 355 354 353 351 347 347 347 349 349 349 351 354 355 354 350 348 346 340 342 347 347 344 344 346 347 342 346 340 335 335 335 335 337 338 337 337 337 337
359 358 354 356 355 355 354 351 349 347 346 346 347 347 347 346 349 349 345 353 352 347 340 341 344 341 344 345 340 338 340 340 341 334 332 332 331 331 330 330 331 330 329
358 357 353 353 353 353 353 353 352 351 350 349 349 349 349 348 348 349 347 349 348 349 347 341 339 340 340 338 331 330 330 333 336 334 332 331 330 329 328 327 325 324 323
358 357 355 354 353 353 353 353 352 351 350 350 350 349 347 347 348 349 348 349 349 347 347 346 346 338 339 337 334 328 324 328 332 333 331 333 334 331 328 327 326 324 320
358 359 355 356 354 352 350 352 351 350 350 349 349 350 349 347 342 343 343 349 348 345 341 338 337 336 332 330 328 328 325 325 327 330 332 335 337 340 336 330 331 327 321
358 357 356 354 352 349 333 333 342 349 349 349 347 349 349 341 340 334 335 335 341 345 342 336 335 336 337 332 329 325 322 321 322 328 329 329 334 338 338 342 331 324 321
355 356 356 355 352 353 330 327 331 347 347 347 348 348 346 343 342 345 332 330 332 331 334 343 340 341 341 341 333 327 326 327 330 328 328 328 335 332 336 335 326 323 320
350 351 351 355 354 353 327 322 326 348 348 349 349 348 349 348 346 344 345 343 343 343 343 342 346 345 346 347 340 335 332 327 327 330 330 325 332 332 336 337 324 322 319
346 351 352 354 353 352 325 320 328 347 348 348 349 349 348 348 333 326 343 342 341 342 328 327 328 327 327 328 335 334 325 322 320 321 325 327 329 329 331 328 325 321 318
347 348 350 346 337 349 325 315 326 345 348 349 351 352 329 340 319 319 342 344 338 340 341 339 337 331 332 332 326 339 331 325 325 322 325 324 328 329 334 335 334 333 330

GFSMA_sfc_thetae_093.txt.gz
Theta_e
365 359 361 361 357 354 355 354 354 353 355 355 351 351 350 354 350 351 356 363 360 360 359 359 360 360 359 358 356 356 357 356 356 356 355 354 357 356 356 354 354 353 351
361 360 357 355 355 359 355 358 355 353 353 352 351 351 351 352 352 354 351 359 363 362 362 361 362 363 362 361 360 359 359 358 358 358 358 358 358 359 358 357 356 354 355
366 364 355 359 355 360 365 365 364 357 351 350 351 351 349 351 350 352 352 355 359 362 363 364 363 363 364 363 362 362 362 361 362 359 360 358 358 358 358 357 357 357 357
362 362 358 353 358 363 361 357 356 353 353 351 353 349 351 352 354 353 353 358 355 355 363 364 363 362 363 362 363 363 362 360 360 360 359 360 358 357 358 357 355 356 354
360 359 356 358 365 361 360 360 356 354 351 351 351 353 356 350 352 349 351 356 359 355 357 362 362 362 362 361 362 363 363 360 360 359 359 359 359 358 357 357 357 355 355
359 360 355 363 364 362 362 359 358 356 357 361 351 349 356 353 355 354 353 355 357 361 362 361 363 359 362 362 361 362 363 362 360 359 359 358 357 356 356 356 356 354 353
361 361 355 358 364 356 358 359 360 357 354 360 358 350 355 355 354 351 352 354 355 356 360 362 361 358 358 361 361 361 363 362 361 360 358 356 356 354 355 355 354 354 352
363 360 359 356 357 354 356 356 356 354 353 360 352 351 348 343 348 352 353 351 355 356 356 359 360 366 363 357 363 361 359 359 358 359 359 356 354 353 353 353 353 352 351
362 363 362 363 364 358 351 360 354 353 346 358 356 351 343 334 343 346 354 351 356 350 353 360 362 363 363 361 364 364 360 358 356 356 356 357 355 354 354 353 353 352 351
359 361 364 362 363 366 359 355 362 358 353 346 359 352 353 350 344 341 346 350 353 355 361 355 355 361 362 360 362 358 357 353 351 352 353 354 356 355 355 354 354 353 352
361 358 361 361 360 359 357 361 359 356 358 356 355 353 351 347 354 341 342 341 348 351 351 355 352 358 362 359 359 359 355 350 350 351 351 352 352 353 355 358 357 356 356
355 360 359 361 359 359 359 357 357 356 356 357 357 353 348 343 342 344 339 341 340 347 348 350 357 355 358 356 357 352 351 349 349 348 348 349 350 352 353 355 356 357 357
350 359 360 357 363 359 360 360 360 355 357 353 354 353 349 349 350 351 342 347 346 344 350 351 352 357 356 355 356 352 352 350 347 347 347 348 350 352 353 355 356 354 354
354 360 360 358 358 356 355 357 353 355 352 352 351 351 349 352 342 345 343 338 336 343 352 350 362 366 358 354 357 350 351 348 346 344 344 345 347 349 350 351 352 351 351
353 360 357 355 357 357 356 355 351 352 354 353 350 350 347 346 345 342 339 338 339 335 338 346 349 357 353 352 356 353 353 344 343 341 341 342 344 346 347 348 348 346 345
359 358 354 353 355 358 356 356 351 352 351 352 351 350 349 347 347 348 345 346 350 344 338 351 346 348 347 348 351 349 350 343 340 338 338 339 342 343 345 345 344 342 340
362 359 356 355 355 355 355 355 353 350 349 350 351 350 350 352 348 351 352 353 353 350 341 346 353 352 347 348 348 350 350 349 342 336 336 336 338 339 340 340 338 338 338
362 359 357 354 355 355 353 352 350 348 347 347 347 349 348 348 351 353 349 353 351 353 347 343 350 348 346 348 348 345 344 341 345 335 333 333 333 333 333 333 332 331 330
360 357 356 353 353 353 354 352 351 350 349 349 349 351 349 350 352 354 350 353 348 353 350 347 346 350 343 343 334 334 333 335 336 335 333 332 331 330 330 328 327 324 323
357 359 357 354 353 352 352 354 353 352 353 350 351 351 349 347 350 351 351 350 352 348 347 347 345 347 345 342 338 330 328 330 332 335 334 334 334 331 330 327 327 325 321
358 359 358 355 356 352 348 353 350 350 352 351 351 350 350 349 345 345 349 353 353 345 340 340 341 344 340 336 333 333 331 328 328 332 332 333 334 336 332 331 331 328 322
361 360 357 355 355 350 336 336 345 350 351 349 350 349 350 345 342 337 337 337 345 347 348 345 343 338 344 338 336 334 327 323 321 330 332 332 337 335 335 337 330 325 322
362 360 357 356 355 355 330 330 334 349 348 350 349 348 345 344 344 346 334 333 333 333 335 345 343 342 344 343 338 330 325 324 325 329 332 325 331 332 338 339 326 323 321
356 353 355 360 358 356 325 325 329 351 350 350 349 349 350 349 349 346 347 343 342 342 340 338 344 347 347 349 343 336 331 329 328 334 334 326 330 331 339 341 326 324 320
350 350 353 356 358 357 326 321 329 350 349 349 349 350 350 348 338 329 344 345 345 347 329 329 327 329 332 336 339 337 328 325 320 323 335 332 328 330 336 336 334 322 319
348 346 350 355 346 357 325 317 327 346 346 344 353 354 333 342 327 322 345 345 344 342 343 341 340 331 331 334 328 341 333 326 324 321 326 324 328 331 323 332 334 330 329

GFSMA_sfc_thetae_096.txt.gz
Theta_e
355 356 357 359 357 355 352 352 353 350 350 354 354 353 350 352 354 353 354 362 360 360 362 361 362 362 361 360 359 358 357 359 358 358 356 355 357 359 357 356 356 355 355
357 352 352 356 354 358 353 349 354 350 355 351 350 353 353 353 354 356 355 360 363 362 362 364 363 363 363 362 360 359 358 358 359 358 358 357 357 358 358 358 358 358 356
358 356 355 354 353 359 365 361 362 359 351 354 355 352 352 352 351 355 356 357 359 364 363 363 364 363 363 364 364 362 361 361 361 359 359 358 358 358 359 359 358 358 357
359 362 355 356 353 360 359 359 360 357 354 352 351 352 349 350 350 353 355 355 356 356 360 362 361 363 363 364 365 363 362 361 360 360 361 360 359 358 357 359 358 354 357
360 358 357 355 362 359 359 357 355 357 355 354 353 354 354 352 354 351 351 352 356 356 356 361 362 361 364 364 365 365 362 361 360 360 360 360 360 359 357 357 357 357 355
361 360 358 358 358 357 357 359 354 357 353 351 350 347 350 352 353 353 352 351 354 358 357 359 359 359 363 363 363 362 362 362 361 360 360 359 359 357 356 356 356 357 356
360 360 355 358 359 356 354 357 354 354 351 354 350 349 351 356 356 355 355 350 354 356 354 362 358 357 358 361 360 360 361 361 362 361 360 359 358 357 355 354 353 354 354
360 359 358 359 360 357 356 357 356 352 352 352 346 343 338 345 350 350 351 352 353 353 352 356 360 358 358 360 358 361 361 360 362 362 359 358 357 355 354 353 352 351 352
360 360 360 356 359 358 350 354 351 352 347 349 352 340 334 334 341 350 349 349 350 352 352 352 356 359 361 358 360 361 360 359 359 358 357 357 355 354 354 354 353 352 351
360 358 357 358 359 358 355 351 357 351 349 345 350 348 346 346 337 335 348 348 347 347 357 358 357 359 358 360 363 361 358 359 357 354 353 354 355 355 356 355 354 353 352
360 358 357 355 355 358 354 352 354 354 353 349 347 345 347 346 346 340 335 337 347 349 349 354 353 356 361 360 359 360 355 356 352 351 351 351 351 353 355 356 357 357 356
357 359 358 357 357 357 353 354 354 353 352 352 348 347 344 343 340 341 337 339 340 343 351 348 351 356 358 356 357 356 355 352 351 349 348 348 349 351 352 353 356 356 357
354 356 359 358 356 358 355 357 356 355 354 352 350 349 350 347 347 345 342 337 338 342 345 348 350 355 356 356 353 355 354 350 349 349 347 348 348 350 352 354 355 356 356
352 359 358 358 358 357 357 357 355 355 354 351 349 348 347 347 347 345 340 337 332 335 339 345 352 355 355 353 353 352 351 350 348 347 345 345 346 348 349 350 352 352 352
356 359 357 358 359 357 356 357 353 353 353 351 350 351 348 348 349 346 342 337 334 328 330 338 345 355 353 352 352 351 351 346 346 343 343 343 344 346 347 348 347 346 345
359 358 358 357 357 357 358 356 354 353 353 352 350 348 348 347 348 344 340 339 337 333 330 340 346 349 349 347 350 348 348 343 342 340 339 340 342 343 345 346 344 342 341
362 357 359 357 356 356 357 355 354 353 350 350 349 349 348 350 345 344 345 344 341 340 336 339 347 346 344 345 345 347 344 344 338 337 336 336 337 340 340 340 338 338 339
361 357 358 358 357 356 355 354 351 350 349 349 348 347 347 350 348 349 347 345 344 344 341 337 344 344 343 345 345 344 343 342 339 335 334 333 333 333 333 333 332 332 331
357 357 358 356 356 356 354 353 351 352 352 350 349 348 346 347 347 345 346 345 345 346 346 342 341 345 344 342 336 337 336 336 335 336 334 332 332 332 331 329 327 324 323
353 355 355 356 355 355 356 352 352 351 352 351 352 349 346 346 347 345 346 345 345 343 343 342 342 342 341 340 335 329 327 332 331 335 335 334 334 333 331 328 327 325 321
352 354 353 356 355 355 350 353 352 351 351 349 350 350 346 348 349 348 347 345 345 343 342 339 339 338 338 335 333 333 330 329 329 332 331 332 332 332 329 329 330 328 323
352 353 354 353 352 350 338 340 349 350 351 351 350 351 351 345 343 338 340 339 345 343 341 339 338 336 336 337 337 334 329 323 321 329 329 331 335 334 332 332 330 327 323
355 352 351 349 350 353 333 331 338 352 351 351 351 349 348 345 342 345 335 335 335 334 337 341 338 338 337 339 337 333 327 326 325 328 330 329 334 333 335 333 326 323 322
349 346 347 347 352 352 328 326 331 351 351 351 352 351 348 347 349 345 346 339 340 340 337 336 338 343 344 344 340 333 329 329 330 328 331 325 329 327 334 335 326 323 321
341 343 349 354 352 349 324 322 330 349 349 349 350 351 350 347 338 330 344 343 342 341 330 328 326 330 333 336 338 335 328 325 321 325 332 330 329 328 331 334 330 323 319
341 343 343 350 344 350 328 320 326 346 346 346 350 350 333 343 329 322 341 343 340 341 341 335 332 329 331 334 329 336 331 325 323 320 328 329 329 329 325 332 333 326 323

GFSMA_sfc_thetae_099.txt.gz
Theta_e
347 350 349 352 351 348 345 349 347 348 347 347 346 347 345 345 350 350 351 363 363 363 364 362 362 359 358 358 358 357 357 358 358 357 357 356 358 358 357 356 355 356 355
350 346 350 349 351 349 346 347 345 346 345 345 346 344 343 344 348 349 351 356 362 362 363 363 364 363 360 360 360 359 357 357 361 359 360 359 357 357 359 357 357 358 358
351 347 349 348 349 350 350 351 347 350 347 348 343 346 343 343 345 347 351 354 357 362 363 362 364 364 365 364 362 361 360 359 359 360 359 358 358 358 358 359 359 359 358
353 350 350 348 350 350 351 348 348 346 345 346 341 344 342 343 342 343 347 352 353 356 360 363 363 363 363 365 365 364 362 360 360 360 360 359 358 358 358 358 359 358 358
352 352 352 350 349 350 349 349 347 346 344 345 346 347 344 342 343 345 343 344 350 353 352 359 362 361 364 364 363 364 363 361 360 360 360 361 360 360 358 357 358 358 356
351 349 349 350 352 348 348 348 347 348 344 342 346 345 344 348 348 347 345 346 345 352 351 353 356 357 363 363 363 363 363 362 361 361 360 360 360 359 358 356 355 356 356
353 350 349 349 349 348 347 349 345 345 345 345 340 339 341 345 348 347 348 347 346 348 351 351 354 353 355 361 361 361 361 362 362 361 360 359 358 358 357 355 353 353 353
353 352 348 347 347 345 346 347 347 344 345 345 339 336 329 334 341 346 346 347 345 348 348 349 354 352 353 354 356 361 361 361 361 360 359 358 357 357 356 355 353 352 352
351 351 352 349 349 348 347 346 348 345 341 343 345 337 329 327 332 339 344 345 345 345 346 346 352 355 353 354 357 359 361 358 360 361 359 357 355 354 354 354 354 352 352
351 352 352 350 350 349 346 347 347 345 343 338 342 346 341 337 330 328 338 342 344 345 348 349 348 352 357 355 357 358 357 355 357 358 355 355 355 354 354 355 354 354 352
352 352 350 348 346 350 349 347 345 346 345 340 338 338 339 338 338 334 330 333 339 343 346 346 348 351 352 353 353 352 355 352 354 351 352 351 351 351 352 354 355 356 356
352 352 352 349 348 349 347 347 346 346 343 344 343 341 338 336 334 334 333 333 332 338 342 346 345 348 353 353 357 357 355 351 350 349 348 348 348 349 351 352 353 355 356
348 351 351 349 349 349 349 348 345 345 345 344 345 343 343 342 341 338 335 331 331 334 337 344 346 345 351 351 350 355 356 350 347 348 345 345 347 348 349 351 353 354 356
349 351 352 351 349 350 349 348 346 345 346 345 344 344 345 345 344 342 335 331 327 330 335 333 342 345 347 346 348 354 350 348 346 344 342 343 344 345 346 347 349 352 353
349 350 351 351 350 348 348 347 345 345 345 344 344 344 344 344 344 342 339 336 331 325 327 333 336 344 348 345 347 345 346 347 346 342 341 341 342 343 344 345 345 345 344
349 352 351 351 350 349 348 347 343 343 344 344 344 343 341 343 341 339 336 335 335 331 326 336 337 343 345 345 347 343 344 344 342 340 338 338 340 342 343 344 342 341 340
351 351 351 348 349 348 347 346 344 343 342 342 343 343 342 341 340 339 336 336 334 335 330 333 339 341 339 340 341 342 341 336 336 338 336 336 335 337 339 339 338 338 338
348 349 350 348 348 347 346 345 343 344 342 340 340 340 341 345 340 339 338 338 338 337 334 332 336 338 338 338 337 337 339 340 334 336 334 333 333 333 332 333 332 332 331
345 347 347 346 348 348 346 345 344 342 342 341 341 339 338 340 338 338 339 338 340 340 340 337 334 337 336 334 334 336 335 334 333 336 334 333 332 332 331 330 328 325 324
341 346 348 348 348 347 348 346 345 342 342 342 342 341 340 339 337 338 337 337 337 336 335 333 332 333 333 333 333 329 328 331 331 334 334 332 333 333 331 329 327 326 322
339 348 348 348 348 347 348 346 344 343 341 341 342 342 341 342 341 340 338 336 336 334 334 332 331 330 330 332 326 327 326 328 330 331 329 327 330 330 328 330 331 330 324
345 345 345 347 346 350 338 337 344 343 343 342 339 340 341 342 341 338 339 342 339 335 333 332 329 329 330 329 329 327 327 324 322 329 329 329 329 328 328 330 331 327 322
341 341 344 345 344 345 334 329 337 344 344 343 342 342 341 344 339 338 332 336 336 337 337 335 330 330 329 332 333 329 326 325 323 326 329 326 329 327 328 331 327 323 322
339 340 339 340 341 345 333 327 328 341 343 343 344 343 341 338 337 338 336 332 332 331 332 334 333 333 335 334 336 333 328 327 328 327 330 324 325 327 330 331 326 323 321
336 338 341 341 339 340 329 322 326 334 339 340 341 343 343 340 333 329 338 333 332 332 328 327 328 329 329 330 332 330 327 325 322 325 328 327 323 322 328 331 328 323 320
336 339 338 337 335 341 332 317 322 335 338 338 339 341 330 338 327 323 335 336 333 334 332 326 325 325 330 330 327 332 328 325 322 321 328 327 322 322 321 329 330 326 322

GFSMA_sfc_thetae_102.txt.gz
Theta_e
346 349 350 350 348 344 344 348 348 349 347 347 346 346 343 341 346 347 349 361 361 362 362 361 359 358 356 357 358 357 355 357 355 353 354 356 356 357 355 357 355 354 354
345 348 348 350 348 345 342 347 345 345 344 344 343 345 343 343 350 348 347 355 361 362 363 362 362 360 358 357 357 358 358 358 359 359 358 358 357 358 359 358 358 357 358
348 346 347 347 349 348 343 343 345 345 343 343 342 342 342 342 345 348 348 350 354 361 360 362 361 363 362 361 360 360 359 359 359 360 359 359 358 357 357 358 359 359 358
349 344 345 347 348 347 347 345 343 342 343 342 341 342 343 341 340 344 348 350 352 354 359 361 361 361 362 363 363 362 361 359 358 358 359 359 358 357 357 358 359 358 358
351 347 346 347 347 346 347 346 345 343 342 341 342 343 341 339 340 342 342 348 350 352 352 357 360 359 361 363 364 364 363 360 359 359 359 360 359 358 357 357 357 357 357
351 349 348 348 347 345 345 345 344 345 343 342 344 343 343 343 342 340 341 342 345 350 350 350 352 354 362 362 362 361 360 362 361 360 360 359 359 357 357 355 354 354 355
349 348 347 347 347 346 346 346 344 342 342 342 338 337 338 342 343 345 344 343 344 344 348 350 350 352 353 360 359 359 360 361 361 360 358 358 358 356 356 356 354 353 353
348 347 345 344 345 345 343 344 341 340 341 342 337 332 328 332 336 343 345 345 345 345 346 349 349 351 351 351 355 359 359 360 360 359 358 356 356 355 356 355 354 353 352
351 349 347 345 345 344 344 344 344 342 339 340 340 334 327 325 331 335 338 342 343 342 345 345 349 351 351 350 355 358 360 357 359 359 358 357 355 353 354 354 354 353 353
350 351 350 348 347 345 342 344 346 343 340 336 338 342 337 336 330 326 334 338 341 343 342 346 346 347 350 352 356 357 357 354 357 358 358 357 355 354 354 354 354 354 353
348 350 349 348 347 348 347 344 343 342 343 337 336 336 337 335 334 331 328 333 339 341 343 344 342 341 344 350 353 354 356 354 354 355 354 355 354 352 352 352 353 354 355
346 348 349 348 346 347 347 346 345 344 343 342 340 339 337 335 334 331 332 332 332 336 341 342 343 345 347 349 354 355 356 354 350 348 348 350 350 350 350 351 352 353 354
346 347 347 346 346 346 347 345 345 344 342 342 342 340 341 338 337 336 333 331 329 332 334 340 343 345 348 347 349 355 357 350 346 344 344 345 345 347 348 349 350 352 353
347 349 349 348 347 347 346 346 343 344 342 339 339 341 341 341 341 340 337 332 327 327 330 331 340 343 343 345 348 352 350 347 345 342 341 340 342 343 344 345 346 348 351
348 348 350 349 348 347 347 346 342 342 342 340 341 342 343 343 343 342 338 335 333 329 326 329 333 339 341 342 345 346 347 346 346 342 339 338 339 340 341 341 341 342 343
348 348 349 350 348 347 347 345 343 342 342 341 342 340 341 342 342 341 339 336 334 333 328 330 333 339 344 344 345 344 344 344 343 340 338 336 338 338 339 339 340 340 340
346 347 349 348 348 347 347 345 343 342 341 340 341 340 340 339 339 338 336 333 333 333 330 332 337 340 339 340 341 339 341 339 339 338 337 336 335 335 336 336 337 337 337
338 345 346 347 347 347 346 344 343 343 340 338 339 338 338 341 337 337 336 333 332 333 331 328 333 337 336 337 336 336 336 336 333 337 335 333 332 331 332 332 332 331 330
338 337 339 344 345 346 345 345 344 342 341 340 340 338 337 338 336 336 336 336 336 336 335 331 331 334 334 334 335 336 335 335 333 337 334 332 332 331 330 329 327 324 323
335 335 334 343 345 344 344 344 343 340 339 340 340 339 338 337 338 336 336 337 336 336 336 336 331 331 330 333 331 330 329 332 331 334 335 332 332 333 332 329 328 327 323
332 334 332 344 343 343 345 343 343 341 339 338 339 340 339 340 338 336 338 335 334 333 331 330 328 328 328 330 330 329 329 328 330 331 329 328 326 327 329 330 332 332 325
332 333 341 343 340 346 335 333 339 340 340 338 337 338 339 340 338 333 334 335 336 334 331 329 328 327 327 329 329 326 325 325 323 327 329 327 326 325 327 331 331 327 322
338 339 341 340 338 340 330 327 332 342 340 340 339 338 338 342 337 338 333 332 332 332 333 334 328 328 327 329 329 324 323 324 324 324 328 326 327 325 327 331 327 323 320
333 335 337 339 339 340 326 324 327 337 338 339 341 340 339 339 337 337 335 332 334 335 335 336 333 332 332 332 334 332 328 326 326 326 330 323 328 327 327 331 326 322 320
333 334 338 339 338 339 327 321 325 333 334 337 337 338 339 338 331 325 334 330 329 331 327 324 327 327 326 325 329 329 325 324 323 324 328 327 324 325 329 329 327 322 318
332 335 336 336 331 337 322 319 320 334 333 335 336 336 329 334 325 320 333 334 331 332 330 327 326 325 324 325 325 333 329 325 322 322 327 326 323 324 323 328 329 324 321

GFSMA_sfc_thetae_105.txt.gz
Theta_e
346 348 347 348 347 343 346 348 348 348 347 347 347 346 344 342 341 343 343 359 361 361 363 359 358 359 357 356 356 358 357 355 352 356 354 354 355 355 354 355 355 355 356
344 348 347 348 346 343 342 346 345 345 345 345 345 345 344 343 345 349 347 355 361 359 360 362 361 359 358 356 357 356 357 356 357 357 356 356 356 357 358 357 358 357 356
344 346 347 347 347 344 341 340 344 343 342 343 342 342 343 341 343 346 345 351 353 360 360 362 363 362 361 360 358 358 360 359 359 359 358 358 357 357 357 359 359 357 358
346 345 345 346 347 345 342 339 339 340 341 340 339 340 341 340 340 345 345 346 349 350 357 361 361 360 362 363 361 361 360 358 358 358 359 359 359 358 358 357 357 358 358
349 344 344 344 346 345 345 343 340 339 338 339 340 340 340 339 339 341 342 346 347 350 350 355 360 360 361 362 363 363 361 360 358 358 358 359 359 358 357 356 356 356 357
349 346 344 343 345 344 343 343 342 342 341 340 342 343 341 341 341 338 339 341 346 348 349 349 349 354 361 360 359 360 360 359 358 359 358 358 358 358 357 356 354 354 354
349 347 345 344 345 344 343 344 342 340 340 339 336 336 337 340 341 342 343 340 340 343 347 348 347 348 350 359 358 359 360 360 359 358 357 357 357 356 356 355 354 353 353
348 348 346 344 345 345 342 343 342 338 339 340 334 330 328 331 334 339 341 344 343 343 343 346 347 348 349 349 353 359 359 360 360 359 358 356 355 354 353 353 354 353 353
347 348 346 345 344 345 342 342 341 339 334 338 338 333 325 324 327 334 336 340 343 343 344 344 346 348 349 349 352 356 359 357 359 360 359 357 355 353 353 353 353 353 353
348 347 346 345 344 344 342 343 344 341 339 335 335 339 334 332 326 324 333 336 339 340 341 342 345 347 349 350 353 356 355 354 357 359 359 358 355 353 352 352 354 354 353
348 349 347 345 344 344 343 342 342 342 341 336 335 334 336 334 332 329 327 333 336 339 341 342 342 342 344 346 349 352 355 354 354 356 356 356 356 355 353 353 353 353 355
346 347 348 347 346 345 344 343 343 343 342 341 337 334 334 332 332 329 330 330 332 336 337 341 342 342 343 342 349 354 355 354 352 348 350 352 353 352 351 351 352 352 353
342 344 345 345 344 345 346 343 342 343 343 342 340 339 337 336 335 334 331 327 329 332 335 336 339 341 344 345 347 353 356 353 346 344 344 346 346 347 348 349 349 351 351
344 345 345 346 346 345 345 344 344 343 341 340 338 337 339 339 339 337 334 330 330 329 330 332 335 341 342 344 346 352 350 348 345 342 340 340 341 342 344 344 345 346 347
346 346 347 346 346 345 345 344 343 342 341 339 339 339 339 340 341 340 338 336 334 328 325 329 330 337 339 340 343 341 344 346 346 341 339 338 338 338 339 340 340 340 340
346 346 347 347 346 345 345 344 343 341 341 339 341 338 338 338 339 340 341 337 334 333 330 329 330 334 338 341 343 343 342 344 343 341 338 335 336 337 337 337 337 338 338
346 346 346 347 347 345 345 344 343 342 340 339 339 338 337 338 337 337 335 334 332 333 332 329 332 338 337 338 342 341 341 340 340 339 337 336 334 334 335 335 335 336 337
344 345 347 346 346 346 345 344 343 343 340 338 337 337 337 339 335 335 334 332 331 331 329 325 328 334 336 337 338 337 336 336 334 338 335 334 333 331 330 330 330 328 329
337 337 341 344 343 345 345 345 344 342 340 339 338 338 338 336 335 334 334 333 333 333 331 328 326 331 332 333 335 336 336 334 333 336 335 333 331 330 329 329 326 324 321
339 339 338 339 341 343 344 343 343 341 340 340 339 338 338 336 336 335 334 334 334 336 335 333 332 330 331 334 335 331 330 332 331 334 334 332 332 333 332 329 326 326 320
337 336 337 337 340 343 345 343 343 342 340 338 338 338 338 338 338 337 337 334 333 333 332 331 331 327 330 330 331 331 330 329 331 332 330 330 330 327 327 330 331 331 322
330 330 330 334 337 343 334 331 339 341 339 338 336 337 338 338 337 333 334 335 335 332 330 328 327 326 326 332 331 329 328 326 324 329 329 328 328 327 327 328 331 328 322
333 333 331 332 337 340 329 326 331 339 339 338 337 337 338 341 336 337 331 330 330 331 333 333 328 328 327 329 328 327 328 327 325 322 329 326 327 328 325 329 327 325 320
331 333 336 335 333 336 325 324 327 333 336 337 338 338 337 338 336 337 335 333 332 332 332 333 333 333 332 331 331 329 329 326 325 327 329 322 325 326 325 328 327 323 319
332 332 336 336 337 338 320 319 324 332 333 335 337 337 337 336 331 325 335 332 331 330 327 325 327 326 324 324 329 327 325 325 324 322 328 326 325 326 328 328 329 323 318
333 335 333 335 331 337 320 318 324 336 333 333 333 336 327 334 322 320 332 332 330 331 329 328 325 323 323 324 324 333 328 327 323 321 325 326 323 325 323 329 328 324 321

GFSMA_sfc_thetae_108.txt.gz
Theta_e
349 350 350 352 351 349 352 353 352 351 351 350 350 350 348 348 347 347 347 355 362 361 363 362 360 358 358 356 356 355 356 355 353 353 357 354 353 357 354 355 355 355 356
349 350 349 350 350 348 348 351 350 350 349 349 348 349 349 349 348 350 348 353 362 361 363 364 361 359 359 359 358 357 357 358 357 356 357 357 356 356 357 355 354 356 356
348 350 349 349 350 348 346 347 349 349 348 347 347 347 347 347 347 351 349 354 360 361 360 361 362 363 362 360 359 358 358 359 358 358 358 357 356 356 357 358 357 357 357
348 348 349 349 351 349 346 343 345 345 345 345 345 345 346 346 347 348 350 350 354 353 359 360 361 362 361 362 362 361 360 359 359 358 358 359 358 357 357 358 357 357 357
349 348 348 349 350 349 347 344 342 344 343 344 344 345 346 346 346 345 348 349 350 353 352 355 361 360 362 362 362 362 362 360 359 358 358 359 359 358 358 358 357 357 356
350 347 348 347 349 348 348 346 344 344 344 342 342 344 346 346 346 344 345 345 350 351 353 354 354 356 359 361 360 360 361 359 359 358 358 358 358 357 356 357 355 355 355
350 348 347 346 347 346 347 348 347 345 344 345 343 343 344 346 346 347 347 345 345 348 351 353 353 353 353 357 358 358 360 359 358 358 357 357 356 356 355 355 354 353 354
350 349 347 345 346 346 345 346 346 344 343 342 339 338 336 339 341 344 346 347 348 349 346 350 353 354 354 353 355 357 358 359 359 359 357 356 355 354 354 353 353 352 353
350 350 349 347 346 347 344 345 345 344 342 341 342 339 330 332 334 339 342 344 347 348 349 350 350 353 354 354 355 356 358 357 359 360 359 357 355 354 354 353 352 352 352
349 350 349 348 347 346 346 346 347 346 343 339 342 343 340 338 334 333 340 343 346 346 349 349 352 352 354 353 355 355 354 353 356 360 360 359 356 355 354 354 354 352 352
350 349 349 347 346 346 347 346 345 344 344 343 341 341 342 340 338 336 333 340 344 346 349 347 351 352 352 354 354 355 354 354 354 355 357 359 358 355 356 354 353 354 354
348 349 349 348 346 346 346 346 347 346 344 345 342 340 342 338 338 337 334 336 337 342 346 348 349 351 351 350 349 350 353 353 351 351 352 353 354 356 355 353 353 353 353
346 347 349 348 347 347 347 346 345 346 346 344 343 342 343 342 342 340 338 336 335 339 341 345 347 349 351 352 352 350 354 352 350 346 345 347 350 350 350 350 349 350 350
346 348 348 349 349 348 348 348 346 345 345 346 346 343 343 344 343 342 341 336 331 335 338 340 343 344 350 351 351 350 354 349 346 342 341 341 342 343 344 345 345 346 346
347 347 347 348 348 348 347 347 347 345 345 345 345 344 343 344 344 344 343 342 339 332 333 335 335 343 348 348 349 351 351 347 345 342 339 338 338 339 339 340 340 340 339
346 347 347 347 347 347 347 346 346 346 345 344 343 343 343 345 344 344 344 344 342 339 332 339 339 341 346 347 347 349 349 343 343 341 338 337 337 337 337 337 337 337 337
346 347 347 348 347 347 347 346 346 346 343 344 344 343 343 344 344 344 342 342 339 338 334 339 338 343 343 343 345 349 348 348 349 340 338 336 334 334 334 334 334 335 335
345 347 347 347 348 348 347 346 345 346 343 342 342 343 343 343 342 344 342 339 340 339 337 335 336 339 341 339 344 342 342 343 341 340 336 335 332 331 330 330 327 326 326
340 345 347 347 347 347 346 346 346 346 345 344 343 343 343 342 341 342 341 341 340 339 338 334 334 337 339 340 337 339 339 339 338 337 336 333 331 331 329 327 324 322 321
338 339 342 344 344 344 345 345 346 345 345 345 344 344 343 342 343 342 341 341 340 337 336 335 334 334 337 340 339 337 336 338 339 339 337 334 333 333 332 329 326 326 321
338 341 340 341 343 345 345 345 345 344 343 344 342 343 343 343 339 341 341 341 340 336 334 335 334 333 333 334 334 336 335 336 338 338 338 337 337 336 336 332 332 330 324
336 334 335 337 339 341 332 330 338 342 342 343 341 342 344 340 338 332 334 335 340 339 335 333 332 331 334 336 337 336 335 330 328 339 335 335 337 337 336 335 332 328 324
334 333 332 333 336 338 326 327 329 341 340 341 340 341 340 343 339 342 332 331 331 331 335 340 337 337 337 337 339 334 332 331 332 332 333 329 334 331 338 334 327 325 322
333 334 335 334 333 335 325 322 325 336 338 340 341 341 341 343 343 341 342 339 338 339 338 339 342 343 342 342 341 339 336 337 334 331 334 327 331 328 336 336 327 324 320
332 333 335 336 335 336 320 318 326 334 335 334 337 339 341 341 332 325 341 341 340 340 330 325 328 327 325 325 333 335 332 329 328 329 332 331 332 333 333 333 334 324 319
334 335 334 338 332 339 314 314 328 336 333 333 334 335 326 333 323 319 335 339 337 339 338 338 334 329 326 329 324 339 336 330 330 328 331 329 328 331 328 332 334 333 329

GFSMA_sfc_thetae_111.txt.gz
Theta_e
358 359 357 359 353 357 358 359 358 355 354 352 352 353 351 353 353 354 355 358 361 362 361 360 362 359 358 359 356 354 356 357 355 354 355 358 355 352 357 354 357 355 354
358 358 358 356 357 353 356 359 357 355 353 352 351 353 354 355 355 356 356 357 359 363 362 363 364 362 359 360 359 357 356 357 358 358 355 359 358 357 355 356 354 355 357
360 359 356 354 357 358 360 360 359 357 352 352 351 351 353 354 354 355 357 357 358 362 363 363 365 364 363 362 362 361 359 359 360 359 358 357 357 356 357 357 356 358 358
361 359 354 353 355 358 357 352 352 352 351 349 349 349 351 353 354 355 356 357 357 357 360 362 362 361 362 362 362 362 361 359 358 358 358 359 358 358 356 357 358 358 357
359 357 355 356 358 356 354 353 350 349 349 350 349 349 351 351 354 352 354 356 358 356 355 358 360 360 361 362 363 362 362 361 359 359 359 359 359 359 358 357 357 358 357
358 357 356 358 359 357 355 354 352 350 346 348 346 345 350 352 354 354 354 353 355 357 356 359 359 358 361 361 361 361 361 361 359 359 358 358 358 357 357 357 357 356 356
356 357 354 356 357 355 356 357 355 352 346 350 347 346 350 354 353 353 354 353 353 354 356 357 358 356 355 358 358 360 361 361 360 359 358 357 356 355 355 355 354 354 353
357 356 356 355 356 353 356 356 355 351 350 353 344 345 338 343 349 351 352 353 354 354 354 355 358 359 359 357 359 359 360 360 360 359 358 357 355 355 355 354 353 353 353
358 358 358 357 357 356 352 355 355 354 352 353 352 352 341 335 342 347 351 351 353 352 354 355 358 360 361 360 359 359 358 357 359 359 359 358 355 354 354 354 354 352 352
356 357 359 358 357 356 356 354 355 353 356 349 351 350 351 347 341 335 346 349 353 353 355 355 354 357 360 360 361 359 356 353 357 360 360 359 358 356 355 355 355 354 353
357 357 358 358 357 356 356 356 355 354 352 349 353 355 353 352 351 343 337 340 346 350 353 355 354 355 358 359 358 357 355 354 354 355 357 359 360 359 358 358 357 356 354
354 357 358 358 359 358 356 356 356 357 357 354 354 357 352 344 345 345 341 341 341 345 348 350 350 351 355 356 358 355 354 352 351 351 352 354 357 358 359 359 357 354 354
351 357 358 357 357 358 355 355 359 357 355 357 356 349 352 356 358 353 346 340 340 342 343 348 350 352 353 354 355 355 356 351 348 346 346 348 350 353 355 356 353 352 351
352 358 358 357 358 358 357 355 354 358 358 359 355 356 349 354 356 354 344 342 337 338 343 345 349 350 352 354 355 352 355 350 348 345 343 343 345 347 347 348 347 346 346
354 356 356 357 358 358 357 359 357 354 358 358 358 358 358 357 352 356 353 353 347 334 335 343 343 350 350 350 354 356 358 350 347 343 339 339 340 341 342 343 341 341 340
357 356 355 356 357 357 357 358 359 359 355 353 353 353 356 358 356 355 350 349 349 345 336 342 345 349 351 351 353 354 355 346 345 343 339 338 338 339 339 339 339 338 338
357 355 357 356 355 355 356 355 356 355 352 354 353 352 351 354 357 352 350 348 346 346 339 343 347 348 351 351 351 355 355 356 354 341 339 338 337 337 336 336 336 335 334
356 354 354 356 355 355 356 354 352 352 352 351 352 352 351 351 353 355 352 345 345 345 340 338 344 344 347 351 348 347 351 352 352 342 338 336 335 333 332 332 330 328 327
354 353 354 355 355 357 355 355 354 353 353 353 354 352 352 352 350 350 351 348 345 346 344 341 342 344 346 347 347 342 342 342 344 340 337 335 334 332 331 330 326 323 322
346 349 354 353 354 356 357 356 353 355 354 354 354 353 353 352 352 351 350 350 349 345 342 341 339 337 341 347 345 342 340 344 343 343 341 338 337 334 333 330 328 327 323
339 344 345 348 350 350 349 351 352 351 351 351 352 353 353 350 343 347 349 350 350 343 341 339 336 337 338 338 338 341 340 342 342 345 344 345 344 343 342 333 336 332 326
338 341 342 343 344 347 332 331 344 352 352 351 350 350 352 344 343 334 336 337 346 347 341 339 337 336 338 342 344 340 338 336 335 346 343 341 344 343 344 345 335 330 326
339 338 340 340 342 345 328 326 329 347 345 343 344 344 349 348 343 350 334 331 333 333 338 349 345 344 345 348 349 345 341 341 339 342 342 335 342 341 344 343 329 326 323
335 335 337 337 334 336 324 322 326 340 343 340 341 342 344 348 349 349 351 349 348 349 346 345 349 351 351 355 353 351 348 345 343 342 341 333 341 338 343 344 328 325 322
334 333 335 339 338 337 321 318 325 339 337 338 340 341 342 344 331 323 346 347 348 349 334 328 330 329 329 328 337 348 342 337 333 335 339 334 339 338 340 340 341 324 320
338 339 339 339 332 338 322 317 321 339 336 337 337 339 327 335 322 319 338 343 345 345 352 351 346 337 330 338 325 345 347 339 337 334 340 335 336 337 333 339 340 339 335

GFSMA_sfc_thetae_114.txt.gz
Theta_e
359 359 361 357 350 359 361 359 353 355 353 353 353 354 354 352 354 356 356 362 361 362 360 359 360 362 360 359 357 356 354 357 357 355 354 355 357 355 353 357 355 357 355
360 358 360 355 354 351 358 359 357 356 352 349 351 352 355 354 355 357 356 361 362 363 362 361 363 363 361 359 359 358 356 354 358 358 357 357 357 358 354 355 357 355 357
361 360 356 353 357 353 355 359 359 354 349 348 349 350 354 355 354 356 357 358 359 362 364 363 364 365 365 362 361 362 361 360 360 360 360 359 356 359 359 357 356 357 358
361 359 355 352 353 358 351 354 354 351 348 347 347 349 351 353 354 357 357 357 357 357 362 364 363 363 364 363 363 364 362 361 360 359 359 360 359 359 357 358 358 358 358
360 358 353 353 357 352 353 349 349 350 346 346 346 349 350 350 352 352 355 357 359 358 356 362 361 362 362 360 363 364 364 361 361 360 359 360 360 359 358 358 357 357 357
359 357 355 356 357 351 350 349 350 349 347 347 346 346 348 349 350 352 354 355 356 357 358 359 360 360 360 361 362 363 364 362 361 361 360 359 359 358 357 358 357 357 357
358 359 354 362 363 355 354 355 352 351 346 347 345 344 346 349 350 351 354 353 354 355 357 357 357 356 356 361 360 360 362 362 361 360 359 358 357 357 357 357 355 355 355
359 356 356 355 359 359 360 359 356 347 346 345 341 339 334 339 344 347 350 350 351 352 353 355 357 360 360 357 360 359 360 361 361 360 359 358 356 356 356 355 354 354 354
359 359 357 356 359 359 362 360 360 355 344 347 352 338 333 331 338 346 350 351 353 352 354 356 358 360 363 361 361 361 361 358 361 361 360 359 356 355 355 355 355 353 354
357 358 360 360 366 364 365 359 358 359 362 355 361 354 353 349 338 336 347 350 355 356 358 356 355 358 361 360 362 361 358 354 358 360 361 360 358 357 356 356 356 355 354
357 356 360 360 361 363 362 363 363 362 361 359 357 360 355 349 358 345 337 342 348 349 352 355 355 354 357 360 359 358 357 355 355 356 357 359 360 359 360 359 358 358 358
354 358 357 361 363 362 364 363 363 360 358 358 363 358 346 349 350 346 347 345 343 346 349 352 352 351 352 353 357 356 357 355 353 352 352 355 356 358 360 360 361 360 358
352 360 363 363 360 365 363 363 362 363 358 355 358 352 350 359 359 358 348 343 340 343 346 350 351 351 354 355 355 356 359 353 349 346 346 347 350 352 356 358 360 357 356
356 366 364 361 362 361 363 365 362 356 361 357 357 359 354 353 361 351 347 342 338 340 342 348 351 354 353 353 355 354 355 351 349 345 343 343 345 348 351 352 352 350 348
357 361 362 361 362 362 365 365 360 357 360 359 356 360 361 356 360 358 360 359 345 337 335 345 346 359 353 354 355 355 356 353 350 346 342 341 342 344 346 346 345 343 343
364 362 360 360 362 363 363 366 362 360 360 356 354 358 357 353 355 363 353 361 354 349 338 344 346 353 355 352 355 356 356 350 348 346 342 341 341 342 342 343 342 342 341
356 357 363 361 361 361 362 363 361 360 357 356 357 356 355 358 353 359 362 355 354 355 345 345 347 352 354 353 354 356 356 356 361 344 341 340 338 339 339 340 340 341 338
354 357 360 358 362 360 362 360 357 356 354 353 354 356 355 354 358 360 359 357 356 356 347 345 348 347 351 356 355 355 353 353 356 345 340 338 336 334 334 336 338 334 330
359 359 359 359 358 358 359 360 359 356 356 355 355 356 356 356 356 358 356 355 352 353 350 345 344 347 348 350 352 353 351 351 346 343 338 336 334 334 333 333 332 326 324
352 355 357 355 357 358 358 357 357 357 357 357 357 356 355 356 355 356 355 355 356 350 349 348 345 344 344 351 350 345 345 348 347 346 344 340 340 336 334 332 330 327 323
346 346 348 351 354 355 354 356 357 357 357 356 355 354 356 353 345 349 352 353 357 349 344 342 344 343 340 342 344 345 343 355 348 350 347 347 346 346 343 334 338 333 327
344 346 345 345 347 347 337 334 344 359 356 355 356 355 356 347 344 336 336 337 350 355 348 344 343 342 345 347 348 344 344 340 337 349 345 344 348 345 345 347 340 337 326
343 344 344 345 346 349 328 326 331 354 356 356 356 355 353 351 346 353 335 332 335 333 338 353 348 348 347 350 354 352 350 344 341 349 347 341 345 343 347 344 332 328 325
343 341 341 346 346 346 326 321 325 343 352 352 352 354 352 350 350 346 345 344 347 349 348 349 351 353 356 356 354 352 352 353 350 346 349 338 343 342 346 348 329 326 323
340 337 338 340 339 344 321 319 323 336 342 346 347 348 346 340 330 322 338 339 341 349 337 328 331 329 326 326 338 351 345 346 341 342 344 341 341 341 343 343 345 325 321
344 344 343 340 334 344 320 315 321 337 339 342 346 341 330 335 323 321 335 337 337 342 352 351 352 343 336 344 326 348 349 344 341 341 346 338 339 340 336 343 344 341 338

GFSMA_sfc_thetae_117.txt.gz
Theta_e
359 359 361 357 353 359 358 360 356 354 356 351 353 355 350 350 352 350 359 365 363 363 361 360 359 360 360 360 358 356 355 354 359 357 354 354 355 356 355 353 357 356 357
364 357 361 356 352 361 356 359 359 355 357 348 352 351 353 352 351 355 356 360 364 363 362 362 361 361 362 361 360 360 358 356 356 359 358 357 357 357 358 354 355 358 357
366 366 359 357 355 357 361 359 363 358 356 349 351 349 352 353 352 358 358 360 361 364 364 364 364 364 365 362 361 362 362 361 360 359 360 360 358 357 360 359 357 357 358
361 364 358 356 356 358 351 354 355 351 352 346 349 346 350 353 354 355 356 356 356 358 362 365 364 364 366 365 365 364 363 363 361 361 360 360 361 359 358 359 358 358 357
360 359 353 353 364 354 351 348 349 352 349 346 345 346 350 349 351 350 354 357 359 355 356 362 363 363 363 362 365 365 364 363 362 361 361 360 359 360 359 359 358 358 357
361 360 354 365 357 349 349 348 353 350 349 346 344 345 350 349 348 348 350 351 356 357 359 360 363 360 362 362 362 363 364 364 363 362 361 360 360 359 358 358 358 358 358
362 363 352 359 358 355 353 361 353 354 345 349 344 343 347 348 348 347 348 349 355 357 358 356 358 355 356 360 360 360 363 364 363 361 360 360 359 359 357 357 356 356 356
363 362 361 357 361 357 359 362 362 345 346 347 340 339 335 339 343 346 347 348 350 352 352 357 361 365 361 356 362 360 362 363 363 362 360 359 358 357 357 356 356 355 355
363 365 365 360 364 364 354 361 354 350 344 348 350 339 332 329 338 346 351 347 355 348 352 354 358 364 370 361 362 363 362 360 362 363 362 360 357 356 356 356 355 355 354
364 365 365 364 364 357 360 357 360 357 360 354 357 346 351 349 339 336 345 350 354 355 364 357 355 359 367 360 366 363 360 356 359 362 363 362 360 358 356 356 357 356 355
364 359 364 364 364 358 363 364 362 361 357 355 355 358 353 352 354 341 335 343 350 351 354 357 355 355 361 363 359 359 358 356 356 358 360 361 360 360 359 359 359 359 359
359 363 361 364 365 363 365 362 365 364 360 358 355 355 351 349 346 344 342 345 343 348 349 349 355 355 356 354 358 356 358 357 354 353 353 355 357 358 361 361 362 361 361
351 359 362 363 362 367 367 365 366 363 363 358 359 354 356 353 350 349 350 343 341 345 346 350 348 357 352 354 355 357 362 354 350 348 347 348 350 352 354 356 358 361 362
356 362 363 361 364 365 366 366 360 360 363 360 362 360 352 354 353 351 347 343 339 340 344 353 351 351 354 356 357 356 355 353 350 346 344 344 345 347 349 351 354 360 358
355 359 367 364 365 365 366 367 359 361 362 361 361 362 357 351 353 354 352 349 344 341 337 344 346 357 355 355 356 358 358 355 354 348 344 343 343 344 347 351 353 351 348
356 355 354 365 364 365 365 365 361 362 362 357 356 360 361 360 360 355 354 352 352 347 342 345 346 357 360 354 356 356 357 354 351 349 346 342 342 344 344 345 345 344 343
360 348 358 357 363 364 365 363 362 362 361 360 359 359 358 361 354 354 353 353 352 353 345 345 350 357 355 357 355 358 358 356 357 346 344 342 341 341 341 340 340 341 343
362 352 349 349 343 356 363 361 359 358 359 358 358 358 358 354 359 360 359 358 353 356 349 347 351 350 356 361 359 357 356 352 356 347 343 340 338 336 336 337 339 340 336
357 357 354 342 350 357 361 361 360 359 359 359 357 357 358 358 358 359 359 357 354 355 352 349 346 348 350 352 356 357 357 357 353 345 340 337 336 335 335 335 335 332 326
352 355 356 353 350 352 360 360 359 360 359 358 360 359 360 359 360 359 358 359 359 352 352 348 345 342 345 353 352 348 350 352 348 349 346 344 341 337 335 333 332 329 324
350 351 350 352 353 352 356 357 358 357 359 358 359 360 360 357 348 354 355 360 358 352 347 346 342 342 343 347 344 346 347 345 355 353 351 349 346 346 345 334 339 333 327
346 347 347 347 347 347 338 334 346 356 357 358 358 360 359 348 346 337 337 339 351 352 349 344 343 342 354 349 346 345 346 344 339 349 348 345 350 347 346 348 340 334 327
346 345 345 346 345 347 330 329 334 351 353 356 357 359 357 351 349 354 338 335 335 334 339 354 350 350 352 355 355 353 352 350 344 348 353 342 350 345 348 348 333 330 326
346 346 345 347 346 346 327 324 328 350 353 354 355 358 356 356 357 351 355 352 351 350 349 348 348 350 355 358 358 356 357 355 352 349 352 339 343 342 349 350 330 328 325
346 346 346 345 346 347 321 319 330 345 346 349 352 352 353 349 328 325 351 350 347 347 338 327 327 328 328 327 338 356 349 349 341 342 351 343 342 341 343 345 345 326 323
346 347 344 344 334 344 321 315 326 341 342 343 346 345 329 336 323 322 344 340 340 338 339 340 341 333 331 339 327 352 350 345 345 343 348 344 343 342 336 344 346 339 338

GFSMA_sfc_thetae_120.txt.gz
Theta_e
361 355 361 360 359 358 354 355 356 352 353 354 353 354 352 352 350 355 356 362 362 362 363 362 362 359 359 360 359 358 357 356 359 357 356 354 356 358 357 357 357 357 358
364 358 359 357 353 355 355 357 357 357 356 354 350 352 351 354 352 356 358 360 361 363 364 364 363 362 361 363 362 361 359 357 357 360 360 358 357 358 359 359 356 358 358
356 357 356 356 356 358 356 361 359 357 356 357 350 348 354 355 353 357 353 355 357 364 363 364 364 363 364 365 364 363 362 361 360 358 358 359 359 358 358 358 359 357 358
360 360 357 356 359 357 355 359 354 354 354 352 350 349 349 351 356 355 358 357 360 357 362 363 364 363 364 366 365 365 363 362 361 360 360 360 360 360 358 357 359 359 358
360 357 355 354 360 356 354 353 351 353 350 349 348 349 351 353 353 350 354 356 360 355 356 360 363 361 364 365 367 366 365 363 362 362 361 361 360 359 359 359 358 358 358
359 358 356 354 357 354 352 349 352 352 350 347 343 343 346 348 351 352 353 353 354 357 357 359 357 358 362 364 364 365 365 364 363 362 362 361 361 359 358 358 358 358 358
360 360 354 360 357 353 353 350 351 353 349 351 347 345 349 348 348 348 348 347 351 357 357 359 358 356 357 361 360 361 364 364 364 363 362 360 360 359 358 358 357 356 356
360 359 356 356 357 354 361 359 356 348 348 351 343 344 338 341 345 346 347 349 350 355 353 356 359 359 356 358 358 360 361 362 364 363 362 359 357 357 357 356 355 355 355
359 359 357 355 360 358 354 357 358 354 343 346 349 342 335 331 339 343 346 347 350 348 350 355 357 359 362 358 361 362 361 359 362 363 363 360 357 356 355 356 355 354 354
360 360 360 356 358 357 354 351 354 350 346 345 348 344 342 348 338 337 345 352 350 343 339 353 357 360 360 360 364 363 362 357 360 363 362 362 360 358 357 356 356 355 355
358 359 359 360 355 358 356 356 353 351 347 347 347 350 344 348 349 342 336 342 347 342 341 353 357 341 344 360 356 361 358 357 357 359 361 362 362 361 360 359 359 358 358
355 358 359 358 359 356 356 358 358 356 353 351 351 349 345 346 344 343 340 341 341 348 351 356 352 350 352 352 355 358 362 359 355 354 355 357 358 359 360 361 361 362 361
354 355 358 357 357 358 357 357 358 356 357 354 353 351 350 350 353 347 346 342 341 343 345 350 350 351 351 344 348 358 360 355 351 349 349 350 351 352 354 356 358 360 360
354 358 357 356 358 357 359 360 359 357 357 356 354 354 352 352 352 351 346 342 339 341 344 345 355 350 350 350 357 356 352 353 350 346 344 344 345 346 347 349 350 352 354
357 357 359 356 356 357 357 358 357 356 358 357 355 355 353 353 354 353 350 348 343 336 336 343 349 356 354 355 358 356 357 355 353 348 344 343 343 342 343 344 346 348 352
357 357 358 357 356 357 357 356 356 357 356 357 355 355 354 353 354 353 352 352 351 344 337 347 346 355 357 354 359 355 356 354 351 348 345 343 341 341 342 344 346 347 345
357 352 354 354 354 349 352 353 355 355 354 355 356 354 353 355 352 351 352 351 349 348 342 345 350 351 356 353 352 356 356 355 355 346 345 343 341 341 342 341 341 342 343
356 355 349 343 342 337 343 345 349 353 353 353 354 354 352 354 353 352 352 350 349 351 348 343 347 348 349 354 354 354 353 353 353 347 343 341 339 337 336 337 338 339 339
354 352 349 343 341 339 338 337 341 350 352 352 353 354 352 353 351 351 351 348 350 350 350 346 344 351 348 351 352 353 354 353 353 346 341 338 336 335 334 334 333 332 329
354 350 349 344 340 340 339 336 338 344 348 352 353 354 354 353 351 352 352 351 352 350 350 347 346 346 347 349 349 346 347 350 348 350 346 344 340 337 336 334 332 331 325
350 353 352 349 346 340 336 337 340 340 338 350 353 355 355 353 349 351 353 352 352 349 348 346 344 344 342 344 341 344 343 346 348 350 347 347 342 343 341 335 338 335 327
347 349 349 348 346 344 335 332 337 343 339 330 349 353 354 348 346 341 342 344 352 350 347 345 343 341 343 343 344 344 342 340 335 350 346 344 346 343 345 344 338 333 327
350 348 349 349 346 347 334 333 334 339 336 346 350 352 353 353 345 351 336 336 337 337 341 347 344 346 343 346 346 341 341 341 341 345 344 340 346 343 348 346 335 329 326
346 346 347 347 345 345 326 324 330 344 346 348 351 352 352 351 351 348 348 345 345 345 343 343 350 350 348 347 346 342 340 344 348 347 347 337 343 341 347 347 332 329 326
344 343 346 345 346 343 319 320 330 346 345 347 350 352 351 350 335 327 346 345 345 344 335 330 332 332 329 329 331 340 337 338 337 340 346 341 340 341 343 346 344 328 323
341 344 342 344 329 342 317 315 325 342 342 343 349 346 330 338 322 321 342 341 337 337 338 339 344 334 327 331 326 338 339 336 339 337 343 339 339 339 336 342 343 330 328